Wetterdaten: Dienstag, 20.09.2016
Datum Zeit Temp. A. Temp. A. max Feuchte A. Luftdruck Regen Wind Richtung Richtung Sonnenschein ET UV Solar Taupunkt Windben
20.09.2016 00:00 9,6 C 9,6 C 94 % 1017,3 hPa 0,0 mm 0,1 km/h (0 Bft) S 188 0 min 0,000 mm 0,0 UV-I 0 W/m 8,7 C 1,6 km/h (1 Bft)
20.09.2016 00:01 9,6 C 9,6 C 94 % 1017,4 hPa 0,0 mm 0,0 km/h (0 Bft) S 188 0 min 0,000 mm 0,0 UV-I 0 W/m 8,7 C 0,0 km/h (0 Bft)
20.09.2016 00:02 9,5 C 9,6 C 94 % 1017,3 hPa 0,0 mm 0,0 km/h (0 Bft) S 188 0 min 0,000 mm 0,0 UV-I 0 W/m 8,6 C 0,0 km/h (0 Bft)
20.09.2016 00:03 9,5 C 9,6 C 94 % 1017,3 hPa 0,0 mm 0,0 km/h (0 Bft) S 188 0 min 0,000 mm 0,0 UV-I 0 W/m 8,6 C 0,0 km/h (0 Bft)
20.09.2016 00:04 9,4 C 9,5 C 94 % 1017,3 hPa 0,0 mm 0,0 km/h (0 Bft) S 188 0 min 0,000 mm 0,0 UV-I 0 W/m 8,5 C 0,0 km/h (0 Bft)
20.09.2016 00:05 9,4 C 9,4 C 94 % 1017,3 hPa 0,0 mm 0,1 km/h (0 Bft) S 188 0 min 0,000 mm 0,0 UV-I 0 W/m 8,5 C 1,6 km/h (1 Bft)
20.09.2016 00:06 9,4 C 9,4 C 94 % 1017,3 hPa 0,0 mm 0,0 km/h (0 Bft) S 188 0 min 0,000 mm 0,0 UV-I 0 W/m 8,5 C 0,0 km/h (0 Bft)
20.09.2016 00:07 9,4 C 9,4 C 95 % 1017,3 hPa 0,0 mm 0,0 km/h (0 Bft) S 188 0 min 0,000 mm 0,0 UV-I 0 W/m 8,6 C 0,0 km/h (0 Bft)
20.09.2016 00:08 9,4 C 9,4 C 95 % 1017,3 hPa 0,0 mm 0,0 km/h (0 Bft) S 188 0 min 0,000 mm 0,0 UV-I 0 W/m 8,6 C 0,0 km/h (0 Bft)
20.09.2016 00:09 9,4 C 9,4 C 95 % 1017,3 hPa 0,0 mm 0,0 km/h (0 Bft) S 188 0 min 0,000 mm 0,0 UV-I 0 W/m 8,6 C 0,0 km/h (0 Bft)
20.09.2016 00:10 9,3 C 9,4 C 95 % 1017,3 hPa 0,0 mm 0,0 km/h (0 Bft) S 188 0 min 0,000 mm 0,0 UV-I 0 W/m 8,5 C 0,0 km/h (0 Bft)
20.09.2016 00:11 9,4 C 9,4 C 95 % 1017,3 hPa 0,0 mm 0,0 km/h (0 Bft) S 188 0 min 0,000 mm 0,0 UV-I 0 W/m 8,6 C 0,0 km/h (0 Bft)
20.09.2016 00:12 9,3 C 9,4 C 95 % 1017,3 hPa 0,0 mm 0,0 km/h (0 Bft) S 188 0 min 0,000 mm 0,0 UV-I 0 W/m 8,5 C 0,0 km/h (0 Bft)
20.09.2016 00:13 9,4 C 9,4 C 94 % 1017,3 hPa 0,0 mm 0,3 km/h (0 Bft) S 188 0 min 0,000 mm 0,0 UV-I 0 W/m 8,5 C 3,2 km/h (1 Bft)
20.09.2016 00:14 9,4 C 9,4 C 94 % 1017,3 hPa 0,0 mm 3,5 km/h (1 Bft) S 184 0 min 0,000 mm 0,0 UV-I 0 W/m 8,5 C 4,8 km/h (1 Bft)
20.09.2016 00:15 9,4 C 9,4 C 94 % 1017,3 hPa 0,0 mm 3,1 km/h (1 Bft) S-SW 195 0 min 0,000 mm 0,0 UV-I 0 W/m 8,5 C 4,8 km/h (1 Bft)
20.09.2016 00:16 9,4 C 9,4 C 94 % 1017,3 hPa 0,0 mm 2,7 km/h (1 Bft) S-SW 195 0 min 0,000 mm 0,0 UV-I 0 W/m 8,5 C 3,2 km/h (1 Bft)
20.09.2016 00:17 9,4 C 9,4 C 94 % 1017,3 hPa 0,0 mm 3,5 km/h (1 Bft) S 187 0 min 0,000 mm 0,0 UV-I 0 W/m 8,5 C 4,8 km/h (1 Bft)
20.09.2016 00:18 9,4 C 9,4 C 94 % 1017,3 hPa 0,0 mm 1,7 km/h (1 Bft) S 188 0 min 0,000 mm 0,0 UV-I 0 W/m 8,5 C 3,2 km/h (1 Bft)
20.09.2016 00:19 9,4 C 9,4 C 94 % 1017,3 hPa 0,0 mm 0,9 km/h (0 Bft) S 188 0 min 0,000 mm 0,0 UV-I 0 W/m 8,5 C 1,6 km/h (1 Bft)
20.09.2016 00:20 9,3 C 9,4 C 94 % 1017,3 hPa 0,2 mm 0,3 km/h (0 Bft) S 188 0 min 0,000 mm 0,0 UV-I 0 W/m 8,4 C 1,6 km/h (1 Bft)
20.09.2016 00:21 9,3 C 9,3 C 94 % 1017,3 hPa 0,0 mm 0,7 km/h (0 Bft) S 188 0 min 0,000 mm 0,0 UV-I 0 W/m 8,4 C 1,6 km/h (1 Bft)
20.09.2016 00:22 9,3 C 9,3 C 95 % 1017,3 hPa 0,0 mm 0,1 km/h (0 Bft) S 188 0 min 0,000 mm 0,0 UV-I 0 W/m 8,5 C 1,6 km/h (1 Bft)
20.09.2016 00:23 9,3 C 9,3 C 95 % 1017,3 hPa 0,0 mm 0,0 km/h (0 Bft) S 188 0 min 0,000 mm 0,0 UV-I 0 W/m 8,5 C 0,0 km/h (0 Bft)
20.09.2016 00:24 9,3 C 9,3 C 95 % 1017,4 hPa 0,0 mm 0,0 km/h (0 Bft) S 188 0 min 0,000 mm 0,0 UV-I 0 W/m 8,5 C 0,0 km/h (0 Bft)
20.09.2016 00:25 9,3 C 9,3 C 95 % 1017,4 hPa 0,0 mm 0,0 km/h (0 Bft) S 188 0 min 0,000 mm 0,0 UV-I 0 W/m 8,5 C 0,0 km/h (0 Bft)
20.09.2016 00:26 9,3 C 9,3 C 95 % 1017,4 hPa 0,0 mm 0,0 km/h (0 Bft) S 188 0 min 0,000 mm 0,0 UV-I 0 W/m 8,5 C 0,0 km/h (0 Bft)
20.09.2016 00:27 9,3 C 9,3 C 95 % 1017,4 hPa 0,0 mm 0,0 km/h (0 Bft) S 188 0 min 0,000 mm 0,0 UV-I 0 W/m 8,5 C 0,0 km/h (0 Bft)
20.09.2016 00:28 9,3 C 9,3 C 95 % 1017,5 hPa 0,0 mm 0,0 km/h (0 Bft) S 188 0 min 0,000 mm 0,0 UV-I 0 W/m 8,5 C 0,0 km/h (0 Bft)
20.09.2016 00:29 9,3 C 9,3 C 95 % 1017,5 hPa 0,0 mm 0,0 km/h (0 Bft) S 188 0 min 0,000 mm 0,0 UV-I 0 W/m 8,5 C 0,0 km/h (0 Bft)
20.09.2016 00:30 9,3 C 9,3 C 95 % 1017,4 hPa 0,0 mm 0,0 km/h (0 Bft) S 188 0 min 0,000 mm 0,0 UV-I 0 W/m 8,5 C 0,0 km/h (0 Bft)
20.09.2016 00:31 9,3 C 9,3 C 95 % 1017,4 hPa 0,0 mm 0,0 km/h (0 Bft) S 188 0 min 0,000 mm 0,0 UV-I 0 W/m 8,5 C 0,0 km/h (0 Bft)
20.09.2016 00:32 9,3 C 9,3 C 95 % 1017,4 hPa 0,0 mm 0,0 km/h (0 Bft) S 188 0 min 0,000 mm 0,0 UV-I 0 W/m 8,5 C 0,0 km/h (0 Bft)
20.09.2016 00:33 9,3 C 9,3 C 95 % 1017,4 hPa 0,0 mm 0,0 km/h (0 Bft) S 188 0 min 0,000 mm 0,0 UV-I 0 W/m 8,5 C 0,0 km/h (0 Bft)
20.09.2016 00:34 9,3 C 9,3 C 95 % 1017,4 hPa 0,0 mm 0,0 km/h (0 Bft) S 188 0 min 0,000 mm 0,0 UV-I 0 W/m 8,5 C 0,0 km/h (0 Bft)
20.09.2016 00:35 9,3 C 9,3 C 95 % 1017,4 hPa 0,0 mm 0,0 km/h (0 Bft) S 188 0 min 0,000 mm 0,0 UV-I 0 W/m 8,5 C 0,0 km/h (0 Bft)
20.09.2016 00:36 9,2 C 9,3 C 95 % 1017,4 hPa 0,0 mm 0,0 km/h (0 Bft) S 188 0 min 0,000 mm 0,0 UV-I 0 W/m 8,4 C 0,0 km/h (0 Bft)
20.09.2016 00:37 9,3 C 9,3 C 95 % 1017,4 hPa 0,0 mm 0,0 km/h (0 Bft) S 188 0 min 0,000 mm 0,0 UV-I 0 W/m 8,5 C 0,0 km/h (0 Bft)
20.09.2016 00:38 9,2 C 9,3 C 95 % 1017,4 hPa 0,0 mm 1,4 km/h (1 Bft) S-SW 192 0 min 0,000 mm 0,0 UV-I 0 W/m 8,4 C 4,8 km/h (1 Bft)
20.09.2016 00:39 9,3 C 9,3 C 95 % 1017,4 hPa 0,0 mm 2,0 km/h (1 Bft) S 173 0 min 0,000 mm 0,0 UV-I 0 W/m 8,5 C 4,8 km/h (1 Bft)
20.09.2016 00:40 9,3 C 9,3 C 95 % 1017,4 hPa 0,0 mm 1,8 km/h (1 Bft) S 174 0 min 0,000 mm 0,0 UV-I 0 W/m 8,5 C 4,8 km/h (1 Bft)
20.09.2016 00:41 9,3 C 9,3 C 95 % 1017,4 hPa 0,0 mm 1,2 km/h (1 Bft) S 174 0 min 0,000 mm 0,0 UV-I 0 W/m 8,5 C 1,6 km/h (1 Bft)
20.09.2016 00:42 9,3 C 9,3 C 95 % 1017,4 hPa 0,0 mm 3,0 km/h (1 Bft) S-SW 192 0 min 0,000 mm 0,0 UV-I 0 W/m 8,5 C 4,8 km/h (1 Bft)
20.09.2016 00:43 9,3 C 9,3 C 95 % 1017,4 hPa 0,0 mm 2,6 km/h (1 Bft) S-SW 196 0 min 0,000 mm 0,0 UV-I 0 W/m 8,5 C 3,2 km/h (1 Bft)
20.09.2016 00:44 9,3 C 9,3 C 95 % 1017,3 hPa 0,0 mm 2,5 km/h (1 Bft) S-SW 195 0 min 0,000 mm 0,0 UV-I 0 W/m 8,5 C 4,8 km/h (1 Bft)
20.09.2016 00:45 9,3 C 9,3 C 95 % 1017,4 hPa 0,0 mm 1,9 km/h (1 Bft) S-SW 195 0 min 0,000 mm 0,0 UV-I 0 W/m 8,5 C 3,2 km/h (1 Bft)
20.09.2016 00:46 9,3 C 9,3 C 95 % 1017,4 hPa 0,0 mm 1,9 km/h (1 Bft) S 190 0 min 0,000 mm 0,0 UV-I 0 W/m 8,5 C 3,2 km/h (1 Bft)
20.09.2016 00:47 9,3 C 9,3 C 95 % 1017,4 hPa 0,0 mm 1,3 km/h (1 Bft) S 190 0 min 0,000 mm 0,0 UV-I 0 W/m 8,5 C 3,2 km/h (1 Bft)
20.09.2016 00:48 9,4 C 9,4 C 95 % 1017,4 hPa 0,0 mm 1,2 km/h (1 Bft) S 190 0 min 0,000 mm 0,0 UV-I 0 W/m 8,6 C 3,2 km/h (1 Bft)
20.09.2016 00:49 9,3 C 9,4 C 95 % 1017,3 hPa 0,0 mm 1,7 km/h (1 Bft) S 190 0 min 0,000 mm 0,0 UV-I 0 W/m 8,5 C 3,2 km/h (1 Bft)
20.09.2016 00:50 9,4 C 9,4 C 95 % 1017,4 hPa 0,0 mm 1,0 km/h (0 Bft) S 190 0 min 0,000 mm 0,0 UV-I 0 W/m 8,6 C 3,2 km/h (1 Bft)
20.09.2016 00:51 9,4 C 9,4 C 95 % 1017,4 hPa 0,0 mm 0,0 km/h (0 Bft) S 190 0 min 0,000 mm 0,0 UV-I 0 W/m 8,6 C 0,0 km/h (0 Bft)
20.09.2016 00:52 9,4 C 9,4 C 95 % 1017,4 hPa 0,0 mm 0,1 km/h (0 Bft) S 190 0 min 0,000 mm 0,0 UV-I 0 W/m 8,6 C 1,6 km/h (1 Bft)
20.09.2016 00:53 9,3 C 9,4 C 95 % 1017,4 hPa 0,0 mm 0,0 km/h (0 Bft) S 190 0 min 0,000 mm 0,0 UV-I 0 W/m 8,5 C 0,0 km/h (0 Bft)
20.09.2016 00:54 9,3 C 9,3 C 95 % 1017,4 hPa 0,0 mm 0,0 km/h (0 Bft) S 190 0 min 0,000 mm 0,0 UV-I 0 W/m 8,5 C 0,0 km/h (0 Bft)
20.09.2016 00:55 9,3 C 9,3 C 95 % 1017,4 hPa 0,0 mm 0,2 km/h (0 Bft) S 190 0 min 0,000 mm 0,0 UV-I 0 W/m 8,5 C 1,6 km/h (1 Bft)
20.09.2016 00:56 9,3 C 9,3 C 95 % 1017,4 hPa 0,0 mm 0,3 km/h (0 Bft) S 190 0 min 0,000 mm 0,0 UV-I 0 W/m 8,5 C 1,6 km/h (1 Bft)
20.09.2016 00:57 9,3 C 9,3 C 95 % 1017,4 hPa 0,0 mm 0,6 km/h (0 Bft) S 190 0 min 0,000 mm 0,0 UV-I 0 W/m 8,5 C 1,6 km/h (1 Bft)
20.09.2016 00:58 9,3 C 9,3 C 95 % 1017,4 hPa 0,0 mm 0,1 km/h (0 Bft) S 190 0 min 0,000 mm 0,0 UV-I 0 W/m 8,5 C 1,6 km/h (1 Bft)
20.09.2016 00:59 9,3 C 9,3 C 95 % 1017,4 hPa 0,0 mm 0,6 km/h (0 Bft) S 190 0 min 0,000 mm 0,0 UV-I 0 W/m 8,5 C 3,2 km/h (1 Bft)
20.09.2016 01:00 9,3 C 9,3 C 95 % 1017,3 hPa 0,0 mm 3,2 km/h (1 Bft) S 190 0 min 0,000 mm 0,0 UV-I 0 W/m 8,5 C 4,8 km/h (1 Bft)
20.09.2016 01:01 9,3 C 9,3 C 95 % 1017,4 hPa 0,0 mm 1,7 km/h (1 Bft) S 190 0 min 0,000 mm 0,0 UV-I 0 W/m 8,5 C 3,2 km/h (1 Bft)
20.09.2016 01:02 9,3 C 9,3 C 95 % 1017,3 hPa 0,0 mm 2,0 km/h (1 Bft) S 190 0 min 0,000 mm 0,0 UV-I 0 W/m 8,5 C 3,2 km/h (1 Bft)
20.09.2016 01:03 9,3 C 9,3 C 95 % 1017,3 hPa 0,0 mm 0,5 km/h (0 Bft) S 190 0 min 0,000 mm 0,0 UV-I 0 W/m 8,5 C 1,6 km/h (1 Bft)
20.09.2016 01:04 9,3 C 9,3 C 95 % 1017,3 hPa 0,0 mm 0,0 km/h (0 Bft) S 190 0 min 0,000 mm 0,0 UV-I 0 W/m 8,5 C 0,0 km/h (0 Bft)
20.09.2016 01:05 9,3 C 9,3 C 95 % 1017,3 hPa 0,0 mm 0,0 km/h (0 Bft) S 190 0 min 0,000 mm 0,0 UV-I 0 W/m 8,5 C 0,0 km/h (0 Bft)
20.09.2016 01:06 9,3 C 9,3 C 95 % 1017,3 hPa 0,0 mm 0,0 km/h (0 Bft) S 190 0 min 0,000 mm 0,0 UV-I 0 W/m 8,5 C 0,0 km/h (0 Bft)
20.09.2016 01:07 9,3 C 9,3 C 95 % 1017,3 hPa 0,0 mm 0,0 km/h (0 Bft) S 190 0 min 0,000 mm 0,0 UV-I 0 W/m 8,5 C 0,0 km/h (0 Bft)
20.09.2016 01:08 9,3 C 9,3 C 95 % 1017,3 hPa 0,0 mm 0,0 km/h (0 Bft) S 190 0 min 0,000 mm 0,0 UV-I 0 W/m 8,5 C 0,0 km/h (0 Bft)
20.09.2016 01:09 9,2 C 9,3 C 95 % 1017,3 hPa 0,0 mm 0,0 km/h (0 Bft) S 190 0 min 0,000 mm 0,0 UV-I 0 W/m 8,4 C 0,0 km/h (0 Bft)
20.09.2016 01:10 9,2 C 9,2 C 95 % 1017,3 hPa 0,0 mm 0,0 km/h (0 Bft) S 190 0 min 0,000 mm 0,0 UV-I 0 W/m 8,4 C 0,0 km/h (0 Bft)
20.09.2016 01:11 9,2 C 9,2 C 95 % 1017,3 hPa 0,0 mm 0,0 km/h (0 Bft) S 190 0 min 0,000 mm 0,0 UV-I 0 W/m 8,4 C 0,0 km/h (0 Bft)
20.09.2016 01:12 9,2 C 9,2 C 95 % 1017,3 hPa 0,0 mm 0,0 km/h (0 Bft) S 190 0 min 0,000 mm 0,0 UV-I 0 W/m 8,4 C 0,0 km/h (0 Bft)
20.09.2016 01:13 9,2 C 9,2 C 95 % 1017,3 hPa 0,0 mm 0,0 km/h (0 Bft) S 190 0 min 0,000 mm 0,0 UV-I 0 W/m 8,4 C 0,0 km/h (0 Bft)
20.09.2016 01:14 9,2 C 9,2 C 95 % 1017,3 hPa 0,0 mm 0,0 km/h (0 Bft) S 190 0 min 0,000 mm 0,0 UV-I 0 W/m 8,4 C 0,0 km/h (0 Bft)
20.09.2016 01:15 9,2 C 9,2 C 95 % 1017,3 hPa 0,0 mm 0,0 km/h (0 Bft) S 190 0 min 0,000 mm 0,0 UV-I 0 W/m 8,4 C 0,0 km/h (0 Bft)
20.09.2016 01:16 9,2 C 9,2 C 95 % 1017,3 hPa 0,0 mm 0,0 km/h (0 Bft) S 190 0 min 0,000 mm 0,0 UV-I 0 W/m 8,4 C 0,0 km/h (0 Bft)
20.09.2016 01:17 9,1 C 9,2 C 95 % 1017,2 hPa 0,0 mm 0,0 km/h (0 Bft) S 190 0 min 0,000 mm 0,0 UV-I 0 W/m 8,3 C 0,0 km/h (0 Bft)
20.09.2016 01:18 9,2 C 9,2 C 95 % 1017,2 hPa 0,0 mm 0,0 km/h (0 Bft) S 190 0 min 0,000 mm 0,0 UV-I 0 W/m 8,4 C 0,0 km/h (0 Bft)
20.09.2016 01:19 9,2 C 9,2 C 95 % 1017,3 hPa 0,0 mm 3,0 km/h (1 Bft) S-SW 195 0 min 0,000 mm 0,0 UV-I 0 W/m 8,4 C 6,4 km/h (2 Bft)
20.09.2016 01:20 9,2 C 9,2 C 95 % 1017,2 hPa 0,0 mm 3,5 km/h (1 Bft) S-SW 196 0 min 0,000 mm 0,0 UV-I 0 W/m 8,4 C 4,8 km/h (1 Bft)
20.09.2016 01:21 9,2 C 9,2 C 95 % 1017,2 hPa 0,0 mm 1,0 km/h (0 Bft) S-SW 194 0 min 0,000 mm 0,0 UV-I 0 W/m 8,4 C 1,6 km/h (1 Bft)
20.09.2016 01:22 9,2 C 9,2 C 95 % 1017,2 hPa 0,0 mm 0,1 km/h (0 Bft) S-SW 194 0 min 0,000 mm 0,0 UV-I 0 W/m 8,4 C 1,6 km/h (1 Bft)
20.09.2016 01:23 9,2 C 9,2 C 95 % 1017,2 hPa 0,0 mm 0,1 km/h (0 Bft) S-SW 194 0 min 0,000 mm 0,0 UV-I 0 W/m 8,4 C 1,6 km/h (1 Bft)
20.09.2016 01:24 9,2 C 9,2 C 95 % 1017,2 hPa 0,0 mm 0,0 km/h (0 Bft) S-SW 194 0 min 0,000 mm 0,0 UV-I 0 W/m 8,4 C 0,0 km/h (0 Bft)
20.09.2016 01:25 9,2 C 9,2 C 95 % 1017,2 hPa 0,0 mm 0,3 km/h (0 Bft) S-SW 194 0 min 0,000 mm 0,0 UV-I 0 W/m 8,4 C 1,6 km/h (1 Bft)
20.09.2016 01:26 9,2 C 9,2 C 95 % 1017,2 hPa 0,0 mm 0,9 km/h (0 Bft) S-SW 194 0 min 0,000 mm 0,0 UV-I 0 W/m 8,4 C 3,2 km/h (1 Bft)
20.09.2016 01:27 9,2 C 9,2 C 95 % 1017,2 hPa 0,0 mm 2,2 km/h (1 Bft) S-SW 194 0 min 0,000 mm 0,0 UV-I 0 W/m 8,4 C 3,2 km/h (1 Bft)
20.09.2016 01:28 9,2 C 9,2 C 95 % 1017,2 hPa 0,0 mm 2,3 km/h (1 Bft) S-SW 194 0 min 0,000 mm 0,0 UV-I 0 W/m 8,4 C 3,2 km/h (1 Bft)
20.09.2016 01:29 9,2 C 9,2 C 95 % 1017,2 hPa 0,0 mm 1,5 km/h (1 Bft) S-SW 194 0 min 0,000 mm 0,0 UV-I 0 W/m 8,4 C 3,2 km/h (1 Bft)
20.09.2016 01:30 9,2 C 9,2 C 95 % 1017,2 hPa 0,0 mm 0,7 km/h (0 Bft) S-SW 194 0 min 0,000 mm 0,0 UV-I 0 W/m 8,4 C 3,2 km/h (1 Bft)
20.09.2016 01:31 9,2 C 9,2 C 95 % 1017,2 hPa 0,0 mm 0,0 km/h (0 Bft) S-SW 194 0 min 0,000 mm 0,0 UV-I 0 W/m 8,4 C 0,0 km/h (0 Bft)
20.09.2016 01:32 9,2 C 9,2 C 95 % 1017,2 hPa 0,0 mm 0,3 km/h (0 Bft) S-SW 194 0 min 0,000 mm 0,0 UV-I 0 W/m 8,4 C 1,6 km/h (1 Bft)
20.09.2016 01:33 9,2 C 9,2 C 95 % 1017,2 hPa 0,0 mm 3,8 km/h (1 Bft) S-SW 194 0 min 0,000 mm 0,0 UV-I 0 W/m 8,4 C 4,8 km/h (1 Bft)
20.09.2016 01:34 9,2 C 9,2 C 95 % 1017,2 hPa 0,0 mm 2,6 km/h (1 Bft) S-SW 194 0 min 0,000 mm 0,0 UV-I 0 W/m 8,4 C 3,2 km/h (1 Bft)
20.09.2016 01:35 9,2 C 9,2 C 95 % 1017,2 hPa 0,0 mm 3,1 km/h (1 Bft) S 177 0 min 0,000 mm 0,0 UV-I 0 W/m 8,4 C 4,8 km/h (1 Bft)
20.09.2016 01:36 9,2 C 9,2 C 95 % 1017,2 hPa 0,0 mm 4,0 km/h (1 Bft) S-SO 164 0 min 0,000 mm 0,0 UV-I 0 W/m 8,4 C 6,4 km/h (2 Bft)
20.09.2016 01:37 9,2 C 9,2 C 96 % 1017,2 hPa 0,0 mm 2,4 km/h (1 Bft) S-SO 164 0 min 0,000 mm 0,0 UV-I 0 W/m 8,6 C 3,2 km/h (1 Bft)
20.09.2016 01:38 9,2 C 9,2 C 96 % 1017,3 hPa 0,0 mm 2,0 km/h (1 Bft) S-SO 164 0 min 0,000 mm 0,0 UV-I 0 W/m 8,6 C 3,2 km/h (1 Bft)
20.09.2016 01:39 9,2 C 9,2 C 96 % 1017,3 hPa 0,0 mm 2,5 km/h (1 Bft) S 186 0 min 0,000 mm 0,0 UV-I 0 W/m 8,6 C 4,8 km/h (1 Bft)
20.09.2016 01:40 9,2 C 9,2 C 96 % 1017,3 hPa 0,0 mm 3,4 km/h (1 Bft) S-SO 161 0 min 0,000 mm 0,0 UV-I 0 W/m 8,6 C 6,4 km/h (2 Bft)
20.09.2016 01:41 9,2 C 9,2 C 96 % 1017,3 hPa 0,0 mm 2,4 km/h (1 Bft) S-SO 161 0 min 0,000 mm 0,0 UV-I 0 W/m 8,6 C 6,4 km/h (2 Bft)
20.09.2016 01:42 9,2 C 9,2 C 96 % 1017,3 hPa 0,0 mm 2,3 km/h (1 Bft) S-SO 161 0 min 0,000 mm 0,0 UV-I 0 W/m 8,6 C 3,2 km/h (1 Bft)
20.09.2016 01:43 9,2 C 9,2 C 96 % 1017,3 hPa 0,0 mm 2,9 km/h (1 Bft) S 171 0 min 0,000 mm 0,0 UV-I 0 W/m 8,6 C 6,4 km/h (2 Bft)
20.09.2016 01:44 9,2 C 9,2 C 96 % 1017,3 hPa 0,0 mm 2,5 km/h (1 Bft) S 187 0 min 0,000 mm 0,0 UV-I 0 W/m 8,6 C 3,2 km/h (1 Bft)
20.09.2016 01:45 9,2 C 9,2 C 96 % 1017,2 hPa 0,0 mm 3,1 km/h (1 Bft) S 178 0 min 0,000 mm 0,0 UV-I 0 W/m 8,6 C 6,4 km/h (2 Bft)
20.09.2016 01:46 9,2 C 9,2 C 96 % 1017,2 hPa 0,0 mm 4,8 km/h (1 Bft) S 177 0 min 0,000 mm 0,0 UV-I 0 W/m 8,6 C 6,4 km/h (2 Bft)
20.09.2016 01:47 9,2 C 9,2 C 95 % 1017,2 hPa 0,0 mm 3,8 km/h (1 Bft) S-SW 192 0 min 0,000 mm 0,0 UV-I 0 W/m 8,4 C 4,8 km/h (1 Bft)
20.09.2016 01:48 9,2 C 9,2 C 95 % 1017,2 hPa 0,0 mm 3,2 km/h (1 Bft) S 179 0 min 0,000 mm 0,0 UV-I 0 W/m 8,4 C 4,8 km/h (1 Bft)
20.09.2016 01:49 9,2 C 9,2 C 95 % 1017,2 hPa 0,0 mm 3,8 km/h (1 Bft) S 190 0 min 0,000 mm 0,0 UV-I 0 W/m 8,4 C 6,4 km/h (2 Bft)
20.09.2016 01:50 9,2 C 9,2 C 95 % 1017,2 hPa 0,0 mm 6,0 km/h (2 Bft) S 191 0 min 0,000 mm 0,0 UV-I 0 W/m 8,4 C 8,0 km/h (2 Bft)
20.09.2016 01:51 9,2 C 9,2 C 95 % 1017,2 hPa 0,0 mm 3,1 km/h (1 Bft) S 175 0 min 0,000 mm 0,0 UV-I 0 W/m 8,4 C 4,8 km/h (1 Bft)
20.09.2016 01:52 9,2 C 9,3 C 95 % 1017,3 hPa 0,0 mm 5,4 km/h (1 Bft) S 173 0 min 0,000 mm 0,0 UV-I 0 W/m 8,4 C 8,0 km/h (2 Bft)
20.09.2016 01:53 9,2 C 9,3 C 95 % 1017,3 hPa 0,0 mm 4,0 km/h (1 Bft) S 179 0 min 0,000 mm 0,0 UV-I 0 W/m 8,4 C 6,4 km/h (2 Bft)
20.09.2016 01:54 9,3 C 9,3 C 95 % 1017,3 hPa 0,0 mm 3,8 km/h (1 Bft) S 178 0 min 0,000 mm 0,0 UV-I 0 W/m 8,5 C 4,8 km/h (1 Bft)
20.09.2016 01:55 9,3 C 9,3 C 95 % 1017,2 hPa 0,0 mm 4,1 km/h (1 Bft) S-SO 156 0 min 0,000 mm 0,0 UV-I 0 W/m 8,5 C 4,8 km/h (1 Bft)
20.09.2016 01:56 9,3 C 9,3 C 95 % 1017,3 hPa 0,0 mm 4,0 km/h (1 Bft) S-SO 162 0 min 0,000 mm 0,0 UV-I 0 W/m 8,5 C 6,4 km/h (2 Bft)
20.09.2016 01:57 9,2 C 9,3 C 95 % 1017,2 hPa 0,0 mm 2,3 km/h (1 Bft) S-SO 162 0 min 0,000 mm 0,0 UV-I 0 W/m 8,4 C 3,2 km/h (1 Bft)
20.09.2016 01:58 9,2 C 9,2 C 95 % 1017,3 hPa 0,0 mm 2,5 km/h (1 Bft) S-SO 163 0 min 0,000 mm 0,0 UV-I 0 W/m 8,4 C 6,4 km/h (2 Bft)
20.09.2016 01:59 9,2 C 9,2 C 95 % 1017,2 hPa 0,0 mm 3,9 km/h (1 Bft) S 180 0 min 0,000 mm 0,0 UV-I 0 W/m 8,4 C 6,4 km/h (2 Bft)
20.09.2016 02:00 9,3 C 9,3 C 95 % 1017,2 hPa 0,0 mm 6,0 km/h (2 Bft) S 186 0 min 0,000 mm 0,0 UV-I 0 W/m 8,5 C 8,0 km/h (2 Bft)
20.09.2016 02:01 9,3 C 9,3 C 95 % 1017,2 hPa 0,0 mm 5,0 km/h (1 Bft) S-SO 163 0 min 0,000 mm 0,0 UV-I 0 W/m 8,5 C 8,0 km/h (2 Bft)
20.09.2016 02:02 9,3 C 9,3 C 95 % 1017,3 hPa 0,0 mm 4,0 km/h (1 Bft) S-SW 198 0 min 0,000 mm 0,0 UV-I 0 W/m 8,5 C 6,4 km/h (2 Bft)
20.09.2016 02:03 9,3 C 9,3 C 95 % 1017,2 hPa 0,0 mm 4,0 km/h (1 Bft) S 180 0 min 0,000 mm 0,0 UV-I 0 W/m 8,5 C 6,4 km/h (2 Bft)
20.09.2016 02:04 9,3 C 9,3 C 95 % 1017,2 hPa 0,0 mm 3,2 km/h (1 Bft) S 172 0 min 0,000 mm 0,0 UV-I 0 W/m 8,5 C 4,8 km/h (1 Bft)
20.09.2016 02:05 9,3 C 9,3 C 95 % 1017,2 hPa 0,0 mm 2,7 km/h (1 Bft) S 172 0 min 0,000 mm 0,0 UV-I 0 W/m 8,5 C 4,8 km/h (1 Bft)
20.09.2016 02:06 9,3 C 9,3 C 95 % 1017,2 hPa 0,0 mm 3,2 km/h (1 Bft) S 181 0 min 0,000 mm 0,0 UV-I 0 W/m 8,5 C 6,4 km/h (2 Bft)
20.09.2016 02:07 9,3 C 9,3 C 95 % 1017,2 hPa 0,0 mm 2,2 km/h (1 Bft) S 181 0 min 0,000 mm 0,0 UV-I 0 W/m 8,5 C 3,2 km/h (1 Bft)
20.09.2016 02:08 9,3 C 9,3 C 95 % 1017,1 hPa 0,0 mm 3,7 km/h (1 Bft) S 177 0 min 0,000 mm 0,0 UV-I 0 W/m 8,5 C 4,8 km/h (1 Bft)
20.09.2016 02:09 9,2 C 9,3 C 95 % 1017,2 hPa 0,0 mm 2,6 km/h (1 Bft) S 178 0 min 0,000 mm 0,0 UV-I 0 W/m 8,4 C 4,8 km/h (1 Bft)
20.09.2016 02:10 9,2 C 9,3 C 95 % 1017,2 hPa 0,0 mm 4,1 km/h (1 Bft) S 184 0 min 0,000 mm 0,0 UV-I 0 W/m 8,4 C 6,4 km/h (2 Bft)
20.09.2016 02:11 9,2 C 9,2 C 95 % 1017,2 hPa 0,0 mm 3,2 km/h (1 Bft) S 178 0 min 0,000 mm 0,0 UV-I 0 W/m 8,4 C 4,8 km/h (1 Bft)
20.09.2016 02:12 9,2 C 9,2 C 95 % 1017,2 hPa 0,0 mm 1,4 km/h (1 Bft) S 178 0 min 0,000 mm 0,0 UV-I 0 W/m 8,4 C 3,2 km/h (1 Bft)
20.09.2016 02:13 9,2 C 9,2 C 95 % 1017,2 hPa 0,0 mm 1,5 km/h (1 Bft) S-SW 205 0 min 0,000 mm 0,0 UV-I 0 W/m 8,4 C 3,2 km/h (1 Bft)
20.09.2016 02:14 9,2 C 9,2 C 95 % 1017,1 hPa 0,0 mm 3,6 km/h (1 Bft) S 185 0 min 0,000 mm 0,0 UV-I 0 W/m 8,4 C 4,8 km/h (1 Bft)
20.09.2016 02:15 9,2 C 9,2 C 95 % 1017,1 hPa 0,0 mm 2,2 km/h (1 Bft) S 184 0 min 0,000 mm 0,0 UV-I 0 W/m 8,4 C 4,8 km/h (1 Bft)
20.09.2016 02:16 9,2 C 9,2 C 95 % 1017,1 hPa 0,0 mm 2,3 km/h (1 Bft) S 184 0 min 0,000 mm 0,0 UV-I 0 W/m 8,4 C 3,2 km/h (1 Bft)
20.09.2016 02:17 9,2 C 9,2 C 95 % 1017,1 hPa 0,0 mm 1,8 km/h (1 Bft) S 184 0 min 0,000 mm 0,0 UV-I 0 W/m 8,4 C 3,2 km/h (1 Bft)
20.09.2016 02:18 9,2 C 9,2 C 95 % 1017,1 hPa 0,0 mm 4,1 km/h (1 Bft) S-SW 207 0 min 0,000 mm 0,0 UV-I 0 W/m 8,4 C 6,4 km/h (2 Bft)
20.09.2016 02:19 9,2 C 9,2 C 95 % 1017,1 hPa 0,0 mm 2,4 km/h (1 Bft) S-SW 202 0 min 0,000 mm 0,0 UV-I 0 W/m 8,4 C 4,8 km/h (1 Bft)
20.09.2016 02:20 9,2 C 9,2 C 95 % 1017,1 hPa 0,0 mm 1,6 km/h (1 Bft) S 175 0 min 0,000 mm 0,0 UV-I 0 W/m 8,4 C 3,2 km/h (1 Bft)
20.09.2016 02:21 9,1 C 9,2 C 95 % 1017,1 hPa 0,0 mm 1,4 km/h (1 Bft) S 175 0 min 0,000 mm 0,0 UV-I 0 W/m 8,3 C 3,2 km/h (1 Bft)
20.09.2016 02:22 9,1 C 9,2 C 95 % 1017,1 hPa 0,0 mm 2,2 km/h (1 Bft) S 175 0 min 0,000 mm 0,0 UV-I 0 W/m 8,3 C 3,2 km/h (1 Bft)
20.09.2016 02:23 9,1 C 9,2 C 95 % 1017,2 hPa 0,0 mm 1,5 km/h (1 Bft) S 175 0 min 0,000 mm 0,0 UV-I 0 W/m 8,3 C 3,2 km/h (1 Bft)
20.09.2016 02:24 9,1 C 9,2 C 95 % 1017,1 hPa 0,0 mm 1,3 km/h (1 Bft) S 175 0 min 0,000 mm 0,0 UV-I 0 W/m 8,3 C 3,2 km/h (1 Bft)
20.09.2016 02:25 9,1 C 9,1 C 95 % 1017,1 hPa 0,0 mm 1,4 km/h (1 Bft) S 175 0 min 0,000 mm 0,0 UV-I 0 W/m 8,3 C 3,2 km/h (1 Bft)
20.09.2016 02:26 9,2 C 9,2 C 95 % 1017,1 hPa 0,0 mm 1,7 km/h (1 Bft) S 175 0 min 0,000 mm 0,0 UV-I 0 W/m 8,4 C 3,2 km/h (1 Bft)
20.09.2016 02:27 9,1 C 9,2 C 95 % 1017,1 hPa 0,0 mm 1,4 km/h (1 Bft) S 175 0 min 0,000 mm 0,0 UV-I 0 W/m 8,3 C 3,2 km/h (1 Bft)
20.09.2016 02:28 9,1 C 9,1 C 95 % 1017,1 hPa 0,0 mm 1,0 km/h (0 Bft) S 175 0 min 0,000 mm 0,0 UV-I 0 W/m 8,3 C 1,6 km/h (1 Bft)
20.09.2016 02:29 9,1 C 9,1 C 95 % 1017,0 hPa 0,0 mm 1,3 km/h (1 Bft) S 177 0 min 0,000 mm 0,0 UV-I 0 W/m 8,3 C 3,2 km/h (1 Bft)
20.09.2016 02:30 9,1 C 9,1 C 95 % 1017,1 hPa 0,0 mm 0,3 km/h (0 Bft) S 177 0 min 0,000 mm 0,0 UV-I 0 W/m 8,3 C 1,6 km/h (1 Bft)
20.09.2016 02:31 9,1 C 9,1 C 95 % 1017,1 hPa 0,0 mm 0,3 km/h (0 Bft) S 177 0 min 0,000 mm 0,0 UV-I 0 W/m 8,3 C 1,6 km/h (1 Bft)
20.09.2016 02:32 9,1 C 9,1 C 95 % 1017,1 hPa 0,0 mm 1,4 km/h (1 Bft) S 177 0 min 0,000 mm 0,0 UV-I 0 W/m 8,3 C 1,6 km/h (1 Bft)
20.09.2016 02:33 9,1 C 9,1 C 95 % 1017,1 hPa 0,0 mm 2,3 km/h (1 Bft) S 177 0 min 0,000 mm 0,0 UV-I 0 W/m 8,3 C 3,2 km/h (1 Bft)
20.09.2016 02:34 9,1 C 9,1 C 95 % 1017,1 hPa 0,0 mm 1,6 km/h (1 Bft) S 177 0 min 0,000 mm 0,0 UV-I 0 W/m 8,3 C 3,2 km/h (1 Bft)
20.09.2016 02:35 9,1 C 9,1 C 95 % 1017,1 hPa 0,0 mm 1,9 km/h (1 Bft) S 177 0 min 0,000 mm 0,0 UV-I 0 W/m 8,3 C 3,2 km/h (1 Bft)
20.09.2016 02:36 9,1 C 9,1 C 95 % 1017,1 hPa 0,0 mm 2,3 km/h (1 Bft) S 178 0 min 0,000 mm 0,0 UV-I 0 W/m 8,3 C 3,2 km/h (1 Bft)
20.09.2016 02:37 9,1 C 9,1 C 95 % 1017,0 hPa 0,0 mm 1,9 km/h (1 Bft) S 178 0 min 0,000 mm 0,0 UV-I 0 W/m 8,3 C 3,2 km/h (1 Bft)
20.09.2016 02:38 9,0 C 9,1 C 95 % 1017,0 hPa 0,0 mm 2,6 km/h (1 Bft) S 178 0 min 0,000 mm 0,0 UV-I 0 W/m 8,2 C 3,2 km/h (1 Bft)
20.09.2016 02:39 9,1 C 9,1 C 95 % 1017,0 hPa 0,0 mm 2,5 km/h (1 Bft) S 179 0 min 0,000 mm 0,0 UV-I 0 W/m 8,3 C 4,8 km/h (1 Bft)
20.09.2016 02:40 9,1 C 9,1 C 95 % 1017,1 hPa 0,0 mm 4,3 km/h (1 Bft) S 186 0 min 0,000 mm 0,0 UV-I 0 W/m 8,3 C 6,4 km/h (2 Bft)
20.09.2016 02:41 9,1 C 9,1 C 95 % 1017,1 hPa 0,0 mm 1,4 km/h (1 Bft) S 186 0 min 0,000 mm 0,0 UV-I 0 W/m 8,3 C 3,2 km/h (1 Bft)
20.09.2016 02:42 9,1 C 9,1 C 95 % 1017,1 hPa 0,0 mm 1,0 km/h (0 Bft) S 186 0 min 0,000 mm 0,0 UV-I 0 W/m 8,3 C 1,6 km/h (1 Bft)
20.09.2016 02:43 9,1 C 9,1 C 95 % 1017,0 hPa 0,0 mm 3,1 km/h (1 Bft) S-SW 199 0 min 0,000 mm 0,0 UV-I 0 W/m 8,3 C 4,8 km/h (1 Bft)
20.09.2016 02:44 9,1 C 9,1 C 95 % 1017,0 hPa 0,0 mm 3,8 km/h (1 Bft) S-SW 204 0 min 0,000 mm 0,0 UV-I 0 W/m 8,3 C 4,8 km/h (1 Bft)
20.09.2016 02:45 9,1 C 9,1 C 95 % 1017,0 hPa 0,0 mm 3,8 km/h (1 Bft) S 179 0 min 0,000 mm 0,0 UV-I 0 W/m 8,3 C 6,4 km/h (2 Bft)
20.09.2016 02:46 9,1 C 9,1 C 95 % 1017,0 hPa 0,0 mm 4,9 km/h (1 Bft) S 184 0 min 0,000 mm 0,0 UV-I 0 W/m 8,3 C 6,4 km/h (2 Bft)
20.09.2016 02:47 9,1 C 9,1 C 95 % 1017,0 hPa 0,0 mm 4,4 km/h (1 Bft) S-SW 209 0 min 0,000 mm 0,0 UV-I 0 W/m 8,3 C 6,4 km/h (2 Bft)
20.09.2016 02:48 9,1 C 9,2 C 94 % 1017,0 hPa 0,0 mm 5,2 km/h (1 Bft) S-SO 161 0 min 0,000 mm 0,0 UV-I 0 W/m 8,2 C 8,0 km/h (2 Bft)
20.09.2016 02:49 9,2 C 9,2 C 94 % 1016,9 hPa 0,0 mm 4,1 km/h (1 Bft) S-SO 164 0 min 0,000 mm 0,0 UV-I 0 W/m 8,3 C 6,4 km/h (2 Bft)
20.09.2016 02:50 9,2 C 9,2 C 94 % 1016,9 hPa 0,0 mm 3,0 km/h (1 Bft) S 184 0 min 0,000 mm 0,0 UV-I 0 W/m 8,3 C 6,4 km/h (2 Bft)
20.09.2016 02:51 9,2 C 9,2 C 94 % 1016,9 hPa 0,0 mm 5,5 km/h (1 Bft) S 169 0 min 0,000 mm 0,0 UV-I 0 W/m 8,3 C 8,0 km/h (2 Bft)
20.09.2016 02:52 9,2 C 9,2 C 94 % 1016,9 hPa 0,0 mm 3,8 km/h (1 Bft) S 190 0 min 0,000 mm 0,0 UV-I 0 W/m 8,3 C 6,4 km/h (2 Bft)
20.09.2016 02:53 9,2 C 9,2 C 94 % 1016,9 hPa 0,0 mm 5,6 km/h (1 Bft) S 184 0 min 0,000 mm 0,0 UV-I 0 W/m 8,3 C 8,0 km/h (2 Bft)
20.09.2016 02:54 9,2 C 9,2 C 94 % 1016,9 hPa 0,0 mm 3,2 km/h (1 Bft) S 185 0 min 0,000 mm 0,0 UV-I 0 W/m 8,3 C 8,0 km/h (2 Bft)
20.09.2016 02:55 9,2 C 9,2 C 94 % 1016,9 hPa 0,0 mm 5,3 km/h (1 Bft) S 178 0 min 0,000 mm 0,0 UV-I 0 W/m 8,3 C 8,0 km/h (2 Bft)
20.09.2016 02:56 9,2 C 9,2 C 93 % 1016,9 hPa 0,0 mm 4,1 km/h (1 Bft) S 190 0 min 0,000 mm 0,0 UV-I 0 W/m 8,1 C 6,4 km/h (2 Bft)
20.09.2016 02:57 9,2 C 9,2 C 93 % 1016,9 hPa 0,0 mm 2,1 km/h (1 Bft) S 190 0 min 0,000 mm 0,0 UV-I 0 W/m 8,1 C 3,2 km/h (1 Bft)
20.09.2016 02:58 9,2 C 9,2 C 94 % 1016,9 hPa 0,0 mm 2,3 km/h (1 Bft) S-SW 192 0 min 0,000 mm 0,0 UV-I 0 W/m 8,3 C 4,8 km/h (1 Bft)
20.09.2016 02:59 9,2 C 9,2 C 93 % 1016,8 hPa 0,0 mm 3,4 km/h (1 Bft) S 189 0 min 0,000 mm 0,0 UV-I 0 W/m 8,1 C 6,4 km/h (2 Bft)
20.09.2016 03:00 9,2 C 9,2 C 93 % 1016,9 hPa 0,0 mm 2,5 km/h (1 Bft) W-SW 237 0 min 0,000 mm 0,0 UV-I 0 W/m 8,1 C 3,2 km/h (1 Bft)
20.09.2016 03:01 9,2 C 9,3 C 94 % 1016,8 hPa 0,0 mm 3,5 km/h (1 Bft) O-SO 123 0 min 0,000 mm 0,0 UV-I 0 W/m 8,3 C 6,4 km/h (2 Bft)
20.09.2016 03:02 9,2 C 9,2 C 94 % 1016,9 hPa 0,0 mm 2,7 km/h (1 Bft) S-SW 202 0 min 0,000 mm 0,0 UV-I 0 W/m 8,3 C 4,8 km/h (1 Bft)
20.09.2016 03:03 9,2 C 9,2 C 94 % 1016,8 hPa 0,0 mm 2,0 km/h (1 Bft) S-SW 207 0 min 0,000 mm 0,0 UV-I 0 W/m 8,3 C 4,8 km/h (1 Bft)
20.09.2016 03:04 9,2 C 9,2 C 94 % 1016,9 hPa 0,0 mm 1,5 km/h (1 Bft) S-SW 206 0 min 0,000 mm 0,0 UV-I 0 W/m 8,3 C 3,2 km/h (1 Bft)
20.09.2016 03:05 9,2 C 9,2 C 94 % 1016,9 hPa 0,0 mm 2,0 km/h (1 Bft) S-SW 206 0 min 0,000 mm 0,0 UV-I 0 W/m 8,3 C 3,2 km/h (1 Bft)
20.09.2016 03:06 9,2 C 9,2 C 94 % 1016,8 hPa 0,0 mm 1,7 km/h (1 Bft) S-SW 206 0 min 0,000 mm 0,0 UV-I 0 W/m 8,3 C 3,2 km/h (1 Bft)
20.09.2016 03:07 9,1 C 9,2 C 94 % 1016,8 hPa 0,0 mm 0,3 km/h (0 Bft) S-SW 206 0 min 0,000 mm 0,0 UV-I 0 W/m 8,2 C 1,6 km/h (1 Bft)
20.09.2016 03:08 9,1 C 9,1 C 94 % 1016,8 hPa 0,0 mm 0,5 km/h (0 Bft) S-SW 209 0 min 0,000 mm 0,0 UV-I 0 W/m 8,2 C 1,6 km/h (1 Bft)
20.09.2016 03:09 9,1 C 9,1 C 95 % 1016,8 hPa 0,0 mm 2,0 km/h (1 Bft) S-SW 205 0 min 0,000 mm 0,0 UV-I 0 W/m 8,3 C 3,2 km/h (1 Bft)
20.09.2016 03:10 9,1 C 9,1 C 95 % 1016,8 hPa 0,0 mm 1,7 km/h (1 Bft) S-SW 202 0 min 0,000 mm 0,0 UV-I 0 W/m 8,3 C 3,2 km/h (1 Bft)
20.09.2016 03:11 9,1 C 9,1 C 95 % 1016,8 hPa 0,0 mm 1,3 km/h (1 Bft) S-SW 202 0 min 0,000 mm 0,0 UV-I 0 W/m 8,3 C 3,2 km/h (1 Bft)
20.09.2016 03:12 9,1 C 9,1 C 95 % 1016,8 hPa 0,0 mm 1,3 km/h (1 Bft) S-SW 202 0 min 0,000 mm 0,0 UV-I 0 W/m 8,3 C 1,6 km/h (1 Bft)
20.09.2016 03:13 9,1 C 9,1 C 95 % 1016,8 hPa 0,0 mm 0,5 km/h (0 Bft) S-SW 202 0 min 0,000 mm 0,0 UV-I 0 W/m 8,3 C 1,6 km/h (1 Bft)
20.09.2016 03:14 9,1 C 9,1 C 95 % 1016,8 hPa 0,0 mm 1,6 km/h (1 Bft) S-SW 202 0 min 0,000 mm 0,0 UV-I 0 W/m 8,3 C 3,2 km/h (1 Bft)
20.09.2016 03:15 9,0 C 9,1 C 95 % 1016,7 hPa 0,0 mm 1,0 km/h (0 Bft) S-SW 202 0 min 0,000 mm 0,0 UV-I 0 W/m 8,2 C 1,6 km/h (1 Bft)
20.09.2016 03:16 9,0 C 9,1 C 95 % 1016,7 hPa 0,0 mm 1,7 km/h (1 Bft) S-SW 202 0 min 0,000 mm 0,0 UV-I 0 W/m 8,2 C 3,2 km/h (1 Bft)
20.09.2016 03:17 9,0 C 9,0 C 95 % 1016,7 hPa 0,0 mm 0,1 km/h (0 Bft) S-SW 202 0 min 0,000 mm 0,0 UV-I 0 W/m 8,2 C 1,6 km/h (1 Bft)
20.09.2016 03:18 9,0 C 9,0 C 95 % 1016,7 hPa 0,0 mm 0,0 km/h (0 Bft) S-SW 202 0 min 0,000 mm 0,0 UV-I 0 W/m 8,2 C 0,0 km/h (0 Bft)
20.09.2016 03:19 9,0 C 9,0 C 95 % 1016,7 hPa 0,0 mm 0,0 km/h (0 Bft) S-SW 202 0 min 0,000 mm 0,0 UV-I 0 W/m 8,2 C 0,0 km/h (0 Bft)
20.09.2016 03:20 9,0 C 9,0 C 95 % 1016,7 hPa 0,0 mm 0,0 km/h (0 Bft) S-SW 202 0 min 0,000 mm 0,0 UV-I 0 W/m 8,2 C 0,0 km/h (0 Bft)
20.09.2016 03:21 9,0 C 9,0 C 95 % 1016,7 hPa 0,0 mm 0,0 km/h (0 Bft) S-SW 202 0 min 0,000 mm 0,0 UV-I 0 W/m 8,2 C 0,0 km/h (0 Bft)
20.09.2016 03:22 9,0 C 9,0 C 95 % 1016,7 hPa 0,0 mm 0,6 km/h (0 Bft) S-SW 202 0 min 0,000 mm 0,0 UV-I 0 W/m 8,2 C 1,6 km/h (1 Bft)
20.09.2016 03:23 8,9 C 9,0 C 95 % 1016,7 hPa 0,0 mm 0,6 km/h (0 Bft) S-SW 202 0 min 0,000 mm 0,0 UV-I 0 W/m 8,1 C 1,6 km/h (1 Bft)
20.09.2016 03:24 8,9 C 9,0 C 95 % 1016,7 hPa 0,0 mm 0,7 km/h (0 Bft) S-SW 202 0 min 0,000 mm 0,0 UV-I 0 W/m 8,1 C 1,6 km/h (1 Bft)
20.09.2016 03:25 9,0 C 9,0 C 95 % 1016,6 hPa 0,0 mm 1,5 km/h (1 Bft) S 172 0 min 0,000 mm 0,0 UV-I 0 W/m 8,2 C 3,2 km/h (1 Bft)
20.09.2016 03:26 8,9 C 9,0 C 95 % 1016,6 hPa 0,0 mm 1,0 km/h (0 Bft) S 172 0 min 0,000 mm 0,0 UV-I 0 W/m 8,1 C 1,6 km/h (1 Bft)
20.09.2016 03:27 8,9 C 8,9 C 95 % 1016,7 hPa 0,0 mm 0,1 km/h (0 Bft) S 172 0 min 0,000 mm 0,0 UV-I 0 W/m 8,1 C 1,6 km/h (1 Bft)
20.09.2016 03:28 8,9 C 8,9 C 95 % 1016,7 hPa 0,0 mm 0,0 km/h (0 Bft) S 172 0 min 0,000 mm 0,0 UV-I 0 W/m 8,1 C 0,0 km/h (0 Bft)
20.09.2016 03:29 8,9 C 8,9 C 95 % 1016,7 hPa 0,0 mm 0,0 km/h (0 Bft) S 172 0 min 0,000 mm 0,0 UV-I 0 W/m 8,1 C 0,0 km/h (0 Bft)
20.09.2016 03:30 8,9 C 8,9 C 95 % 1016,7 hPa 0,0 mm 0,0 km/h (0 Bft) S 172 0 min 0,000 mm 0,0 UV-I 0 W/m 8,1 C 0,0 km/h (0 Bft)
20.09.2016 03:31 8,9 C 9,0 C 95 % 1016,7 hPa 0,0 mm 0,0 km/h (0 Bft) S 172 0 min 0,000 mm 0,0 UV-I 0 W/m 8,1 C 0,0 km/h (0 Bft)
20.09.2016 03:32 8,9 C 9,0 C 95 % 1016,7 hPa 0,0 mm 0,3 km/h (0 Bft) S 176 0 min 0,000 mm 0,0 UV-I 0 W/m 8,1 C 1,6 km/h (1 Bft)
20.09.2016 03:33 8,9 C 9,0 C 95 % 1016,7 hPa 0,0 mm 0,5 km/h (0 Bft) S 177 0 min 0,000 mm 0,0 UV-I 0 W/m 8,1 C 1,6 km/h (1 Bft)
20.09.2016 03:34 9,0 C 9,0 C 95 % 1016,6 hPa 0,0 mm 1,1 km/h (1 Bft) S 177 0 min 0,000 mm 0,0 UV-I 0 W/m 8,2 C 3,2 km/h (1 Bft)
20.09.2016 03:35 9,0 C 9,0 C 95 % 1016,7 hPa 0,0 mm 0,4 km/h (0 Bft) S 177 0 min 0,000 mm 0,0 UV-I 0 W/m 8,2 C 1,6 km/h (1 Bft)
20.09.2016 03:36 9,0 C 9,0 C 95 % 1016,6 hPa 0,0 mm 0,7 km/h (0 Bft) S 177 0 min 0,000 mm 0,0 UV-I 0 W/m 8,2 C 1,6 km/h (1 Bft)
20.09.2016 03:37 9,0 C 9,0 C 95 % 1016,7 hPa 0,0 mm 0,3 km/h (0 Bft) S 177 0 min 0,000 mm 0,0 UV-I 0 W/m 8,2 C 1,6 km/h (1 Bft)
20.09.2016 03:38 9,0 C 9,0 C 95 % 1016,7 hPa 0,0 mm 0,2 km/h (0 Bft) S 177 0 min 0,000 mm 0,0 UV-I 0 W/m 8,2 C 1,6 km/h (1 Bft)
20.09.2016 03:39 9,1 C 9,1 C 95 % 1016,7 hPa 0,0 mm 1,9 km/h (1 Bft) S 177 0 min 0,000 mm 0,0 UV-I 0 W/m 8,3 C 3,2 km/h (1 Bft)
20.09.2016 03:40 9,1 C 9,1 C 95 % 1016,7 hPa 0,0 mm 4,2 km/h (1 Bft) S 176 0 min 0,000 mm 0,0 UV-I 0 W/m 8,3 C 6,4 km/h (2 Bft)
20.09.2016 03:41 9,1 C 9,1 C 95 % 1016,7 hPa 0,0 mm 5,0 km/h (1 Bft) S 187 0 min 0,000 mm 0,0 UV-I 0 W/m 8,3 C 6,4 km/h (2 Bft)
20.09.2016 03:42 9,1 C 9,1 C 95 % 1016,7 hPa 0,0 mm 2,5 km/h (1 Bft) S 187 0 min 0,000 mm 0,0 UV-I 0 W/m 8,3 C 4,8 km/h (1 Bft)
20.09.2016 03:43 9,1 C 9,2 C 95 % 1016,7 hPa 0,0 mm 0,3 km/h (0 Bft) S 187 0 min 0,000 mm 0,0 UV-I 0 W/m 8,3 C 1,6 km/h (1 Bft)
20.09.2016 03:44 9,1 C 9,1 C 94 % 1016,7 hPa 0,0 mm 1,0 km/h (0 Bft) S 186 0 min 0,000 mm 0,0 UV-I 0 W/m 8,2 C 3,2 km/h (1 Bft)
20.09.2016 03:45 9,1 C 9,2 C 94 % 1016,7 hPa 0,0 mm 2,7 km/h (1 Bft) S 188 0 min 0,000 mm 0,0 UV-I 0 W/m 8,2 C 4,8 km/h (1 Bft)
20.09.2016 03:46 9,2 C 9,2 C 94 % 1016,7 hPa 0,0 mm 2,1 km/h (1 Bft) S 188 0 min 0,000 mm 0,0 UV-I 0 W/m 8,3 C 4,8 km/h (1 Bft)
20.09.2016 03:47 9,2 C 9,2 C 94 % 1016,7 hPa 0,0 mm 2,9 km/h (1 Bft) S 180 0 min 0,000 mm 0,0 UV-I 0 W/m 8,3 C 6,4 km/h (2 Bft)
20.09.2016 03:48 9,2 C 9,2 C 94 % 1016,8 hPa 0,0 mm 5,8 km/h (2 Bft) S 185 0 min 0,000 mm 0,0 UV-I 0 W/m 8,3 C 6,4 km/h (2 Bft)
20.09.2016 03:49 9,2 C 9,2 C 94 % 1016,7 hPa 0,0 mm 6,0 km/h (2 Bft) S 174 0 min 0,000 mm 0,0 UV-I 0 W/m 8,3 C 8,0 km/h (2 Bft)
20.09.2016 03:50 9,2 C 9,2 C 94 % 1016,7 hPa 0,0 mm 2,8 km/h (1 Bft) S 174 0 min 0,000 mm 0,0 UV-I 0 W/m 8,3 C 4,8 km/h (1 Bft)
20.09.2016 03:51 9,2 C 9,2 C 94 % 1016,8 hPa 0,0 mm 2,3 km/h (1 Bft) S 186 0 min 0,000 mm 0,0 UV-I 0 W/m 8,3 C 3,2 km/h (1 Bft)
20.09.2016 03:52 9,2 C 9,2 C 94 % 1016,8 hPa 0,0 mm 0,8 km/h (0 Bft) S 186 0 min 0,000 mm 0,0 UV-I 0 W/m 8,3 C 1,6 km/h (1 Bft)
20.09.2016 03:53 9,2 C 9,2 C 94 % 1016,7 hPa 0,0 mm 0,4 km/h (0 Bft) S 186 0 min 0,000 mm 0,0 UV-I 0 W/m 8,3 C 1,6 km/h (1 Bft)
20.09.2016 03:54 9,2 C 9,2 C 94 % 1016,8 hPa 0,0 mm 2,3 km/h (1 Bft) S 182 0 min 0,000 mm 0,0 UV-I 0 W/m 8,3 C 4,8 km/h (1 Bft)
20.09.2016 03:55 9,2 C 9,2 C 93 % 1016,8 hPa 0,0 mm 3,5 km/h (1 Bft) S 184 0 min 0,000 mm 0,0 UV-I 0 W/m 8,1 C 6,4 km/h (2 Bft)
20.09.2016 03:56 9,2 C 9,2 C 94 % 1016,7 hPa 0,0 mm 3,1 km/h (1 Bft) S 188 0 min 0,000 mm 0,0 UV-I 0 W/m 8,3 C 4,8 km/h (1 Bft)
20.09.2016 03:57 9,2 C 9,3 C 94 % 1016,7 hPa 0,0 mm 1,5 km/h (1 Bft) S 188 0 min 0,000 mm 0,0 UV-I 0 W/m 8,3 C 3,2 km/h (1 Bft)
20.09.2016 03:58 9,2 C 9,2 C 94 % 1016,7 hPa 0,0 mm 1,2 km/h (1 Bft) S 188 0 min 0,000 mm 0,0 UV-I 0 W/m 8,3 C 3,2 km/h (1 Bft)
20.09.2016 03:59 9,2 C 9,2 C 94 % 1016,6 hPa 0,0 mm 0,9 km/h (0 Bft) S 188 0 min 0,000 mm 0,0 UV-I 0 W/m 8,3 C 3,2 km/h (1 Bft)
20.09.2016 04:00 9,2 C 9,2 C 94 % 1016,7 hPa 0,0 mm 0,0 km/h (0 Bft) S 188 0 min 0,000 mm 0,0 UV-I 0 W/m 8,3 C 0,0 km/h (0 Bft)
20.09.2016 04:01 9,2 C 9,2 C 94 % 1016,7 hPa 0,0 mm 1,1 km/h (1 Bft) S 184 0 min 0,000 mm 0,0 UV-I 0 W/m 8,3 C 3,2 km/h (1 Bft)
20.09.2016 04:02 9,2 C 9,2 C 94 % 1016,7 hPa 0,0 mm 2,2 km/h (1 Bft) S 184 0 min 0,000 mm 0,0 UV-I 0 W/m 8,3 C 3,2 km/h (1 Bft)
20.09.2016 04:03 9,1 C 9,2 C 94 % 1016,7 hPa 0,0 mm 1,7 km/h (1 Bft) S 184 0 min 0,000 mm 0,0 UV-I 0 W/m 8,2 C 3,2 km/h (1 Bft)
20.09.2016 04:04 9,1 C 9,2 C 94 % 1016,7 hPa 0,0 mm 2,2 km/h (1 Bft) S-SO 163 0 min 0,000 mm 0,0 UV-I 0 W/m 8,2 C 3,2 km/h (1 Bft)
20.09.2016 04:05 9,1 C 9,1 C 95 % 1016,7 hPa 0,0 mm 1,2 km/h (1 Bft) S-SO 163 0 min 0,000 mm 0,0 UV-I 0 W/m 8,3 C 3,2 km/h (1 Bft)
20.09.2016 04:06 9,1 C 9,1 C 95 % 1016,7 hPa 0,0 mm 2,0 km/h (1 Bft) S-SO 163 0 min 0,000 mm 0,0 UV-I 0 W/m 8,3 C 3,2 km/h (1 Bft)
20.09.2016 04:07 9,1 C 9,1 C 95 % 1016,7 hPa 0,0 mm 1,2 km/h (1 Bft) S-SO 163 0 min 0,000 mm 0,0 UV-I 0 W/m 8,3 C 1,6 km/h (1 Bft)
20.09.2016 04:08 9,1 C 9,1 C 95 % 1016,7 hPa 0,0 mm 1,6 km/h (1 Bft) S-SO 163 0 min 0,000 mm 0,0 UV-I 0 W/m 8,3 C 3,2 km/h (1 Bft)
20.09.2016 04:09 9,1 C 9,1 C 95 % 1016,7 hPa 0,0 mm 1,4 km/h (1 Bft) S-SO 163 0 min 0,000 mm 0,0 UV-I 0 W/m 8,3 C 1,6 km/h (1 Bft)
20.09.2016 04:10 9,0 C 9,1 C 95 % 1016,7 hPa 0,0 mm 1,6 km/h (1 Bft) S-SO 163 0 min 0,000 mm 0,0 UV-I 0 W/m 8,2 C 3,2 km/h (1 Bft)
20.09.2016 04:11 9,0 C 9,0 C 95 % 1016,7 hPa 0,0 mm 0,5 km/h (0 Bft) S-SO 163 0 min 0,000 mm 0,0 UV-I 0 W/m 8,2 C 1,6 km/h (1 Bft)
20.09.2016 04:12 9,0 C 9,0 C 95 % 1016,7 hPa 0,0 mm 0,6 km/h (0 Bft) S-SO 163 0 min 0,000 mm 0,0 UV-I 0 W/m 8,2 C 1,6 km/h (1 Bft)
20.09.2016 04:13 9,0 C 9,0 C 95 % 1016,7 hPa 0,0 mm 1,7 km/h (1 Bft) S-SO 163 0 min 0,000 mm 0,0 UV-I 0 W/m 8,2 C 3,2 km/h (1 Bft)
20.09.2016 04:14 8,9 C 9,0 C 95 % 1016,7 hPa 0,0 mm 2,1 km/h (1 Bft) S-SO 163 0 min 0,000 mm 0,0 UV-I 0 W/m 8,1 C 3,2 km/h (1 Bft)
20.09.2016 04:15 8,9 C 9,0 C 95 % 1016,7 hPa 0,0 mm 1,8 km/h (1 Bft) S-SO 163 0 min 0,000 mm 0,0 UV-I 0 W/m 8,1 C 3,2 km/h (1 Bft)
20.09.2016 04:16 8,9 C 9,0 C 95 % 1016,7 hPa 0,0 mm 2,0 km/h (1 Bft) S-SO 163 0 min 0,000 mm 0,0 UV-I 0 W/m 8,1 C 3,2 km/h (1 Bft)
20.09.2016 04:17 8,9 C 9,0 C 96 % 1016,6 hPa 0,0 mm 1,9 km/h (1 Bft) S-SO 163 0 min 0,000 mm 0,0 UV-I 0 W/m 8,3 C 3,2 km/h (1 Bft)
20.09.2016 04:18 8,9 C 8,9 C 96 % 1016,6 hPa 0,0 mm 1,8 km/h (1 Bft) S-SO 163 0 min 0,000 mm 0,0 UV-I 0 W/m 8,3 C 3,2 km/h (1 Bft)
20.09.2016 04:19 8,9 C 9,0 C 96 % 1016,6 hPa 0,0 mm 0,9 km/h (0 Bft) S-SO 163 0 min 0,000 mm 0,0 UV-I 0 W/m 8,3 C 1,6 km/h (1 Bft)
20.09.2016 04:20 8,9 C 8,9 C 96 % 1016,6 hPa 0,0 mm 0,0 km/h (0 Bft) S-SO 163 0 min 0,000 mm 0,0 UV-I 0 W/m 8,3 C 0,0 km/h (0 Bft)
20.09.2016 04:21 8,9 C 8,9 C 96 % 1016,7 hPa 0,0 mm 0,0 km/h (0 Bft) S-SO 163 0 min 0,000 mm 0,0 UV-I 0 W/m 8,3 C 0,0 km/h (0 Bft)
20.09.2016 04:22 8,9 C 8,9 C 96 % 1016,6 hPa 0,0 mm 0,0 km/h (0 Bft) S-SO 163 0 min 0,000 mm 0,0 UV-I 0 W/m 8,3 C 0,0 km/h (0 Bft)
20.09.2016 04:23 8,9 C 8,9 C 96 % 1016,6 hPa 0,0 mm 0,6 km/h (0 Bft) S-SO 163 0 min 0,000 mm 0,0 UV-I 0 W/m 8,3 C 1,6 km/h (1 Bft)
20.09.2016 04:24 8,9 C 8,9 C 96 % 1016,6 hPa 0,0 mm 1,9 km/h (1 Bft) S-SO 163 0 min 0,000 mm 0,0 UV-I 0 W/m 8,3 C 3,2 km/h (1 Bft)
20.09.2016 04:25 8,9 C 8,9 C 96 % 1016,6 hPa 0,0 mm 1,2 km/h (1 Bft) S-SO 163 0 min 0,000 mm 0,0 UV-I 0 W/m 8,3 C 1,6 km/h (1 Bft)
20.09.2016 04:26 9,0 C 9,0 C 96 % 1016,6 hPa 0,0 mm 1,5 km/h (1 Bft) S-SO 163 0 min 0,000 mm 0,0 UV-I 0 W/m 8,4 C 1,6 km/h (1 Bft)
20.09.2016 04:27 9,0 C 9,0 C 96 % 1016,6 hPa 0,0 mm 0,3 km/h (0 Bft) S-SO 163 0 min 0,000 mm 0,0 UV-I 0 W/m 8,4 C 1,6 km/h (1 Bft)
20.09.2016 04:28 9,0 C 9,0 C 96 % 1016,6 hPa 0,0 mm 0,1 km/h (0 Bft) S-SO 163 0 min 0,000 mm 0,0 UV-I 0 W/m 8,4 C 1,6 km/h (1 Bft)
20.09.2016 04:29 9,0 C 9,0 C 95 % 1016,6 hPa 0,0 mm 1,5 km/h (1 Bft) S-SO 163 0 min 0,000 mm 0,0 UV-I 0 W/m 8,2 C 3,2 km/h (1 Bft)
20.09.2016 04:30 9,0 C 9,0 C 95 % 1016,6 hPa 0,0 mm 1,5 km/h (1 Bft) S-SO 163 0 min 0,000 mm 0,0 UV-I 0 W/m 8,2 C 3,2 km/h (1 Bft)
20.09.2016 04:31 9,1 C 9,1 C 95 % 1016,6 hPa 0,0 mm 2,6 km/h (1 Bft) S-SO 163 0 min 0,000 mm 0,0 UV-I 0 W/m 8,3 C 3,2 km/h (1 Bft)
20.09.2016 04:32 9,0 C 9,1 C 95 % 1016,6 hPa 0,0 mm 2,2 km/h (1 Bft) S-SO 163 0 min 0,000 mm 0,0 UV-I 0 W/m 8,2 C 3,2 km/h (1 Bft)
20.09.2016 04:33 9,1 C 9,1 C 95 % 1016,6 hPa 0,0 mm 2,7 km/h (1 Bft) S-SO 163 0 min 0,000 mm 0,0 UV-I 0 W/m 8,3 C 3,2 km/h (1 Bft)
20.09.2016 04:34 9,0 C 9,1 C 95 % 1016,6 hPa 0,0 mm 1,7 km/h (1 Bft) S-SO 163 0 min 0,000 mm 0,0 UV-I 0 W/m 8,2 C 3,2 km/h (1 Bft)
20.09.2016 04:35 9,0 C 9,0 C 95 % 1016,5 hPa 0,0 mm 1,3 km/h (1 Bft) S-SO 163 0 min 0,000 mm 0,0 UV-I 0 W/m 8,2 C 3,2 km/h (1 Bft)
20.09.2016 04:36 9,0 C 9,0 C 95 % 1016,5 hPa 0,0 mm 1,4 km/h (1 Bft) S-SO 163 0 min 0,000 mm 0,0 UV-I 0 W/m 8,2 C 3,2 km/h (1 Bft)
20.09.2016 04:37 9,0 C 9,0 C 95 % 1016,6 hPa 0,0 mm 1,5 km/h (1 Bft) S-SO 163 0 min 0,000 mm 0,0 UV-I 0 W/m 8,2 C 3,2 km/h (1 Bft)
20.09.2016 04:38 9,0 C 9,0 C 95 % 1016,6 hPa 0,0 mm 2,2 km/h (1 Bft) S-SO 163 0 min 0,000 mm 0,0 UV-I 0 W/m 8,2 C 3,2 km/h (1 Bft)
20.09.2016 04:39 9,0 C 9,0 C 95 % 1016,6 hPa 0,0 mm 2,3 km/h (1 Bft) S-SO 164 0 min 0,000 mm 0,0 UV-I 0 W/m 8,2 C 3,2 km/h (1 Bft)
20.09.2016 04:40 9,0 C 9,0 C 95 % 1016,6 hPa 0,0 mm 3,0 km/h (1 Bft) S 184 0 min 0,000 mm 0,0 UV-I 0 W/m 8,2 C 4,8 km/h (1 Bft)
20.09.2016 04:41 9,0 C 9,0 C 95 % 1016,6 hPa 0,0 mm 1,4 km/h (1 Bft) S 184 0 min 0,000 mm 0,0 UV-I 0 W/m 8,2 C 3,2 km/h (1 Bft)
20.09.2016 04:42 9,0 C 9,0 C 95 % 1016,6 hPa 0,0 mm 1,3 km/h (1 Bft) S 184 0 min 0,000 mm 0,0 UV-I 0 W/m 8,2 C 1,6 km/h (1 Bft)
20.09.2016 04:43 9,0 C 9,0 C 95 % 1016,5 hPa 0,0 mm 0,5 km/h (0 Bft) S 184 0 min 0,000 mm 0,0 UV-I 0 W/m 8,2 C 1,6 km/h (1 Bft)
20.09.2016 04:44 9,0 C 9,0 C 95 % 1016,5 hPa 0,0 mm 1,3 km/h (1 Bft) S 184 0 min 0,000 mm 0,0 UV-I 0 W/m 8,2 C 1,6 km/h (1 Bft)
20.09.2016 04:45 9,0 C 9,1 C 95 % 1016,5 hPa 0,0 mm 1,6 km/h (1 Bft) S 183 0 min 0,000 mm 0,0 UV-I 0 W/m 8,2 C 3,2 km/h (1 Bft)
20.09.2016 04:46 9,1 C 9,1 C 95 % 1016,5 hPa 0,0 mm 1,5 km/h (1 Bft) S 182 0 min 0,000 mm 0,0 UV-I 0 W/m 8,3 C 3,2 km/h (1 Bft)
20.09.2016 04:47 9,0 C 9,1 C 95 % 1016,5 hPa 0,0 mm 1,2 km/h (1 Bft) S 182 0 min 0,000 mm 0,0 UV-I 0 W/m 8,2 C 1,6 km/h (1 Bft)
20.09.2016 04:48 9,0 C 9,1 C 95 % 1016,5 hPa 0,0 mm 1,0 km/h (0 Bft) S 182 0 min 0,000 mm 0,0 UV-I 0 W/m 8,2 C 1,6 km/h (1 Bft)
20.09.2016 04:49 9,0 C 9,0 C 95 % 1016,5 hPa 0,0 mm 0,9 km/h (0 Bft) S 182 0 min 0,000 mm 0,0 UV-I 0 W/m 8,2 C 1,6 km/h (1 Bft)
20.09.2016 04:50 9,0 C 9,1 C 95 % 1016,5 hPa 0,0 mm 0,8 km/h (0 Bft) S 182 0 min 0,000 mm 0,0 UV-I 0 W/m 8,2 C 3,2 km/h (1 Bft)
20.09.2016 04:51 9,0 C 9,0 C 95 % 1016,5 hPa 0,0 mm 0,1 km/h (0 Bft) S 182 0 min 0,000 mm 0,0 UV-I 0 W/m 8,2 C 1,6 km/h (1 Bft)
20.09.2016 04:52 9,0 C 9,0 C 95 % 1016,5 hPa 0,0 mm 0,3 km/h (0 Bft) S 182 0 min 0,000 mm 0,0 UV-I 0 W/m 8,2 C 1,6 km/h (1 Bft)
20.09.2016 04:53 9,0 C 9,0 C 95 % 1016,5 hPa 0,0 mm 0,2 km/h (0 Bft) S 182 0 min 0,000 mm 0,0 UV-I 0 W/m 8,2 C 1,6 km/h (1 Bft)
20.09.2016 04:54 9,1 C 9,1 C 95 % 1016,6 hPa 0,0 mm 0,0 km/h (0 Bft) S 182 0 min 0,000 mm 0,0 UV-I 0 W/m 8,3 C 0,0 km/h (0 Bft)
20.09.2016 04:55 9,1 C 9,1 C 95 % 1016,6 hPa 0,0 mm 0,0 km/h (0 Bft) S 182 0 min 0,000 mm 0,0 UV-I 0 W/m 8,3 C 0,0 km/h (0 Bft)
20.09.2016 04:56 9,1 C 9,1 C 95 % 1016,5 hPa 0,0 mm 0,0 km/h (0 Bft) S 182 0 min 0,000 mm 0,0 UV-I 0 W/m 8,3 C 0,0 km/h (0 Bft)
20.09.2016 04:57 9,0 C 9,1 C 95 % 1016,5 hPa 0,0 mm 0,0 km/h (0 Bft) S 182 0 min 0,000 mm 0,0 UV-I 0 W/m 8,2 C 0,0 km/h (0 Bft)
20.09.2016 04:58 9,1 C 9,1 C 95 % 1016,6 hPa 0,0 mm 0,0 km/h (0 Bft) S 182 0 min 0,000 mm 0,0 UV-I 0 W/m 8,3 C 0,0 km/h (0 Bft)
20.09.2016 04:59 9,1 C 9,1 C 95 % 1016,6 hPa 0,0 mm 0,0 km/h (0 Bft) S 182 0 min 0,000 mm 0,0 UV-I 0 W/m 8,3 C 0,0 km/h (0 Bft)
20.09.2016 05:00 9,1 C 9,1 C 95 % 1016,5 hPa 0,0 mm 0,0 km/h (0 Bft) S 182 0 min 0,000 mm 0,0 UV-I 0 W/m 8,3 C 0,0 km/h (0 Bft)
20.09.2016 05:01 9,1 C 9,1 C 95 % 1016,6 hPa 0,0 mm 0,0 km/h (0 Bft) S 182 0 min 0,000 mm 0,0 UV-I 0 W/m 8,3 C 0,0 km/h (0 Bft)
20.09.2016 05:02 9,1 C 9,1 C 95 % 1016,5 hPa 0,0 mm 0,0 km/h (0 Bft) S 182 0 min 0,000 mm 0,0 UV-I 0 W/m 8,3 C 0,0 km/h (0 Bft)
20.09.2016 05:03 9,1 C 9,1 C 95 % 1016,5 hPa 0,0 mm 0,0 km/h (0 Bft) S 182 0 min 0,000 mm 0,0 UV-I 0 W/m 8,3 C 0,0 km/h (0 Bft)
20.09.2016 05:04 9,1 C 9,1 C 95 % 1016,5 hPa 0,0 mm 0,0 km/h (0 Bft) S 182 0 min 0,000 mm 0,0 UV-I 0 W/m 8,3 C 0,0 km/h (0 Bft)
20.09.2016 05:05 9,1 C 9,1 C 95 % 1016,5 hPa 0,0 mm 0,0 km/h (0 Bft) S 182 0 min 0,000 mm 0,0 UV-I 0 W/m 8,3 C 0,0 km/h (0 Bft)
20.09.2016 05:06 9,0 C 9,1 C 95 % 1016,5 hPa 0,0 mm 0,0 km/h (0 Bft) S 182 0 min 0,000 mm 0,0 UV-I 0 W/m 8,2 C 0,0 km/h (0 Bft)
20.09.2016 05:07 9,0 C 9,1 C 95 % 1016,5 hPa 0,0 mm 0,0 km/h (0 Bft) S 182 0 min 0,000 mm 0,0 UV-I 0 W/m 8,2 C 0,0 km/h (0 Bft)
20.09.2016 05:08 9,0 C 9,0 C 95 % 1016,5 hPa 0,0 mm 0,0 km/h (0 Bft) S 182 0 min 0,000 mm 0,0 UV-I 0 W/m 8,2 C 0,0 km/h (0 Bft)
20.09.2016 05:09 9,0 C 9,0 C 95 % 1016,6 hPa 0,0 mm 0,0 km/h (0 Bft) S 182 0 min 0,000 mm 0,0 UV-I 0 W/m 8,2 C 0,0 km/h (0 Bft)
20.09.2016 05:10 9,0 C 9,0 C 95 % 1016,5 hPa 0,0 mm 0,0 km/h (0 Bft) S 182 0 min 0,000 mm 0,0 UV-I 0 W/m 8,2 C 0,0 km/h (0 Bft)
20.09.2016 05:11 9,0 C 9,0 C 95 % 1016,5 hPa 0,0 mm 0,0 km/h (0 Bft) S 182 0 min 0,000 mm 0,0 UV-I 0 W/m 8,2 C 0,0 km/h (0 Bft)
20.09.2016 05:12 9,0 C 9,0 C 95 % 1016,5 hPa 0,0 mm 0,0 km/h (0 Bft) S 182 0 min 0,000 mm 0,0 UV-I 0 W/m 8,2 C 0,0 km/h (0 Bft)
20.09.2016 05:13 9,0 C 9,0 C 95 % 1016,5 hPa 0,0 mm 0,0 km/h (0 Bft) S 182 0 min 0,000 mm 0,0 UV-I 0 W/m 8,2 C 0,0 km/h (0 Bft)
20.09.2016 05:14 9,0 C 9,0 C 95 % 1016,5 hPa 0,0 mm 0,0 km/h (0 Bft) S 182 0 min 0,000 mm 0,0 UV-I 0 W/m 8,2 C 0,0 km/h (0 Bft)
20.09.2016 05:15 9,0 C 9,0 C 95 % 1016,5 hPa 0,0 mm 0,0 km/h (0 Bft) S 182 0 min 0,000 mm 0,0 UV-I 0 W/m 8,2 C 0,0 km/h (0 Bft)
20.09.2016 05:16 9,0 C 9,0 C 96 % 1016,5 hPa 0,0 mm 0,0 km/h (0 Bft) S 182 0 min 0,000 mm 0,0 UV-I 0 W/m 8,4 C 0,0 km/h (0 Bft)
20.09.2016 05:17 9,0 C 9,0 C 95 % 1016,5 hPa 0,0 mm 0,0 km/h (0 Bft) S 182 0 min 0,000 mm 0,0 UV-I 0 W/m 8,2 C 0,0 km/h (0 Bft)
20.09.2016 05:18 9,0 C 9,0 C 96 % 1016,5 hPa 0,0 mm 0,0 km/h (0 Bft) S 182 0 min 0,000 mm 0,0 UV-I 0 W/m 8,4 C 0,0 km/h (0 Bft)
20.09.2016 05:19 9,0 C 9,0 C 96 % 1016,5 hPa 0,0 mm 0,0 km/h (0 Bft) S 182 0 min 0,000 mm 0,0 UV-I 0 W/m 8,4 C 0,0 km/h (0 Bft)
20.09.2016 05:20 9,0 C 9,1 C 96 % 1016,5 hPa 0,0 mm 0,0 km/h (0 Bft) S 182 0 min 0,000 mm 0,0 UV-I 0 W/m 8,4 C 0,0 km/h (0 Bft)
20.09.2016 05:21 9,0 C 9,1 C 96 % 1016,5 hPa 0,0 mm 0,0 km/h (0 Bft) S 182 0 min 0,000 mm 0,0 UV-I 0 W/m 8,4 C 0,0 km/h (0 Bft)
20.09.2016 05:22 9,0 C 9,1 C 96 % 1016,4 hPa 0,0 mm 0,0 km/h (0 Bft) S 182 0 min 0,000 mm 0,0 UV-I 0 W/m 8,4 C 0,0 km/h (0 Bft)
20.09.2016 05:23 9,0 C 9,0 C 96 % 1016,5 hPa 0,0 mm 0,0 km/h (0 Bft) S 182 0 min 0,000 mm 0,0 UV-I 0 W/m 8,4 C 0,0 km/h (0 Bft)
20.09.2016 05:24 9,0 C 9,1 C 96 % 1016,4 hPa 0,0 mm 0,1 km/h (0 Bft) S 184 0 min 0,000 mm 0,0 UV-I 0 W/m 8,4 C 3,2 km/h (1 Bft)
20.09.2016 05:25 9,0 C 9,0 C 96 % 1016,4 hPa 0,0 mm 3,2 km/h (1 Bft) S-SW 205 0 min 0,000 mm 0,0 UV-I 0 W/m 8,4 C 4,8 km/h (1 Bft)
20.09.2016 05:26 9,0 C 9,0 C 96 % 1016,4 hPa 0,0 mm 1,7 km/h (1 Bft) S-SW 205 0 min 0,000 mm 0,0 UV-I 0 W/m 8,4 C 3,2 km/h (1 Bft)
20.09.2016 05:27 9,1 C 9,1 C 96 % 1016,5 hPa 0,0 mm 2,7 km/h (1 Bft) S 187 0 min 0,000 mm 0,0 UV-I 0 W/m 8,5 C 4,8 km/h (1 Bft)
20.09.2016 05:28 9,0 C 9,1 C 96 % 1016,4 hPa 0,0 mm 0,8 km/h (0 Bft) S 187 0 min 0,000 mm 0,0 UV-I 0 W/m 8,4 C 1,6 km/h (1 Bft)
20.09.2016 05:29 9,1 C 9,1 C 96 % 1016,5 hPa 0,0 mm 1,9 km/h (1 Bft) S 187 0 min 0,000 mm 0,0 UV-I 0 W/m 8,5 C 3,2 km/h (1 Bft)
20.09.2016 05:30 9,0 C 9,1 C 96 % 1016,5 hPa 0,0 mm 1,0 km/h (0 Bft) S-SW 198 0 min 0,000 mm 0,0 UV-I 0 W/m 8,4 C 3,2 km/h (1 Bft)
20.09.2016 05:31 9,1 C 9,1 C 95 % 1016,4 hPa 0,0 mm 0,9 km/h (0 Bft) S-SW 198 0 min 0,000 mm 0,0 UV-I 0 W/m 8,3 C 3,2 km/h (1 Bft)
20.09.2016 05:32 9,1 C 9,1 C 95 % 1016,5 hPa 0,0 mm 0,7 km/h (0 Bft) S-SW 198 0 min 0,000 mm 0,0 UV-I 0 W/m 8,3 C 1,6 km/h (1 Bft)
20.09.2016 05:33 9,1 C 9,1 C 96 % 1016,5 hPa 0,0 mm 0,0 km/h (0 Bft) S-SW 198 0 min 0,000 mm 0,0 UV-I 0 W/m 8,5 C 0,0 km/h (0 Bft)
20.09.2016 05:34 9,1 C 9,1 C 96 % 1016,5 hPa 0,0 mm 0,0 km/h (0 Bft) S-SW 198 0 min 0,000 mm 0,0 UV-I 0 W/m 8,5 C 0,0 km/h (0 Bft)
20.09.2016 05:35 9,1 C 9,1 C 96 % 1016,5 hPa 0,0 mm 0,3 km/h (0 Bft) S-SW 198 0 min 0,000 mm 0,0 UV-I 0 W/m 8,5 C 1,6 km/h (1 Bft)
20.09.2016 05:36 9,1 C 9,1 C 96 % 1016,5 hPa 0,0 mm 0,0 km/h (0 Bft) S-SW 198 0 min 0,000 mm 0,0 UV-I 0 W/m 8,5 C 0,0 km/h (0 Bft)
20.09.2016 05:37 9,1 C 9,1 C 95 % 1016,5 hPa 0,0 mm 0,0 km/h (0 Bft) S-SW 198 0 min 0,000 mm 0,0 UV-I 0 W/m 8,3 C 0,0 km/h (0 Bft)
20.09.2016 05:38 9,1 C 9,1 C 95 % 1016,5 hPa 0,0 mm 0,0 km/h (0 Bft) S-SW 198 0 min 0,000 mm 0,0 UV-I 0 W/m 8,3 C 0,0 km/h (0 Bft)
20.09.2016 05:39 9,1 C 9,2 C 95 % 1016,5 hPa 0,0 mm 0,0 km/h (0 Bft) S-SW 198 0 min 0,000 mm 0,0 UV-I 0 W/m 8,3 C 0,0 km/h (0 Bft)
20.09.2016 05:40 9,1 C 9,2 C 95 % 1016,5 hPa 0,0 mm 0,9 km/h (0 Bft) S-SW 198 0 min 0,000 mm 0,0 UV-I 0 W/m 8,3 C 3,2 km/h (1 Bft)
20.09.2016 05:41 9,2 C 9,2 C 95 % 1016,5 hPa 0,0 mm 1,9 km/h (1 Bft) S-SW 198 0 min 0,000 mm 0,0 UV-I 0 W/m 8,4 C 3,2 km/h (1 Bft)
20.09.2016 05:42 9,2 C 9,2 C 95 % 1016,4 hPa 0,0 mm 4,2 km/h (1 Bft) S-SW 197 0 min 0,000 mm 0,0 UV-I 0 W/m 8,4 C 6,4 km/h (2 Bft)
20.09.2016 05:43 9,2 C 9,2 C 94 % 1016,4 hPa 0,0 mm 2,3 km/h (1 Bft) S-SW 197 0 min 0,000 mm 0,0 UV-I 0 W/m 8,3 C 4,8 km/h (1 Bft)
20.09.2016 05:44 9,2 C 9,2 C 95 % 1016,4 hPa 0,0 mm 0,4 km/h (0 Bft) S-SW 197 0 min 0,000 mm 0,0 UV-I 0 W/m 8,4 C 3,2 km/h (1 Bft)
20.09.2016 05:45 9,2 C 9,2 C 95 % 1016,5 hPa 0,0 mm 3,1 km/h (1 Bft) S-SW 196 0 min 0,000 mm 0,0 UV-I 0 W/m 8,4 C 4,8 km/h (1 Bft)
20.09.2016 05:46 9,2 C 9,2 C 95 % 1016,4 hPa 0,0 mm 1,9 km/h (1 Bft) S-SW 196 0 min 0,000 mm 0,0 UV-I 0 W/m 8,4 C 3,2 km/h (1 Bft)
20.09.2016 05:47 9,2 C 9,2 C 95 % 1016,4 hPa 0,0 mm 4,8 km/h (1 Bft) S-SW 197 0 min 0,000 mm 0,0 UV-I 0 W/m 8,4 C 6,4 km/h (2 Bft)
20.09.2016 05:48 9,2 C 9,2 C 94 % 1016,4 hPa 0,0 mm 1,8 km/h (1 Bft) S-SW 197 0 min 0,000 mm 0,0 UV-I 0 W/m 8,3 C 3,2 km/h (1 Bft)
20.09.2016 05:49 9,2 C 9,2 C 95 % 1016,4 hPa 0,0 mm 2,6 km/h (1 Bft) S-SW 197 0 min 0,000 mm 0,0 UV-I 0 W/m 8,4 C 4,8 km/h (1 Bft)
20.09.2016 05:50 9,2 C 9,2 C 95 % 1016,4 hPa 0,0 mm 3,5 km/h (1 Bft) S 180 0 min 0,000 mm 0,0 UV-I 0 W/m 8,4 C 6,4 km/h (2 Bft)
20.09.2016 05:51 9,2 C 9,2 C 95 % 1016,4 hPa 0,0 mm 1,7 km/h (1 Bft) S 180 0 min 0,000 mm 0,0 UV-I 0 W/m 8,4 C 3,2 km/h (1 Bft)
20.09.2016 05:52 9,2 C 9,2 C 95 % 1016,4 hPa 0,0 mm 1,5 km/h (1 Bft) S 180 0 min 0,000 mm 0,0 UV-I 0 W/m 8,4 C 3,2 km/h (1 Bft)
20.09.2016 05:53 9,2 C 9,2 C 95 % 1016,4 hPa 0,0 mm 3,2 km/h (1 Bft) S-SO 150 0 min 0,000 mm 0,0 UV-I 0 W/m 8,4 C 4,8 km/h (1 Bft)
20.09.2016 05:54 9,2 C 9,2 C 95 % 1016,4 hPa 0,0 mm 3,8 km/h (1 Bft) S-SO 148 0 min 0,000 mm 0,0 UV-I 0 W/m 8,4 C 4,8 km/h (1 Bft)
20.09.2016 05:55 9,1 C 9,2 C 95 % 1016,4 hPa 0,0 mm 2,8 km/h (1 Bft) S-SO 148 0 min 0,000 mm 0,0 UV-I 0 W/m 8,3 C 3,2 km/h (1 Bft)
20.09.2016 05:56 9,1 C 9,1 C 95 % 1016,5 hPa 0,0 mm 2,4 km/h (1 Bft) S-SO 148 0 min 0,000 mm 0,0 UV-I 0 W/m 8,3 C 3,2 km/h (1 Bft)
20.09.2016 05:57 9,1 C 9,1 C 95 % 1016,5 hPa 0,0 mm 2,1 km/h (1 Bft) S-SO 148 0 min 0,000 mm 0,0 UV-I 0 W/m 8,3 C 3,2 km/h (1 Bft)
20.09.2016 05:58 9,1 C 9,1 C 95 % 1016,5 hPa 0,0 mm 1,0 km/h (0 Bft) S-SO 148 0 min 0,000 mm 0,0 UV-I 0 W/m 8,3 C 1,6 km/h (1 Bft)
20.09.2016 05:59 9,1 C 9,1 C 95 % 1016,5 hPa 0,0 mm 0,0 km/h (0 Bft) S-SO 148 0 min 0,000 mm 0,0 UV-I 0 W/m 8,3 C 0,0 km/h (0 Bft)
20.09.2016 06:00 9,1 C 9,1 C 95 % 1016,5 hPa 0,0 mm 2,2 km/h (1 Bft) S-SO 148 0 min 0,000 mm 0,0 UV-I 0 W/m 8,3 C 3,2 km/h (1 Bft)
20.09.2016 06:01 9,1 C 9,1 C 95 % 1016,5 hPa 0,0 mm 2,0 km/h (1 Bft) S-SO 148 0 min 0,000 mm 0,0 UV-I 0 W/m 8,3 C 3,2 km/h (1 Bft)
20.09.2016 06:02 9,0 C 9,1 C 95 % 1016,5 hPa 0,0 mm 2,2 km/h (1 Bft) S-SO 148 0 min 0,000 mm 0,0 UV-I 0 W/m 8,2 C 3,2 km/h (1 Bft)
20.09.2016 06:03 9,0 C 9,1 C 95 % 1016,5 hPa 0,0 mm 2,0 km/h (1 Bft) S-SO 148 0 min 0,000 mm 0,0 UV-I 0 W/m 8,2 C 3,2 km/h (1 Bft)
20.09.2016 06:04 9,0 C 9,0 C 95 % 1016,5 hPa 0,0 mm 1,9 km/h (1 Bft) S-SO 148 0 min 0,000 mm 0,0 UV-I 0 W/m 8,2 C 3,2 km/h (1 Bft)
20.09.2016 06:05 9,0 C 9,0 C 95 % 1016,5 hPa 0,0 mm 1,4 km/h (1 Bft) S-SO 148 0 min 0,000 mm 0,0 UV-I 0 W/m 8,2 C 1,6 km/h (1 Bft)
20.09.2016 06:06 9,0 C 9,0 C 95 % 1016,5 hPa 0,0 mm 0,9 km/h (0 Bft) S-SO 148 0 min 0,000 mm 0,0 UV-I 0 W/m 8,2 C 1,6 km/h (1 Bft)
20.09.2016 06:07 9,0 C 9,0 C 95 % 1016,5 hPa 0,0 mm 0,7 km/h (0 Bft) S-SO 148 0 min 0,000 mm 0,0 UV-I 0 W/m 8,2 C 1,6 km/h (1 Bft)
20.09.2016 06:08 9,0 C 9,0 C 95 % 1016,5 hPa 0,0 mm 0,7 km/h (0 Bft) S-SO 148 0 min 0,000 mm 0,0 UV-I 0 W/m 8,2 C 1,6 km/h (1 Bft)
20.09.2016 06:09 9,0 C 9,0 C 96 % 1016,5 hPa 0,0 mm 0,9 km/h (0 Bft) S-SO 148 0 min 0,000 mm 0,0 UV-I 0 W/m 8,4 C 1,6 km/h (1 Bft)
20.09.2016 06:10 8,9 C 9,0 C 96 % 1016,5 hPa 0,0 mm 1,3 km/h (1 Bft) S-SO 148 0 min 0,000 mm 0,0 UV-I 0 W/m 8,3 C 3,2 km/h (1 Bft)
20.09.2016 06:11 9,0 C 9,0 C 96 % 1016,5 hPa 0,0 mm 0,9 km/h (0 Bft) S-SO 148 0 min 0,000 mm 0,0 UV-I 0 W/m 8,4 C 3,2 km/h (1 Bft)
20.09.2016 06:12 9,0 C 9,0 C 96 % 1016,5 hPa 0,0 mm 0,0 km/h (0 Bft) S-SO 148 0 min 0,000 mm 0,0 UV-I 0 W/m 8,4 C 0,0 km/h (0 Bft)
20.09.2016 06:13 9,0 C 9,0 C 96 % 1016,5 hPa 0,0 mm 0,0 km/h (0 Bft) S-SO 148 0 min 0,000 mm 0,0 UV-I 0 W/m 8,4 C 0,0 km/h (0 Bft)
20.09.2016 06:14 9,0 C 9,1 C 96 % 1016,4 hPa 0,0 mm 0,0 km/h (0 Bft) S-SO 148 0 min 0,000 mm 0,0 UV-I 0 W/m 8,4 C 0,0 km/h (0 Bft)
20.09.2016 06:15 9,0 C 9,0 C 96 % 1016,4 hPa 0,0 mm 0,0 km/h (0 Bft) S-SO 148 0 min 0,000 mm 0,0 UV-I 0 W/m 8,4 C 0,0 km/h (0 Bft)
20.09.2016 06:16 9,0 C 9,1 C 96 % 1016,4 hPa 0,0 mm 0,0 km/h (0 Bft) S-SO 148 0 min 0,000 mm 0,0 UV-I 0 W/m 8,4 C 0,0 km/h (0 Bft)
20.09.2016 06:17 9,0 C 9,1 C 95 % 1016,4 hPa 0,0 mm 0,0 km/h (0 Bft) S-SO 148 0 min 0,000 mm 0,0 UV-I 0 W/m 8,2 C 0,0 km/h (0 Bft)
20.09.2016 06:18 9,0 C 9,1 C 95 % 1016,4 hPa 0,0 mm 0,0 km/h (0 Bft) S-SO 148 0 min 0,000 mm 0,0 UV-I 0 W/m 8,2 C 0,0 km/h (0 Bft)
20.09.2016 06:19 9,0 C 9,1 C 96 % 1016,4 hPa 0,0 mm 0,0 km/h (0 Bft) S-SO 148 0 min 0,000 mm 0,0 UV-I 0 W/m 8,4 C 0,0 km/h (0 Bft)
20.09.2016 06:20 9,0 C 9,1 C 96 % 1016,4 hPa 0,0 mm 0,0 km/h (0 Bft) S-SO 148 0 min 0,000 mm 0,0 UV-I 0 W/m 8,4 C 0,0 km/h (0 Bft)
20.09.2016 06:21 9,0 C 9,1 C 96 % 1016,4 hPa 0,0 mm 1,3 km/h (1 Bft) S-SO 161 0 min 0,000 mm 0,0 UV-I 0 W/m 8,4 C 3,2 km/h (1 Bft)
20.09.2016 06:22 9,1 C 9,1 C 96 % 1016,4 hPa 0,0 mm 2,1 km/h (1 Bft) S-SO 161 0 min 0,000 mm 0,0 UV-I 0 W/m 8,5 C 3,2 km/h (1 Bft)
20.09.2016 06:23 9,1 C 9,1 C 96 % 1016,4 hPa 0,0 mm 1,3 km/h (1 Bft) S-SO 161 0 min 0,000 mm 0,0 UV-I 0 W/m 8,5 C 3,2 km/h (1 Bft)
20.09.2016 06:24 9,1 C 9,1 C 96 % 1016,4 hPa 0,0 mm 1,5 km/h (1 Bft) S-SO 161 0 min 0,000 mm 0,0 UV-I 0 W/m 8,5 C 3,2 km/h (1 Bft)
20.09.2016 06:25 9,0 C 9,1 C 96 % 1016,4 hPa 0,0 mm 1,0 km/h (0 Bft) S-SO 161 0 min 0,000 mm 0,0 UV-I 0 W/m 8,4 C 1,6 km/h (1 Bft)
20.09.2016 06:26 9,1 C 9,1 C 96 % 1016,4 hPa 0,0 mm 1,1 km/h (1 Bft) S-SO 161 0 min 0,000 mm 0,0 UV-I 0 W/m 8,5 C 1,6 km/h (1 Bft)
20.09.2016 06:27 9,1 C 9,1 C 96 % 1016,4 hPa 0,0 mm 1,3 km/h (1 Bft) S-SO 161 0 min 0,000 mm 0,0 UV-I 0 W/m 8,5 C 3,2 km/h (1 Bft)
20.09.2016 06:28 9,1 C 9,1 C 96 % 1016,4 hPa 0,0 mm 2,5 km/h (1 Bft) S-SO 161 0 min 0,000 mm 0,0 UV-I 0 W/m 8,5 C 3,2 km/h (1 Bft)
20.09.2016 06:29 9,0 C 9,1 C 96 % 1016,4 hPa 0,0 mm 1,7 km/h (1 Bft) S-SO 161 0 min 0,000 mm 0,0 UV-I 0 W/m 8,4 C 3,2 km/h (1 Bft)
20.09.2016 06:30 9,1 C 9,1 C 96 % 1016,4 hPa 0,0 mm 2,0 km/h (1 Bft) S-SO 161 0 min 0,000 mm 0,0 UV-I 0 W/m 8,5 C 3,2 km/h (1 Bft)
20.09.2016 06:31 9,1 C 9,1 C 96 % 1016,4 hPa 0,0 mm 1,7 km/h (1 Bft) S-SO 165 0 min 0,000 mm 0,0 UV-I 0 W/m 8,5 C 3,2 km/h (1 Bft)
20.09.2016 06:32 9,1 C 9,1 C 96 % 1016,4 hPa 0,0 mm 0,7 km/h (0 Bft) S-SO 165 0 min 0,000 mm 0,0 UV-I 0 W/m 8,5 C 1,6 km/h (1 Bft)
20.09.2016 06:33 9,1 C 9,1 C 96 % 1016,4 hPa 0,0 mm 0,7 km/h (0 Bft) S-SO 165 0 min 0,000 mm 0,0 UV-I 0 W/m 8,5 C 1,6 km/h (1 Bft)
20.09.2016 06:34 9,1 C 9,1 C 96 % 1016,4 hPa 0,0 mm 0,4 km/h (0 Bft) S-SO 165 0 min 0,000 mm 0,0 UV-I 0 W/m 8,5 C 1,6 km/h (1 Bft)
20.09.2016 06:35 9,1 C 9,1 C 96 % 1016,4 hPa 0,0 mm 0,3 km/h (0 Bft) S-SO 165 0 min 0,000 mm 0,0 UV-I 0 W/m 8,5 C 1,6 km/h (1 Bft)
20.09.2016 06:36 9,1 C 9,1 C 96 % 1016,4 hPa 0,0 mm 0,5 km/h (0 Bft) S-SO 165 0 min 0,000 mm 0,0 UV-I 0 W/m 8,5 C 1,6 km/h (1 Bft)
20.09.2016 06:37 9,1 C 9,1 C 96 % 1016,4 hPa 0,0 mm 1,1 km/h (1 Bft) S-SO 165 0 min 0,000 mm 0,0 UV-I 0 W/m 8,5 C 3,2 km/h (1 Bft)
20.09.2016 06:38 9,1 C 9,1 C 96 % 1016,4 hPa 0,0 mm 3,8 km/h (1 Bft) S 186 0 min 0,000 mm 0,0 UV-I 0 W/m 8,5 C 4,8 km/h (1 Bft)
20.09.2016 06:39 9,1 C 9,1 C 96 % 1016,4 hPa 0,0 mm 1,4 km/h (1 Bft) S 186 0 min 0,000 mm 0,0 UV-I 0 W/m 8,5 C 3,2 km/h (1 Bft)
20.09.2016 06:40 9,1 C 9,1 C 96 % 1016,4 hPa 0,0 mm 1,9 km/h (1 Bft) S 181 0 min 0,000 mm 0,0 UV-I 0 W/m 8,5 C 3,2 km/h (1 Bft)
20.09.2016 06:41 9,1 C 9,1 C 96 % 1016,5 hPa 0,0 mm 2,5 km/h (1 Bft) S-SO 162 0 min 0,000 mm 0,0 UV-I 0 W/m 8,5 C 6,4 km/h (2 Bft)
20.09.2016 06:42 9,1 C 9,1 C 96 % 1016,5 hPa 0,0 mm 2,4 km/h (1 Bft) S-SO 162 0 min 0,000 mm 0,0 UV-I 0 W/m 8,5 C 6,4 km/h (2 Bft)
20.09.2016 06:43 9,1 C 9,1 C 96 % 1016,4 hPa 0,0 mm 2,1 km/h (1 Bft) S-SW 198 0 min 0,000 mm 0,0 UV-I 0 W/m 8,5 C 3,2 km/h (1 Bft)
20.09.2016 06:44 9,1 C 9,1 C 95 % 1016,5 hPa 0,0 mm 1,9 km/h (1 Bft) S-SW 198 0 min 0,000 mm 0,0 UV-I 0 W/m 8,3 C 3,2 km/h (1 Bft)
20.09.2016 06:45 9,1 C 9,1 C 95 % 1016,5 hPa 0,0 mm 2,9 km/h (1 Bft) S 186 0 min 0,000 mm 0,0 UV-I 0 W/m 8,3 C 4,8 km/h (1 Bft)
20.09.2016 06:46 9,1 C 9,1 C 96 % 1016,5 hPa 0,0 mm 2,3 km/h (1 Bft) S 185 0 min 0,000 mm 0,0 UV-I 0 W/m 8,5 C 3,2 km/h (1 Bft)
20.09.2016 06:47 9,1 C 9,1 C 95 % 1016,5 hPa 0,0 mm 1,4 km/h (1 Bft) S 185 0 min 0,000 mm 0,0 UV-I 0 W/m 8,3 C 3,2 km/h (1 Bft)
20.09.2016 06:48 9,1 C 9,1 C 96 % 1016,5 hPa 0,0 mm 4,1 km/h (1 Bft) S-SW 200 0 min 0,000 mm 0,0 UV-I 0 W/m 8,5 C 6,4 km/h (2 Bft)
20.09.2016 06:49 9,1 C 9,1 C 95 % 1016,5 hPa 0,0 mm 2,5 km/h (1 Bft) S 186 0 min 0,000 mm 0,0 UV-I 0 W/m 8,3 C 4,8 km/h (1 Bft)
20.09.2016 06:50 9,1 C 9,1 C 96 % 1016,5 hPa 0,0 mm 1,6 km/h (1 Bft) S 186 0 min 0,000 mm 0,0 UV-I 0 W/m 8,5 C 3,2 km/h (1 Bft)
20.09.2016 06:51 9,1 C 9,1 C 96 % 1016,5 hPa 0,0 mm 1,7 km/h (1 Bft) S 186 0 min 0,000 mm 0,0 UV-I 0 W/m 8,5 C 3,2 km/h (1 Bft)
20.09.2016 06:52 9,1 C 9,1 C 96 % 1016,5 hPa 0,0 mm 0,8 km/h (0 Bft) S 186 0 min 0,000 mm 0,0 UV-I 0 W/m 8,5 C 1,6 km/h (1 Bft)
20.09.2016 06:53 9,1 C 9,1 C 96 % 1016,5 hPa 0,0 mm 2,1 km/h (1 Bft) S 186 0 min 0,000 mm 0,0 UV-I 0 W/m 8,5 C 3,2 km/h (1 Bft)
20.09.2016 06:54 9,1 C 9,1 C 96 % 1016,5 hPa 0,0 mm 3,2 km/h (1 Bft) S 186 0 min 0,000 mm 0,0 UV-I 0 W/m 8,5 C 4,8 km/h (1 Bft)
20.09.2016 06:55 9,1 C 9,1 C 96 % 1016,5 hPa 0,0 mm 1,5 km/h (1 Bft) S 186 0 min 0,000 mm 0,0 UV-I 0 W/m 8,5 C 3,2 km/h (1 Bft)
20.09.2016 06:56 9,1 C 9,1 C 96 % 1016,5 hPa 0,0 mm 1,3 km/h (1 Bft) S 186 0 min 0,000 mm 0,0 UV-I 0 W/m 8,5 C 3,2 km/h (1 Bft)
20.09.2016 06:57 9,1 C 9,1 C 96 % 1016,5 hPa 0,0 mm 1,5 km/h (1 Bft) S 186 0 min 0,000 mm 0,0 UV-I 0 W/m 8,5 C 3,2 km/h (1 Bft)
20.09.2016 06:58 9,1 C 9,1 C 96 % 1016,5 hPa 0,0 mm 4,2 km/h (1 Bft) S 172 0 min 0,000 mm 0,0 UV-I 0 W/m 8,5 C 6,4 km/h (2 Bft)
20.09.2016 06:59 9,1 C 9,1 C 95 % 1016,5 hPa 0,0 mm 2,2 km/h (1 Bft) S 172 0 min 0,000 mm 0,0 UV-I 0 W/m 8,3 C 4,8 km/h (1 Bft)
20.09.2016 07:00 9,1 C 9,2 C 95 % 1016,5 hPa 0,0 mm 1,6 km/h (1 Bft) S 173 0 min 0,000 mm 0,0 UV-I 0 W/m 8,3 C 3,2 km/h (1 Bft)
20.09.2016 07:01 9,2 C 9,2 C 95 % 1016,5 hPa 0,0 mm 1,6 km/h (1 Bft) S 173 0 min 0,000 mm 0,0 UV-I 0 W/m 8,4 C 3,2 km/h (1 Bft)
20.09.2016 07:02 9,2 C 9,2 C 95 % 1016,5 hPa 0,0 mm 1,2 km/h (1 Bft) S 172 0 min 0,000 mm 0,0 UV-I 0 W/m 8,4 C 3,2 km/h (1 Bft)
20.09.2016 07:03 9,2 C 9,2 C 95 % 1016,5 hPa 0,0 mm 2,5 km/h (1 Bft) S 188 0 min 0,000 mm 0,0 UV-I 0 W/m 8,4 C 4,8 km/h (1 Bft)
20.09.2016 07:04 9,2 C 9,2 C 95 % 1016,5 hPa 0,0 mm 3,2 km/h (1 Bft) S 189 0 min 0,000 mm 0,0 UV-I 0 W/m 8,4 C 4,8 km/h (1 Bft)
20.09.2016 07:05 9,2 C 9,2 C 95 % 1016,5 hPa 0,0 mm 3,4 km/h (1 Bft) SO 145 0 min 0,000 mm 0,0 UV-I 0 W/m 8,4 C 4,8 km/h (1 Bft)
20.09.2016 07:06 9,2 C 9,2 C 95 % 1016,5 hPa 0,0 mm 1,7 km/h (1 Bft) S-SO 158 0 min 0,000 mm 0,0 UV-I 0 W/m 8,4 C 3,2 km/h (1 Bft)
20.09.2016 07:07 9,2 C 9,2 C 95 % 1016,5 hPa 0,0 mm 1,8 km/h (1 Bft) S-SO 159 0 min 0,000 mm 0,0 UV-I 0 W/m 8,4 C 3,2 km/h (1 Bft)
20.09.2016 07:08 9,2 C 9,2 C 95 % 1016,5 hPa 0,0 mm 1,3 km/h (1 Bft) S-SO 159 0 min 0,000 mm 0,0 UV-I 0 W/m 8,4 C 1,6 km/h (1 Bft)
20.09.2016 07:09 9,2 C 9,2 C 95 % 1016,5 hPa 0,0 mm 1,5 km/h (1 Bft) S-SO 159 0 min 0,000 mm 0,0 UV-I 0 W/m 8,4 C 3,2 km/h (1 Bft)
20.09.2016 07:10 9,2 C 9,2 C 95 % 1016,5 hPa 0,0 mm 1,0 km/h (0 Bft) S-SO 159 0 min 0,000 mm 0,0 UV-I 0 W/m 8,4 C 1,6 km/h (1 Bft)
20.09.2016 07:11 9,2 C 9,2 C 95 % 1016,5 hPa 0,0 mm 0,7 km/h (0 Bft) S-SO 159 0 min 0,000 mm 0,0 UV-I 0 W/m 8,4 C 1,6 km/h (1 Bft)
20.09.2016 07:12 9,2 C 9,2 C 95 % 1016,5 hPa 0,0 mm 1,0 km/h (0 Bft) S-SO 159 0 min 0,000 mm 0,0 UV-I 0 W/m 8,4 C 1,6 km/h (1 Bft)
20.09.2016 07:13 9,2 C 9,2 C 95 % 1016,5 hPa 0,0 mm 1,9 km/h (1 Bft) S-SO 154 0 min 0,000 mm 0,0 UV-I 0 W/m 8,4 C 3,2 km/h (1 Bft)
20.09.2016 07:14 9,2 C 9,2 C 95 % 1016,5 hPa 0,0 mm 0,8 km/h (0 Bft) S-SO 154 0 min 0,000 mm 0,0 UV-I 5 W/m 8,4 C 1,6 km/h (1 Bft)
20.09.2016 07:15 9,2 C 9,2 C 95 % 1016,5 hPa 0,0 mm 1,3 km/h (1 Bft) S-SO 154 0 min 0,000 mm 0,0 UV-I 5 W/m 8,4 C 3,2 km/h (1 Bft)
20.09.2016 07:16 9,2 C 9,2 C 95 % 1016,5 hPa 0,0 mm 1,6 km/h (1 Bft) S-SO 158 0 min 0,000 mm 0,0 UV-I 5 W/m 8,4 C 3,2 km/h (1 Bft)
20.09.2016 07:17 9,2 C 9,2 C 95 % 1016,5 hPa 0,0 mm 0,7 km/h (0 Bft) S-SO 158 0 min 0,000 mm 0,0 UV-I 5 W/m 8,4 C 1,6 km/h (1 Bft)
20.09.2016 07:18 9,1 C 9,2 C 95 % 1016,5 hPa 0,0 mm 1,1 km/h (1 Bft) S-SO 158 0 min 0,000 mm 0,0 UV-I 7 W/m 8,3 C 3,2 km/h (1 Bft)
20.09.2016 07:19 9,1 C 9,2 C 95 % 1016,5 hPa 0,0 mm 0,6 km/h (0 Bft) S-SO 158 0 min 0,000 mm 0,0 UV-I 7 W/m 8,3 C 1,6 km/h (1 Bft)
20.09.2016 07:20 9,2 C 9,2 C 95 % 1016,5 hPa 0,0 mm 1,3 km/h (1 Bft) S-SO 158 0 min 0,000 mm 0,0 UV-I 9 W/m 8,4 C 1,6 km/h (1 Bft)
20.09.2016 07:21 9,2 C 9,2 C 96 % 1016,5 hPa 0,0 mm 1,1 km/h (1 Bft) S-SO 158 0 min 0,000 mm 0,0 UV-I 9 W/m 8,6 C 1,6 km/h (1 Bft)
20.09.2016 07:22 9,1 C 9,2 C 96 % 1016,5 hPa 0,0 mm 0,5 km/h (0 Bft) S-SO 158 0 min 0,000 mm 0,0 UV-I 9 W/m 8,5 C 1,6 km/h (1 Bft)
20.09.2016 07:23 9,2 C 9,2 C 96 % 1016,5 hPa 0,0 mm 1,1 km/h (1 Bft) S-SO 158 0 min 0,000 mm 0,0 UV-I 11 W/m 8,6 C 1,6 km/h (1 Bft)
20.09.2016 07:24 9,1 C 9,2 C 96 % 1016,5 hPa 0,0 mm 1,3 km/h (1 Bft) S-SO 158 0 min 0,000 mm 0,0 UV-I 11 W/m 8,5 C 1,6 km/h (1 Bft)
20.09.2016 07:25 9,1 C 9,1 C 96 % 1016,5 hPa 0,0 mm 0,4 km/h (0 Bft) S-SO 158 0 min 0,000 mm 0,0 UV-I 11 W/m 8,5 C 1,6 km/h (1 Bft)
20.09.2016 07:26 9,1 C 9,1 C 96 % 1016,5 hPa 0,0 mm 0,3 km/h (0 Bft) S-SO 158 0 min 0,000 mm 0,0 UV-I 12 W/m 8,5 C 1,6 km/h (1 Bft)
20.09.2016 07:27 9,1 C 9,1 C 96 % 1016,5 hPa 0,0 mm 0,2 km/h (0 Bft) S-SO 158 0 min 0,000 mm 0,0 UV-I 12 W/m 8,5 C 1,6 km/h (1 Bft)
20.09.2016 07:28 9,1 C 9,2 C 96 % 1016,5 hPa 0,0 mm 0,0 km/h (0 Bft) S-SO 158 0 min 0,000 mm 0,0 UV-I 12 W/m 8,5 C 0,0 km/h (0 Bft)
20.09.2016 07:29 9,1 C 9,2 C 96 % 1016,5 hPa 0,0 mm 0,1 km/h (0 Bft) S-SO 158 0 min 0,000 mm 0,0 UV-I 12 W/m 8,5 C 1,6 km/h (1 Bft)
20.09.2016 07:30 9,1 C 9,1 C 96 % 1016,5 hPa 0,0 mm 0,3 km/h (0 Bft) S-SO 158 0 min 0,000 mm 0,0 UV-I 14 W/m 8,5 C 1,6 km/h (1 Bft)
20.09.2016 07:31 9,1 C 9,1 C 96 % 1016,5 hPa 0,0 mm 0,3 km/h (0 Bft) S-SO 158 0 min 0,000 mm 0,0 UV-I 14 W/m 8,5 C 1,6 km/h (1 Bft)
20.09.2016 07:32 9,1 C 9,1 C 96 % 1016,5 hPa 0,0 mm 0,0 km/h (0 Bft) S-SO 158 0 min 0,000 mm 0,0 UV-I 14 W/m 8,5 C 0,0 km/h (0 Bft)
20.09.2016 07:33 9,1 C 9,1 C 96 % 1016,5 hPa 0,0 mm 0,0 km/h (0 Bft) S-SO 158 0 min 0,000 mm 0,0 UV-I 16 W/m 8,5 C 0,0 km/h (0 Bft)
20.09.2016 07:34 9,1 C 9,1 C 96 % 1016,5 hPa 0,0 mm 0,0 km/h (0 Bft) S 182 0 min 0,000 mm 0,0 UV-I 16 W/m 8,5 C 0,0 km/h (0 Bft)
20.09.2016 07:35 9,1 C 9,2 C 96 % 1016,5 hPa 0,0 mm 1,5 km/h (1 Bft) S 188 0 min 0,000 mm 0,0 UV-I 16 W/m 8,5 C 4,8 km/h (1 Bft)
20.09.2016 07:36 9,1 C 9,2 C 96 % 1016,5 hPa 0,0 mm 0,7 km/h (0 Bft) S 188 0 min 0,000 mm 0,0 UV-I 18 W/m 8,5 C 3,2 km/h (1 Bft)
20.09.2016 07:37 9,2 C 9,2 C 96 % 1016,5 hPa 0,0 mm 0,1 km/h (0 Bft) S 188 0 min 0,000 mm 0,0 UV-I 18 W/m 8,6 C 1,6 km/h (1 Bft)
20.09.2016 07:38 9,2 C 9,2 C 96 % 1016,5 hPa 0,0 mm 0,0 km/h (0 Bft) S 188 0 min 0,000 mm 0,0 UV-I 19 W/m 8,6 C 0,0 km/h (0 Bft)
20.09.2016 07:39 9,2 C 9,2 C 96 % 1016,5 hPa 0,0 mm 0,1 km/h (0 Bft) S 188 0 min 0,000 mm 0,0 UV-I 19 W/m 8,6 C 1,6 km/h (1 Bft)
20.09.2016 07:40 9,2 C 9,2 C 96 % 1016,5 hPa 0,0 mm 0,0 km/h (0 Bft) S 188 0 min 0,000 mm 0,0 UV-I 19 W/m 8,6 C 0,0 km/h (0 Bft)
20.09.2016 07:41 9,3 C 9,3 C 96 % 1016,6 hPa 0,0 mm 0,0 km/h (0 Bft) S 188 0 min 0,000 mm 0,0 UV-I 21 W/m 8,7 C 0,0 km/h (0 Bft)
20.09.2016 07:42 9,3 C 9,3 C 96 % 1016,6 hPa 0,0 mm 0,0 km/h (0 Bft) S 188 0 min 0,000 mm 0,0 UV-I 21 W/m 8,7 C 0,0 km/h (0 Bft)
20.09.2016 07:43 9,3 C 9,3 C 96 % 1016,6 hPa 0,0 mm 0,1 km/h (0 Bft) S 188 0 min 0,000 mm 0,0 UV-I 23 W/m 8,7 C 1,6 km/h (1 Bft)
20.09.2016 07:44 9,3 C 9,3 C 96 % 1016,6 hPa 0,0 mm 0,0 km/h (0 Bft) S 188 0 min 0,000 mm 0,0 UV-I 25 W/m 8,7 C 0,0 km/h (0 Bft)
20.09.2016 07:45 9,3 C 9,3 C 96 % 1016,5 hPa 0,0 mm 0,0 km/h (0 Bft) S 188 0 min 0,000 mm 0,0 UV-I 25 W/m 8,7 C 0,0 km/h (0 Bft)
20.09.2016 07:46 9,3 C 9,3 C 96 % 1016,6 hPa 0,0 mm 0,0 km/h (0 Bft) S 188 0 min 0,000 mm 0,0 UV-I 26 W/m 8,7 C 0,0 km/h (0 Bft)
20.09.2016 07:47 9,3 C 9,3 C 96 % 1016,6 hPa 0,0 mm 0,1 km/h (0 Bft) S 188 0 min 0,000 mm 0,0 UV-I 28 W/m 8,7 C 1,6 km/h (1 Bft)
20.09.2016 07:48 9,3 C 9,3 C 96 % 1016,6 hPa 0,0 mm 0,1 km/h (0 Bft) S 188 0 min 0,000 mm 0,0 UV-I 32 W/m 8,7 C 1,6 km/h (1 Bft)
20.09.2016 07:49 9,3 C 9,3 C 96 % 1016,6 hPa 0,0 mm 0,0 km/h (0 Bft) S 188 0 min 0,000 mm 0,0 UV-I 33 W/m 8,7 C 0,0 km/h (0 Bft)
20.09.2016 07:50 9,3 C 9,3 C 96 % 1016,6 hPa 0,0 mm 0,0 km/h (0 Bft) S 188 0 min 0,000 mm 0,0 UV-I 42 W/m 8,7 C 0,0 km/h (0 Bft)
20.09.2016 07:51 9,3 C 9,3 C 96 % 1016,6 hPa 0,0 mm 0,0 km/h (0 Bft) S 188 0 min 0,000 mm 0,0 UV-I 44 W/m 8,7 C 0,0 km/h (0 Bft)
20.09.2016 07:52 9,3 C 9,3 C 96 % 1016,6 hPa 0,0 mm 0,0 km/h (0 Bft) S 188 0 min 0,000 mm 0,0 UV-I 44 W/m 8,7 C 0,0 km/h (0 Bft)
20.09.2016 07:53 9,4 C 9,4 C 96 % 1016,6 hPa 0,0 mm 0,0 km/h (0 Bft) S 188 0 min 0,000 mm 0,0 UV-I 44 W/m 8,8 C 0,0 km/h (0 Bft)
20.09.2016 07:54 9,4 C 9,4 C 96 % 1016,6 hPa 0,0 mm 0,0 km/h (0 Bft) S 188 0 min 0,000 mm 0,0 UV-I 42 W/m 8,8 C 0,0 km/h (0 Bft)
20.09.2016 07:55 9,4 C 9,4 C 96 % 1016,6 hPa 0,0 mm 0,0 km/h (0 Bft) S 188 0 min 0,000 mm 0,0 UV-I 39 W/m 8,8 C 0,0 km/h (0 Bft)
20.09.2016 07:56 9,4 C 9,4 C 96 % 1016,6 hPa 0,0 mm 0,0 km/h (0 Bft) S 188 0 min 0,000 mm 0,0 UV-I 37 W/m 8,8 C 0,0 km/h (0 Bft)
20.09.2016 07:57 9,4 C 9,4 C 96 % 1016,6 hPa 0,0 mm 0,0 km/h (0 Bft) S 188 0 min 0,000 mm 0,0 UV-I 37 W/m 8,8 C 0,0 km/h (0 Bft)
20.09.2016 07:58 9,4 C 9,4 C 96 % 1016,6 hPa 0,0 mm 0,0 km/h (0 Bft) S 188 0 min 0,000 mm 0,0 UV-I 35 W/m 8,8 C 0,0 km/h (0 Bft)
20.09.2016 07:59 9,3 C 9,4 C 96 % 1016,7 hPa 0,0 mm 0,0 km/h (0 Bft) S 188 0 min 0,000 mm 0,0 UV-I 37 W/m 8,7 C 0,0 km/h (0 Bft)
20.09.2016 08:00 9,4 C 9,4 C 95 % 1016,6 hPa 0,0 mm 0,0 km/h (0 Bft) S 188 0 min 0,000 mm 0,0 UV-I 37 W/m 8,6 C 0,0 km/h (0 Bft)
20.09.2016 08:01 9,4 C 9,4 C 96 % 1016,6 hPa 0,0 mm 0,0 km/h (0 Bft) S 188 0 min 0,000 mm 0,0 UV-I 37 W/m 8,8 C 0,0 km/h (0 Bft)
20.09.2016 08:02 9,4 C 9,4 C 95 % 1016,6 hPa 0,0 mm 0,0 km/h (0 Bft) S 188 0 min 0,000 mm 0,0 UV-I 37 W/m 8,6 C 0,0 km/h (0 Bft)
20.09.2016 08:03 9,4 C 9,4 C 95 % 1016,6 hPa 0,0 mm 0,0 km/h (0 Bft) S 188 0 min 0,000 mm 0,0 UV-I 37 W/m 8,6 C 0,0 km/h (0 Bft)
20.09.2016 08:04 9,4 C 9,4 C 96 % 1016,6 hPa 0,0 mm 0,0 km/h (0 Bft) S 188 0 min 0,000 mm 0,0 UV-I 37 W/m 8,8 C 0,0 km/h (0 Bft)
20.09.2016 08:05 9,5 C 9,5 C 96 % 1016,6 hPa 0,0 mm 0,0 km/h (0 Bft) S 188 0 min 0,000 mm 0,0 UV-I 37 W/m 8,9 C 0,0 km/h (0 Bft)
20.09.2016 08:06 9,6 C 9,6 C 96 % 1016,6 hPa 0,0 mm 0,0 km/h (0 Bft) S 188 0 min 0,000 mm 0,0 UV-I 39 W/m 9,0 C 0,0 km/h (0 Bft)
20.09.2016 08:07 9,6 C 9,6 C 96 % 1016,6 hPa 0,0 mm 0,0 km/h (0 Bft) S 188 0 min 0,000 mm 0,0 UV-I 40 W/m 9,0 C 0,0 km/h (0 Bft)
20.09.2016 08:08 9,6 C 9,6 C 95 % 1016,6 hPa 0,0 mm 0,0 km/h (0 Bft) S 188 0 min 0,000 mm 0,0 UV-I 40 W/m 8,8 C 0,0 km/h (0 Bft)
20.09.2016 08:09 9,6 C 9,6 C 95 % 1016,6 hPa 0,0 mm 0,0 km/h (0 Bft) S 188 0 min 0,000 mm 0,0 UV-I 42 W/m 8,8 C 0,0 km/h (0 Bft)
20.09.2016 08:10 9,6 C 9,6 C 95 % 1016,6 hPa 0,0 mm 0,0 km/h (0 Bft) S 188 0 min 0,000 mm 0,0 UV-I 42 W/m 8,8 C 0,0 km/h (0 Bft)
20.09.2016 08:11 9,6 C 9,6 C 95 % 1016,6 hPa 0,0 mm 0,0 km/h (0 Bft) S 188 0 min 0,000 mm 0,0 UV-I 42 W/m 8,8 C 0,0 km/h (0 Bft)
20.09.2016 08:12 9,7 C 9,7 C 95 % 1016,6 hPa 0,0 mm 0,0 km/h (0 Bft) S 188 0 min 0,000 mm 0,0 UV-I 44 W/m 8,9 C 0,0 km/h (0 Bft)
20.09.2016 08:13 9,7 C 9,7 C 95 % 1016,6 hPa 0,0 mm 0,0 km/h (0 Bft) S 188 0 min 0,000 mm 0,0 UV-I 46 W/m 8,9 C 0,0 km/h (0 Bft)
20.09.2016 08:14 9,7 C 9,7 C 95 % 1016,6 hPa 0,0 mm 0,0 km/h (0 Bft) S 188 0 min 0,000 mm 0,0 UV-I 46 W/m 8,9 C 0,0 km/h (0 Bft)
20.09.2016 08:15 9,7 C 9,7 C 95 % 1016,6 hPa 0,0 mm 0,0 km/h (0 Bft) S 188 0 min 0,000 mm 0,0 UV-I 46 W/m 8,9 C 0,0 km/h (0 Bft)
20.09.2016 08:16 9,8 C 9,8 C 95 % 1016,6 hPa 0,0 mm 0,0 km/h (0 Bft) S 188 0 min 0,000 mm 0,0 UV-I 47 W/m 9,0 C 0,0 km/h (0 Bft)
20.09.2016 08:17 9,8 C 9,8 C 95 % 1016,6 hPa 0,0 mm 0,0 km/h (0 Bft) S 188 0 min 0,000 mm 0,0 UV-I 47 W/m 9,0 C 0,0 km/h (0 Bft)
20.09.2016 08:18 9,8 C 9,8 C 95 % 1016,6 hPa 0,0 mm 0,0 km/h (0 Bft) S 188 0 min 0,000 mm 0,0 UV-I 47 W/m 9,0 C 0,0 km/h (0 Bft)
20.09.2016 08:19 9,8 C 9,8 C 95 % 1016,7 hPa 0,0 mm 0,0 km/h (0 Bft) S 188 0 min 0,000 mm 0,0 UV-I 47 W/m 9,0 C 0,0 km/h (0 Bft)
20.09.2016 08:20 9,8 C 9,8 C 95 % 1016,6 hPa 0,0 mm 0,0 km/h (0 Bft) S 188 0 min 0,000 mm 0,0 UV-I 49 W/m 9,0 C 0,0 km/h (0 Bft)
20.09.2016 08:21 9,8 C 9,8 C 95 % 1016,6 hPa 0,0 mm 0,0 km/h (0 Bft) S 188 0 min 0,000 mm 0,0 UV-I 49 W/m 9,0 C 0,0 km/h (0 Bft)
20.09.2016 08:22 9,8 C 9,8 C 95 % 1016,7 hPa 0,0 mm 0,0 km/h (0 Bft) S 188 0 min 0,000 mm 0,0 UV-I 51 W/m 9,0 C 0,0 km/h (0 Bft)
20.09.2016 08:23 9,8 C 9,8 C 95 % 1016,6 hPa 0,0 mm 0,0 km/h (0 Bft) S 188 0 min 0,000 mm 0,0 UV-I 51 W/m 9,0 C 0,0 km/h (0 Bft)
20.09.2016 08:24 9,9 C 9,9 C 95 % 1016,7 hPa 0,0 mm 0,0 km/h (0 Bft) S 188 0 min 0,000 mm 0,0 UV-I 51 W/m 9,1 C 0,0 km/h (0 Bft)
20.09.2016 08:25 9,9 C 9,9 C 95 % 1016,7 hPa 0,0 mm 0,0 km/h (0 Bft) S 188 0 min 0,000 mm 0,0 UV-I 51 W/m 9,1 C 0,0 km/h (0 Bft)
20.09.2016 08:26 9,9 C 9,9 C 95 % 1016,7 hPa 0,0 mm 0,0 km/h (0 Bft) S 188 0 min 0,000 mm 0,0 UV-I 51 W/m 9,1 C 0,0 km/h (0 Bft)
20.09.2016 08:27 9,9 C 9,9 C 94 % 1016,7 hPa 0,0 mm 0,0 km/h (0 Bft) S 188 0 min 0,000 mm 0,0 UV-I 51 W/m 9,0 C 0,0 km/h (0 Bft)
20.09.2016 08:28 9,9 C 9,9 C 94 % 1016,7 hPa 0,0 mm 0,0 km/h (0 Bft) S 188 0 min 0,000 mm 0,0 UV-I 51 W/m 9,0 C 0,0 km/h (0 Bft)
20.09.2016 08:29 9,9 C 9,9 C 94 % 1016,7 hPa 0,0 mm 0,0 km/h (0 Bft) S 188 0 min 0,000 mm 0,0 UV-I 51 W/m 9,0 C 0,0 km/h (0 Bft)
20.09.2016 08:30 10,0 C 10,0 C 94 % 1016,7 hPa 0,0 mm 0,0 km/h (0 Bft) S 188 0 min 0,000 mm 0,0 UV-I 49 W/m 9,1 C 0,0 km/h (0 Bft)
20.09.2016 08:31 10,0 C 10,0 C 94 % 1016,7 hPa 0,0 mm 0,0 km/h (0 Bft) S 188 0 min 0,000 mm 0,0 UV-I 49 W/m 9,1 C 0,0 km/h (0 Bft)
20.09.2016 08:32 10,1 C 10,1 C 94 % 1016,7 hPa 0,0 mm 0,0 km/h (0 Bft) S 188 0 min 0,000 mm 0,0 UV-I 49 W/m 9,2 C 0,0 km/h (0 Bft)
20.09.2016 08:33 10,1 C 10,1 C 94 % 1016,7 hPa 0,0 mm 0,0 km/h (0 Bft) S 188 0 min 0,000 mm 0,0 UV-I 51 W/m 9,2 C 0,0 km/h (0 Bft)
20.09.2016 08:34 10,1 C 10,1 C 93 % 1016,7 hPa 0,0 mm 0,0 km/h (0 Bft) S 188 0 min 0,000 mm 0,0 UV-I 53 W/m 9,0 C 0,0 km/h (0 Bft)
20.09.2016 08:35 10,1 C 10,1 C 94 % 1016,7 hPa 0,0 mm 0,0 km/h (0 Bft) S 188 0 min 0,000 mm 0,0 UV-I 54 W/m 9,2 C 0,0 km/h (0 Bft)
20.09.2016 08:36 10,1 C 10,1 C 94 % 1016,7 hPa 0,0 mm 0,0 km/h (0 Bft) S 188 0 min 0,000 mm 0,0 UV-I 60 W/m 9,2 C 0,0 km/h (0 Bft)
20.09.2016 08:37 10,1 C 10,1 C 94 % 1016,6 hPa 0,0 mm 0,5 km/h (0 Bft) W-SW 251 0 min 0,000 mm 0,0 UV-I 62 W/m 9,2 C 4,8 km/h (1 Bft)
20.09.2016 08:38 10,2 C 10,2 C 94 % 1016,7 hPa 0,0 mm 2,7 km/h (1 Bft) W-SW 250 0 min 0,000 mm 0,0 UV-I 62 W/m 9,3 C 3,2 km/h (1 Bft)
20.09.2016 08:39 10,2 C 10,2 C 94 % 1016,7 hPa 0,0 mm 2,3 km/h (1 Bft) W-SW 250 0 min 0,000 mm 0,0 UV-I 63 W/m 9,3 C 4,8 km/h (1 Bft)
20.09.2016 08:40 10,2 C 10,2 C 93 % 1016,7 hPa 0,0 mm 1,2 km/h (1 Bft) W-SW 250 0 min 0,000 mm 0,0 UV-I 63 W/m 9,1 C 1,6 km/h (1 Bft)
20.09.2016 08:41 10,2 C 10,2 C 94 % 1016,6 hPa 0,0 mm 1,9 km/h (1 Bft) W-SW 250 0 min 0,000 mm 0,0 UV-I 65 W/m 9,3 C 3,2 km/h (1 Bft)
20.09.2016 08:42 10,2 C 10,2 C 94 % 1016,6 hPa 0,0 mm 2,3 km/h (1 Bft) W-SW 250 0 min 0,000 mm 0,0 UV-I 67 W/m 9,3 C 3,2 km/h (1 Bft)
20.09.2016 08:43 10,2 C 10,2 C 93 % 1016,6 hPa 0,0 mm 1,4 km/h (1 Bft) W-SW 250 0 min 0,000 mm 0,0 UV-I 69 W/m 9,1 C 3,2 km/h (1 Bft)
20.09.2016 08:44 10,2 C 10,2 C 93 % 1016,6 hPa 0,0 mm 0,5 km/h (0 Bft) W-SW 250 0 min 0,000 mm 0,5 UV-I 70 W/m 9,1 C 1,6 km/h (1 Bft)
20.09.2016 08:45 10,1 C 10,2 C 93 % 1016,6 hPa 0,0 mm 1,5 km/h (1 Bft) W-SW 250 0 min 0,000 mm 0,5 UV-I 72 W/m 9,0 C 3,2 km/h (1 Bft)
20.09.2016 08:46 10,1 C 10,1 C 93 % 1016,6 hPa 0,0 mm 0,2 km/h (0 Bft) W-SW 250 0 min 0,000 mm 0,5 UV-I 72 W/m 9,0 C 1,6 km/h (1 Bft)
20.09.2016 08:47 10,2 C 10,2 C 93 % 1016,6 hPa 0,0 mm 0,0 km/h (0 Bft) W-SW 250 0 min 0,000 mm 0,5 UV-I 74 W/m 9,1 C 0,0 km/h (0 Bft)
20.09.2016 08:48 10,2 C 10,2 C 93 % 1016,6 hPa 0,0 mm 1,1 km/h (1 Bft) W-SW 250 0 min 0,000 mm 0,5 UV-I 76 W/m 9,1 C 3,2 km/h (1 Bft)
20.09.2016 08:49 10,2 C 10,2 C 93 % 1016,6 hPa 0,0 mm 0,6 km/h (0 Bft) W-SW 250 0 min 0,000 mm 0,5 UV-I 76 W/m 9,1 C 1,6 km/h (1 Bft)
20.09.2016 08:50 10,2 C 10,2 C 93 % 1016,6 hPa 0,0 mm 0,7 km/h (0 Bft) W-SW 250 0 min 0,000 mm 0,5 UV-I 76 W/m 9,1 C 1,6 km/h (1 Bft)
20.09.2016 08:51 10,2 C 10,2 C 93 % 1016,6 hPa 0,0 mm 1,1 km/h (1 Bft) W-SW 250 0 min 0,000 mm 0,5 UV-I 76 W/m 9,1 C 1,6 km/h (1 Bft)
20.09.2016 08:52 10,3 C 10,3 C 93 % 1016,6 hPa 0,0 mm 0,7 km/h (0 Bft) W-SW 250 0 min 0,000 mm 0,5 UV-I 76 W/m 9,2 C 1,6 km/h (1 Bft)
20.09.2016 08:53 10,3 C 10,3 C 94 % 1016,6 hPa 0,0 mm 1,1 km/h (1 Bft) W-SW 250 0 min 0,000 mm 0,5 UV-I 76 W/m 9,4 C 3,2 km/h (1 Bft)
20.09.2016 08:54 10,3 C 10,3 C 93 % 1016,6 hPa 0,0 mm 1,5 km/h (1 Bft) W-SW 250 0 min 0,000 mm 0,5 UV-I 76 W/m 9,2 C 1,6 km/h (1 Bft)
20.09.2016 08:55 10,3 C 10,3 C 93 % 1016,6 hPa 0,0 mm 1,0 km/h (0 Bft) W-SW 250 0 min 0,000 mm 0,5 UV-I 76 W/m 9,2 C 1,6 km/h (1 Bft)
20.09.2016 08:56 10,3 C 10,3 C 93 % 1016,6 hPa 0,0 mm 0,5 km/h (0 Bft) W-SW 250 0 min 0,000 mm 0,5 UV-I 76 W/m 9,2 C 1,6 km/h (1 Bft)
20.09.2016 08:57 10,3 C 10,3 C 93 % 1016,6 hPa 0,0 mm 0,2 km/h (0 Bft) W-SW 250 0 min 0,000 mm 0,5 UV-I 77 W/m 9,2 C 1,6 km/h (1 Bft)
20.09.2016 08:58 10,3 C 10,3 C 93 % 1016,6 hPa 0,0 mm 0,3 km/h (0 Bft) W-SW 250 0 min 0,000 mm 0,5 UV-I 77 W/m 9,2 C 1,6 km/h (1 Bft)
20.09.2016 08:59 10,3 C 10,3 C 93 % 1016,6 hPa 0,0 mm 0,0 km/h (0 Bft) W-SW 250 0 min 0,000 mm 0,5 UV-I 77 W/m 9,2 C 0,0 km/h (0 Bft)
20.09.2016 09:00 10,3 C 10,4 C 93 % 1016,6 hPa 0,0 mm 0,2 km/h (0 Bft) W-SW 250 0 min 0,000 mm 0,5 UV-I 79 W/m 9,2 C 1,6 km/h (1 Bft)
20.09.2016 09:01 10,4 C 10,4 C 94 % 1016,6 hPa 0,0 mm 0,0 km/h (0 Bft) W-SW 250 0 min 0,025 mm 0,5 UV-I 81 W/m 9,5 C 0,0 km/h (0 Bft)
20.09.2016 09:02 10,3 C 10,4 C 93 % 1016,6 hPa 0,0 mm 0,0 km/h (0 Bft) W-SW 250 0 min 0,000 mm 0,5 UV-I 81 W/m 9,2 C 0,0 km/h (0 Bft)
20.09.2016 09:03 10,3 C 10,3 C 92 % 1016,6 hPa 0,0 mm 0,3 km/h (0 Bft) W-SW 250 0 min 0,000 mm 0,6 UV-I 81 W/m 9,1 C 1,6 km/h (1 Bft)
20.09.2016 09:04 10,3 C 10,3 C 93 % 1016,6 hPa 0,0 mm 0,7 km/h (0 Bft) W-SW 250 0 min 0,000 mm 0,6 UV-I 83 W/m 9,2 C 1,6 km/h (1 Bft)
20.09.2016 09:05 10,3 C 10,3 C 93 % 1016,7 hPa 0,0 mm 0,5 km/h (0 Bft) W-SW 250 0 min 0,000 mm 0,6 UV-I 83 W/m 9,2 C 1,6 km/h (1 Bft)
20.09.2016 09:06 10,3 C 10,4 C 93 % 1016,7 hPa 0,0 mm 1,4 km/h (1 Bft) W-SW 250 0 min 0,000 mm 0,6 UV-I 84 W/m 9,2 C 3,2 km/h (1 Bft)
20.09.2016 09:07 10,4 C 10,4 C 94 % 1016,6 hPa 0,0 mm 1,7 km/h (1 Bft) W-SW 250 0 min 0,000 mm 0,6 UV-I 84 W/m 9,5 C 3,2 km/h (1 Bft)
20.09.2016 09:08 10,4 C 10,4 C 94 % 1016,7 hPa 0,0 mm 1,9 km/h (1 Bft) W-SW 250 0 min 0,000 mm 0,6 UV-I 84 W/m 9,5 C 3,2 km/h (1 Bft)
20.09.2016 09:09 10,4 C 10,4 C 93 % 1016,7 hPa 0,0 mm 1,0 km/h (0 Bft) W-SW 250 0 min 0,000 mm 0,6 UV-I 86 W/m 9,3 C 1,6 km/h (1 Bft)
20.09.2016 09:10 10,4 C 10,4 C 92 % 1016,6 hPa 0,0 mm 0,7 km/h (0 Bft) W-SW 250 0 min 0,000 mm 0,6 UV-I 86 W/m 9,2 C 1,6 km/h (1 Bft)
20.09.2016 09:11 10,4 C 10,4 C 92 % 1016,7 hPa 0,0 mm 1,7 km/h (1 Bft) W-SW 252 0 min 0,000 mm 0,6 UV-I 88 W/m 9,2 C 3,2 km/h (1 Bft)
20.09.2016 09:12 10,4 C 10,4 C 92 % 1016,7 hPa 0,0 mm 1,5 km/h (1 Bft) W-SW 252 0 min 0,000 mm 0,6 UV-I 91 W/m 9,2 C 3,2 km/h (1 Bft)
20.09.2016 09:13 10,4 C 10,4 C 92 % 1016,7 hPa 0,0 mm 0,5 km/h (0 Bft) W-SW 252 0 min 0,000 mm 0,7 UV-I 93 W/m 9,2 C 1,6 km/h (1 Bft)
20.09.2016 09:14 10,4 C 10,4 C 92 % 1016,6 hPa 0,0 mm 0,1 km/h (0 Bft) W-SW 252 0 min 0,000 mm 0,7 UV-I 95 W/m 9,2 C 1,6 km/h (1 Bft)
20.09.2016 09:15 10,4 C 10,4 C 93 % 1016,7 hPa 0,0 mm 0,0 km/h (0 Bft) W-SW 252 0 min 0,000 mm 0,7 UV-I 95 W/m 9,3 C 0,0 km/h (0 Bft)
20.09.2016 09:16 10,4 C 10,4 C 93 % 1016,7 hPa 0,0 mm 0,0 km/h (0 Bft) W-SW 252 0 min 0,000 mm 0,7 UV-I 95 W/m 9,3 C 0,0 km/h (0 Bft)
20.09.2016 09:17 10,4 C 10,4 C 92 % 1016,6 hPa 0,0 mm 0,0 km/h (0 Bft) W-SW 252 0 min 0,000 mm 0,7 UV-I 95 W/m 9,2 C 0,0 km/h (0 Bft)
20.09.2016 09:18 10,4 C 10,4 C 92 % 1016,7 hPa 0,0 mm 0,5 km/h (0 Bft) W-SW 252 0 min 0,000 mm 0,7 UV-I 95 W/m 9,2 C 1,6 km/h (1 Bft)
20.09.2016 09:19 10,4 C 10,4 C 92 % 1016,7 hPa 0,0 mm 0,0 km/h (0 Bft) W-SW 252 0 min 0,000 mm 0,7 UV-I 95 W/m 9,2 C 0,0 km/h (0 Bft)
20.09.2016 09:20 10,4 C 10,4 C 92 % 1016,7 hPa 0,0 mm 0,0 km/h (0 Bft) W-SW 252 0 min 0,000 mm 0,7 UV-I 97 W/m 9,2 C 0,0 km/h (0 Bft)
20.09.2016 09:21 10,4 C 10,4 C 92 % 1016,7 hPa 0,0 mm 0,1 km/h (0 Bft) W-SW 252 0 min 0,000 mm 0,7 UV-I 97 W/m 9,2 C 1,6 km/h (1 Bft)
20.09.2016 09:22 10,4 C 10,4 C 92 % 1016,7 hPa 0,0 mm 0,0 km/h (0 Bft) W-SW 252 0 min 0,000 mm 0,7 UV-I 97 W/m 9,2 C 0,0 km/h (0 Bft)
20.09.2016 09:23 10,4 C 10,4 C 92 % 1016,7 hPa 0,0 mm 0,0 km/h (0 Bft) W-SW 252 0 min 0,000 mm 0,7 UV-I 98 W/m 9,2 C 0,0 km/h (0 Bft)
20.09.2016 09:24 10,4 C 10,4 C 92 % 1016,7 hPa 0,0 mm 0,0 km/h (0 Bft) W-SW 252 0 min 0,000 mm 0,7 UV-I 98 W/m 9,2 C 0,0 km/h (0 Bft)
20.09.2016 09:25 10,4 C 10,4 C 92 % 1016,7 hPa 0,0 mm 0,0 km/h (0 Bft) W-SW 252 0 min 0,000 mm 0,7 UV-I 98 W/m 9,2 C 0,0 km/h (0 Bft)
20.09.2016 09:26 10,4 C 10,4 C 92 % 1016,7 hPa 0,0 mm 0,0 km/h (0 Bft) W-SW 252 0 min 0,000 mm 0,7 UV-I 97 W/m 9,2 C 0,0 km/h (0 Bft)
20.09.2016 09:27 10,4 C 10,4 C 92 % 1016,7 hPa 0,0 mm 0,2 km/h (0 Bft) W-SW 252 0 min 0,000 mm 0,7 UV-I 97 W/m 9,2 C 1,6 km/h (1 Bft)
20.09.2016 09:28 10,4 C 10,4 C 92 % 1016,7 hPa 0,0 mm 1,5 km/h (1 Bft) NW 307 0 min 0,000 mm 0,7 UV-I 97 W/m 9,2 C 3,2 km/h (1 Bft)
20.09.2016 09:29 10,4 C 10,4 C 92 % 1016,8 hPa 0,0 mm 0,1 km/h (0 Bft) NW 307 0 min 0,000 mm 0,7 UV-I 98 W/m 9,2 C 1,6 km/h (1 Bft)
20.09.2016 09:30 10,4 C 10,4 C 91 % 1016,8 hPa 0,0 mm 0,0 km/h (0 Bft) NW 307 0 min 0,000 mm 0,7 UV-I 98 W/m 9,0 C 0,0 km/h (0 Bft)
20.09.2016 09:31 10,4 C 10,4 C 91 % 1016,8 hPa 0,0 mm 0,0 km/h (0 Bft) NW 307 0 min 0,000 mm 0,7 UV-I 98 W/m 9,0 C 0,0 km/h (0 Bft)
20.09.2016 09:32 10,4 C 10,4 C 91 % 1016,8 hPa 0,0 mm 0,0 km/h (0 Bft) NW 307 0 min 0,000 mm 0,7 UV-I 98 W/m 9,0 C 0,0 km/h (0 Bft)
20.09.2016 09:33 10,4 C 10,4 C 92 % 1016,8 hPa 0,0 mm 0,0 km/h (0 Bft) NW 307 0 min 0,000 mm 0,7 UV-I 100 W/m 9,2 C 0,0 km/h (0 Bft)
20.09.2016 09:34 10,4 C 10,4 C 91 % 1016,7 hPa 0,0 mm 0,0 km/h (0 Bft) NW 307 0 min 0,000 mm 0,7 UV-I 102 W/m 9,0 C 0,0 km/h (0 Bft)
20.09.2016 09:35 10,4 C 10,4 C 90 % 1016,8 hPa 0,0 mm 0,0 km/h (0 Bft) NW 307 0 min 0,000 mm 0,7 UV-I 105 W/m 8,8 C 0,0 km/h (0 Bft)
20.09.2016 09:36 10,4 C 10,4 C 91 % 1016,8 hPa 0,0 mm 0,0 km/h (0 Bft) NW 307 0 min 0,000 mm 0,7 UV-I 107 W/m 9,0 C 0,0 km/h (0 Bft)
20.09.2016 09:37 10,5 C 10,5 C 92 % 1016,8 hPa 0,0 mm 0,0 km/h (0 Bft) NW 307 0 min 0,000 mm 0,8 UV-I 107 W/m 9,3 C 0,0 km/h (0 Bft)
20.09.2016 09:38 10,4 C 10,5 C 91 % 1016,8 hPa 0,0 mm 0,0 km/h (0 Bft) NW 307 0 min 0,000 mm 0,8 UV-I 109 W/m 9,0 C 0,0 km/h (0 Bft)
20.09.2016 09:39 10,5 C 10,5 C 91 % 1016,8 hPa 0,0 mm 0,0 km/h (0 Bft) NW 307 0 min 0,000 mm 0,8 UV-I 109 W/m 9,1 C 0,0 km/h (0 Bft)
20.09.2016 09:40 10,5 C 10,5 C 91 % 1016,8 hPa 0,0 mm 0,0 km/h (0 Bft) NW 307 0 min 0,000 mm 0,8 UV-I 109 W/m 9,1 C 0,0 km/h (0 Bft)
20.09.2016 09:41 10,5 C 10,6 C 91 % 1016,8 hPa 0,0 mm 0,0 km/h (0 Bft) NW 307 0 min 0,000 mm 0,7 UV-I 107 W/m 9,1 C 0,0 km/h (0 Bft)
20.09.2016 09:42 10,5 C 10,5 C 91 % 1016,8 hPa 0,0 mm 0,0 km/h (0 Bft) NW 307 0 min 0,000 mm 0,7 UV-I 105 W/m 9,1 C 0,0 km/h (0 Bft)
20.09.2016 09:43 10,4 C 10,5 C 91 % 1016,8 hPa 0,0 mm 0,0 km/h (0 Bft) NW 307 0 min 0,000 mm 0,7 UV-I 104 W/m 9,0 C 0,0 km/h (0 Bft)
20.09.2016 09:44 10,4 C 10,4 C 91 % 1016,8 hPa 0,0 mm 0,0 km/h (0 Bft) NW 307 0 min 0,000 mm 0,7 UV-I 104 W/m 9,0 C 0,0 km/h (0 Bft)
20.09.2016 09:45 10,4 C 10,4 C 91 % 1016,8 hPa 0,0 mm 0,0 km/h (0 Bft) NW 307 0 min 0,000 mm 0,7 UV-I 104 W/m 9,0 C 0,0 km/h (0 Bft)
20.09.2016 09:46 10,6 C 10,6 C 92 % 1016,8 hPa 0,0 mm 0,0 km/h (0 Bft) N 355 0 min 0,000 mm 0,7 UV-I 104 W/m 9,4 C 0,0 km/h (0 Bft)
20.09.2016 09:47 10,6 C 10,6 C 92 % 1016,8 hPa 0,0 mm 0,0 km/h (0 Bft) NO 34 0 min 0,000 mm 0,8 UV-I 105 W/m 9,4 C 0,0 km/h (0 Bft)
20.09.2016 09:48 10,6 C 10,6 C 91 % 1016,8 hPa 0,0 mm 0,0 km/h (0 Bft) NO 49 0 min 0,000 mm 0,8 UV-I 105 W/m 9,2 C 0,0 km/h (0 Bft)
20.09.2016 09:49 10,6 C 10,6 C 92 % 1016,8 hPa 0,0 mm 0,0 km/h (0 Bft) NO 49 0 min 0,000 mm 0,8 UV-I 107 W/m 9,4 C 0,0 km/h (0 Bft)
20.09.2016 09:50 10,6 C 10,6 C 91 % 1016,8 hPa 0,0 mm 2,3 km/h (1 Bft) NO 49 0 min 0,000 mm 0,8 UV-I 107 W/m 9,2 C 4,8 km/h (1 Bft)
20.09.2016 09:51 10,6 C 10,6 C 91 % 1016,8 hPa 0,0 mm 2,9 km/h (1 Bft) NO 49 0 min 0,000 mm 0,8 UV-I 107 W/m 9,2 C 3,2 km/h (1 Bft)
20.09.2016 09:52 10,6 C 10,6 C 91 % 1016,8 hPa 0,0 mm 3,3 km/h (1 Bft) NO 51 0 min 0,000 mm 0,8 UV-I 105 W/m 9,2 C 4,8 km/h (1 Bft)
20.09.2016 09:53 10,6 C 10,6 C 91 % 1016,8 hPa 0,0 mm 2,6 km/h (1 Bft) N-NO 28 0 min 0,000 mm 0,8 UV-I 105 W/m 9,2 C 4,8 km/h (1 Bft)
20.09.2016 09:54 10,6 C 10,6 C 91 % 1016,8 hPa 0,0 mm 1,1 km/h (1 Bft) N-NO 28 0 min 0,000 mm 0,8 UV-I 105 W/m 9,2 C 3,2 km/h (1 Bft)
20.09.2016 09:55 10,5 C 10,6 C 91 % 1016,8 hPa 0,0 mm 0,6 km/h (0 Bft) N-NO 28 0 min 0,000 mm 0,8 UV-I 105 W/m 9,1 C 3,2 km/h (1 Bft)
20.09.2016 09:56 10,6 C 10,6 C 92 % 1016,8 hPa 0,0 mm 1,7 km/h (1 Bft) N-NO 28 0 min 0,000 mm 0,8 UV-I 105 W/m 9,4 C 3,2 km/h (1 Bft)
20.09.2016 09:57 10,6 C 10,6 C 92 % 1016,8 hPa 0,0 mm 3,8 km/h (1 Bft) N 9 0 min 0,000 mm 0,8 UV-I 107 W/m 9,4 C 4,8 km/h (1 Bft)
20.09.2016 09:58 10,6 C 10,7 C 92 % 1016,8 hPa 0,0 mm 3,8 km/h (1 Bft) N 9 0 min 0,000 mm 0,8 UV-I 111 W/m 9,4 C 4,8 km/h (1 Bft)
20.09.2016 09:59 10,6 C 10,6 C 92 % 1016,9 hPa 0,0 mm 2,1 km/h (1 Bft) N 9 0 min 0,000 mm 0,8 UV-I 114 W/m 9,4 C 3,2 km/h (1 Bft)
20.09.2016 10:00 10,7 C 10,7 C 93 % 1016,9 hPa 0,0 mm 1,7 km/h (1 Bft) N 9 0 min 0,051 mm 0,9 UV-I 118 W/m 9,6 C 3,2 km/h (1 Bft)
20.09.2016 10:01 10,7 C 10,7 C 93 % 1016,9 hPa 0,0 mm 1,5 km/h (1 Bft) N 9 0 min 0,000 mm 0,9 UV-I 121 W/m 9,6 C 3,2 km/h (1 Bft)
20.09.2016 10:02 10,8 C 10,8 C 93 % 1016,9 hPa 0,0 mm 2,7 km/h (1 Bft) N 9 0 min 0,000 mm 0,9 UV-I 123 W/m 9,7 C 4,8 km/h (1 Bft)
20.09.2016 10:03 10,7 C 10,8 C 92 % 1016,9 hPa 0,0 mm 2,5 km/h (1 Bft) N 9 0 min 0,000 mm 1,0 UV-I 125 W/m 9,5 C 4,8 km/h (1 Bft)
20.09.2016 10:04 10,7 C 10,7 C 91 % 1016,9 hPa 0,0 mm 2,8 km/h (1 Bft) N 9 0 min 0,000 mm 1,0 UV-I 134 W/m 9,3 C 4,8 km/h (1 Bft)
20.09.2016 10:05 10,7 C 10,7 C 91 % 1016,9 hPa 0,0 mm 1,5 km/h (1 Bft) N 9 0 min 0,000 mm 1,0 UV-I 137 W/m 9,3 C 3,2 km/h (1 Bft)
20.09.2016 10:06 10,6 C 10,7 C 91 % 1016,9 hPa 0,0 mm 0,5 km/h (0 Bft) N 9 0 min 0,000 mm 1,0 UV-I 139 W/m 9,2 C 1,6 km/h (1 Bft)
20.09.2016 10:07 10,6 C 10,6 C 91 % 1016,9 hPa 0,0 mm 0,6 km/h (0 Bft) N 9 0 min 0,000 mm 1,1 UV-I 141 W/m 9,2 C 3,2 km/h (1 Bft)
20.09.2016 10:08 10,7 C 10,7 C 92 % 1016,9 hPa 0,0 mm 0,7 km/h (0 Bft) N 9 0 min 0,000 mm 1,1 UV-I 142 W/m 9,5 C 3,2 km/h (1 Bft)
20.09.2016 10:09 10,7 C 10,7 C 91 % 1016,9 hPa 0,0 mm 1,0 km/h (0 Bft) NW 319 0 min 0,000 mm 1,1 UV-I 148 W/m 9,3 C 3,2 km/h (1 Bft)
20.09.2016 10:10 10,7 C 10,7 C 92 % 1017,0 hPa 0,0 mm 1,0 km/h (0 Bft) NW 319 0 min 0,000 mm 1,2 UV-I 155 W/m 9,5 C 3,2 km/h (1 Bft)
20.09.2016 10:11 10,8 C 10,8 C 92 % 1016,9 hPa 0,0 mm 3,0 km/h (1 Bft) NW 322 0 min 0,000 mm 1,2 UV-I 156 W/m 9,6 C 4,8 km/h (1 Bft)
20.09.2016 10:12 10,8 C 10,8 C 92 % 1017,0 hPa 0,0 mm 3,1 km/h (1 Bft) NW 323 0 min 0,000 mm 1,2 UV-I 158 W/m 9,6 C 4,8 km/h (1 Bft)
20.09.2016 10:13 10,8 C 10,8 C 92 % 1016,9 hPa 0,0 mm 2,8 km/h (1 Bft) N-NW 329 0 min 0,000 mm 1,2 UV-I 160 W/m 9,6 C 3,2 km/h (1 Bft)
20.09.2016 10:14 10,9 C 10,9 C 92 % 1017,0 hPa 0,0 mm 2,7 km/h (1 Bft) N-NW 329 0 min 0,000 mm 1,2 UV-I 160 W/m 9,7 C 4,8 km/h (1 Bft)
20.09.2016 10:15 10,9 C 10,9 C 92 % 1016,9 hPa 0,0 mm 2,4 km/h (1 Bft) N 355 0 min 0,000 mm 1,3 UV-I 160 W/m 9,7 C 3,2 km/h (1 Bft)
20.09.2016 10:16 10,9 C 10,9 C 91 % 1017,0 hPa 0,0 mm 2,1 km/h (1 Bft) N 355 0 min 0,000 mm 1,3 UV-I 160 W/m 9,5 C 4,8 km/h (1 Bft)
20.09.2016 10:17 10,9 C 10,9 C 90 % 1017,0 hPa 0,0 mm 1,6 km/h (1 Bft) N 355 0 min 0,000 mm 1,3 UV-I 163 W/m 9,3 C 3,2 km/h (1 Bft)
20.09.2016 10:18 10,9 C 10,9 C 91 % 1016,9 hPa 0,0 mm 1,1 km/h (1 Bft) N 355 0 min 0,000 mm 1,3 UV-I 167 W/m 9,5 C 3,2 km/h (1 Bft)
20.09.2016 10:19 10,9 C 10,9 C 91 % 1016,9 hPa 0,0 mm 2,3 km/h (1 Bft) N 355 0 min 0,000 mm 1,3 UV-I 169 W/m 9,5 C 3,2 km/h (1 Bft)
20.09.2016 10:20 10,9 C 10,9 C 91 % 1016,9 hPa 0,0 mm 3,2 km/h (1 Bft) N 355 0 min 0,000 mm 1,3 UV-I 172 W/m 9,5 C 4,8 km/h (1 Bft)
20.09.2016 10:21 10,9 C 10,9 C 91 % 1017,0 hPa 0,0 mm 3,1 km/h (1 Bft) N 355 0 min 0,000 mm 1,3 UV-I 176 W/m 9,5 C 4,8 km/h (1 Bft)
20.09.2016 10:22 10,9 C 10,9 C 91 % 1016,9 hPa 0,0 mm 2,5 km/h (1 Bft) N-NO 14 0 min 0,000 mm 1,3 UV-I 179 W/m 9,5 C 4,8 km/h (1 Bft)
20.09.2016 10:23 11,0 C 11,0 C 91 % 1016,9 hPa 0,0 mm 1,9 km/h (1 Bft) N-NO 16 0 min 0,000 mm 1,3 UV-I 174 W/m 9,6 C 4,8 km/h (1 Bft)
20.09.2016 10:24 10,9 C 11,0 C 91 % 1016,9 hPa 0,0 mm 3,0 km/h (1 Bft) N-NO 16 0 min 0,000 mm 1,3 UV-I 167 W/m 9,5 C 4,8 km/h (1 Bft)
20.09.2016 10:25 10,9 C 10,9 C 90 % 1017,0 hPa 0,0 mm 1,6 km/h (1 Bft) N-NO 16 0 min 0,000 mm 1,2 UV-I 163 W/m 9,3 C 3,2 km/h (1 Bft)
20.09.2016 10:26 10,8 C 10,9 C 90 % 1016,9 hPa 0,0 mm 1,1 km/h (1 Bft) N-NO 16 0 min 0,000 mm 1,2 UV-I 160 W/m 9,2 C 3,2 km/h (1 Bft)
20.09.2016 10:27 10,8 C 10,8 C 90 % 1016,9 hPa 0,0 mm 1,5 km/h (1 Bft) N-NO 16 0 min 0,000 mm 1,2 UV-I 158 W/m 9,2 C 3,2 km/h (1 Bft)
20.09.2016 10:28 10,8 C 10,8 C 91 % 1017,0 hPa 0,0 mm 3,7 km/h (1 Bft) N-NO 32 0 min 0,000 mm 1,2 UV-I 158 W/m 9,4 C 4,8 km/h (1 Bft)
20.09.2016 10:29 10,9 C 10,9 C 92 % 1017,0 hPa 0,0 mm 4,2 km/h (1 Bft) NO 43 0 min 0,000 mm 1,2 UV-I 160 W/m 9,7 C 6,4 km/h (2 Bft)
20.09.2016 10:30 10,9 C 10,9 C 91 % 1017,0 hPa 0,0 mm 5,6 km/h (1 Bft) O-NO 76 0 min 0,000 mm 1,3 UV-I 163 W/m 9,5 C 6,4 km/h (2 Bft)
20.09.2016 10:31 10,9 C 10,9 C 92 % 1016,9 hPa 0,0 mm 4,3 km/h (1 Bft) O-NO 65 0 min 0,000 mm 1,3 UV-I 169 W/m 9,7 C 4,8 km/h (1 Bft)
20.09.2016 10:32 10,9 C 10,9 C 92 % 1017,0 hPa 0,0 mm 1,9 km/h (1 Bft) O-NO 65 0 min 0,000 mm 1,4 UV-I 172 W/m 9,7 C 3,2 km/h (1 Bft)
20.09.2016 10:33 10,9 C 10,9 C 92 % 1017,0 hPa 0,0 mm 3,2 km/h (1 Bft) NO 40 0 min 0,000 mm 1,4 UV-I 176 W/m 9,7 C 4,8 km/h (1 Bft)
20.09.2016 10:34 10,9 C 10,9 C 92 % 1017,0 hPa 0,0 mm 5,1 km/h (1 Bft) N 360 0 min 0,000 mm 1,4 UV-I 172 W/m 9,7 C 6,4 km/h (2 Bft)
20.09.2016 10:35 11,0 C 11,1 C 93 % 1017,0 hPa 0,0 mm 4,6 km/h (1 Bft) N-NO 24 0 min 0,000 mm 1,4 UV-I 167 W/m 9,9 C 6,4 km/h (2 Bft)
20.09.2016 10:36 11,1 C 11,1 C 93 % 1017,0 hPa 0,0 mm 3,1 km/h (1 Bft) NO 42 0 min 0,000 mm 1,3 UV-I 155 W/m 10,0 C 4,8 km/h (1 Bft)
20.09.2016 10:37 11,0 C 11,1 C 92 % 1017,0 hPa 0,0 mm 3,4 km/h (1 Bft) N 9 0 min 0,000 mm 1,2 UV-I 144 W/m 9,8 C 4,8 km/h (1 Bft)
20.09.2016 10:38 11,0 C 11,1 C 92 % 1017,0 hPa 0,0 mm 4,1 km/h (1 Bft) N 5 0 min 0,000 mm 1,1 UV-I 135 W/m 9,8 C 6,4 km/h (2 Bft)
20.09.2016 10:39 11,0 C 11,1 C 92 % 1017,0 hPa 0,0 mm 2,7 km/h (1 Bft) N 5 0 min 0,000 mm 1,1 UV-I 134 W/m 9,8 C 4,8 km/h (1 Bft)
20.09.2016 10:40 11,1 C 11,1 C 92 % 1017,0 hPa 0,0 mm 3,6 km/h (1 Bft) N 5 0 min 0,000 mm 1,1 UV-I 134 W/m 9,8 C 4,8 km/h (1 Bft)
20.09.2016 10:41 11,1 C 11,1 C 92 % 1017,0 hPa 0,0 mm 3,5 km/h (1 Bft) N-NO 20 0 min 0,000 mm 1,2 UV-I 141 W/m 9,8 C 6,4 km/h (2 Bft)
20.09.2016 10:42 10,9 C 11,1 C 92 % 1017,0 hPa 0,0 mm 4,1 km/h (1 Bft) NO 54 0 min 0,000 mm 1,2 UV-I 144 W/m 9,7 C 4,8 km/h (1 Bft)
20.09.2016 10:43 10,9 C 10,9 C 92 % 1017,0 hPa 0,0 mm 3,1 km/h (1 Bft) N-NO 28 0 min 0,000 mm 1,3 UV-I 149 W/m 9,7 C 4,8 km/h (1 Bft)
20.09.2016 10:44 10,9 C 10,9 C 93 % 1017,0 hPa 0,0 mm 5,2 km/h (1 Bft) O-NO 60 0 min 0,000 mm 1,3 UV-I 155 W/m 9,8 C 8,0 km/h (2 Bft)
20.09.2016 10:45 10,9 C 10,9 C 92 % 1017,0 hPa 0,0 mm 4,8 km/h (1 Bft) NO 47 0 min 0,000 mm 1,4 UV-I 172 W/m 9,7 C 6,4 km/h (2 Bft)
20.09.2016 10:46 10,8 C 10,9 C 91 % 1017,0 hPa 0,0 mm 1,5 km/h (1 Bft) NO 53 0 min 0,000 mm 1,5 UV-I 179 W/m 9,4 C 3,2 km/h (1 Bft)
20.09.2016 10:47 10,8 C 10,8 C 92 % 1017,0 hPa 0,0 mm 3,2 km/h (1 Bft) NO 51 0 min 0,000 mm 1,5 UV-I 181 W/m 9,6 C 4,8 km/h (1 Bft)
20.09.2016 10:48 10,8 C 10,8 C 92 % 1017,0 hPa 0,0 mm 5,5 km/h (1 Bft) NO 49 0 min 0,000 mm 1,5 UV-I 181 W/m 9,6 C 8,0 km/h (2 Bft)
20.09.2016 10:49 10,8 C 10,8 C 92 % 1017,0 hPa 0,0 mm 5,2 km/h (1 Bft) NO 34 0 min 0,000 mm 1,5 UV-I 183 W/m 9,6 C 6,4 km/h (2 Bft)
20.09.2016 10:50 10,8 C 10,8 C 92 % 1017,0 hPa 0,0 mm 3,0 km/h (1 Bft) NO 55 0 min 0,000 mm 1,5 UV-I 192 W/m 9,6 C 4,8 km/h (1 Bft)
20.09.2016 10:51 10,8 C 10,8 C 92 % 1017,0 hPa 0,0 mm 3,6 km/h (1 Bft) O-NO 66 0 min 0,000 mm 1,6 UV-I 216 W/m 9,6 C 4,8 km/h (1 Bft)
20.09.2016 10:52 10,8 C 10,8 C 92 % 1017,0 hPa 0,0 mm 4,7 km/h (1 Bft) O-NO 59 0 min 0,000 mm 1,6 UV-I 218 W/m 9,6 C 6,4 km/h (2 Bft)
20.09.2016 10:53 10,8 C 10,8 C 91 % 1017,0 hPa 0,0 mm 3,0 km/h (1 Bft) NO 49 0 min 0,000 mm 1,5 UV-I 211 W/m 9,4 C 4,8 km/h (1 Bft)
20.09.2016 10:54 10,8 C 10,8 C 92 % 1017,0 hPa 0,0 mm 2,7 km/h (1 Bft) O-NO 58 0 min 0,000 mm 1,5 UV-I 200 W/m 9,6 C 3,2 km/h (1 Bft)
20.09.2016 10:55 10,9 C 10,9 C 92 % 1017,0 hPa 0,0 mm 2,1 km/h (1 Bft) NO 51 0 min 0,000 mm 1,4 UV-I 186 W/m 9,7 C 4,8 km/h (1 Bft)
20.09.2016 10:56 10,9 C 10,9 C 92 % 1017,0 hPa 0,0 mm 2,9 km/h (1 Bft) NO 34 0 min 0,000 mm 1,4 UV-I 172 W/m 9,7 C 4,8 km/h (1 Bft)
20.09.2016 10:57 10,9 C 10,9 C 92 % 1017,0 hPa 0,0 mm 2,3 km/h (1 Bft) O-NO 74 0 min 0,000 mm 1,4 UV-I 172 W/m 9,7 C 4,8 km/h (1 Bft)
20.09.2016 10:58 10,9 C 10,9 C 92 % 1017,0 hPa 0,0 mm 4,9 km/h (1 Bft) O-NO 72 0 min 0,000 mm 1,6 UV-I 179 W/m 9,7 C 6,4 km/h (2 Bft)
20.09.2016 10:59 10,9 C 10,9 C 92 % 1017,0 hPa 0,0 mm 6,4 km/h (2 Bft) O-NO 77 0 min 0,000 mm 1,7 UV-I 186 W/m 9,7 C 8,0 km/h (2 Bft)
20.09.2016 11:00 10,9 C 10,9 C 92 % 1017,0 hPa 0,0 mm 4,7 km/h (1 Bft) O-NO 67 0 min 0,000 mm 1,7 UV-I 190 W/m 9,7 C 6,4 km/h (2 Bft)
20.09.2016 11:01 10,9 C 10,9 C 92 % 1016,9 hPa 0,0 mm 2,5 km/h (1 Bft) O-NO 68 0 min 0,076 mm 1,8 UV-I 192 W/m 9,7 C 4,8 km/h (1 Bft)
20.09.2016 11:02 10,9 C 10,9 C 92 % 1016,9 hPa 0,0 mm 2,2 km/h (1 Bft) O-NO 68 0 min 0,000 mm 1,8 UV-I 186 W/m 9,7 C 4,8 km/h (1 Bft)
20.09.2016 11:03 10,9 C 10,9 C 92 % 1017,0 hPa 0,0 mm 2,1 km/h (1 Bft) O 80 0 min 0,000 mm 1,8 UV-I 197 W/m 9,7 C 4,8 km/h (1 Bft)
20.09.2016 11:04 10,9 C 10,9 C 92 % 1016,9 hPa 0,0 mm 4,1 km/h (1 Bft) N 355 0 min 0,000 mm 1,9 UV-I 214 W/m 9,7 C 6,4 km/h (2 Bft)
20.09.2016 11:05 11,0 C 11,0 C 92 % 1016,9 hPa 0,0 mm 4,2 km/h (1 Bft) N-NO 27 0 min 0,000 mm 1,8 UV-I 213 W/m 9,8 C 6,4 km/h (2 Bft)
20.09.2016 11:06 11,0 C 11,1 C 92 % 1016,9 hPa 0,0 mm 2,8 km/h (1 Bft) N-NW 336 0 min 0,000 mm 1,8 UV-I 220 W/m 9,8 C 4,8 km/h (1 Bft)
20.09.2016 11:07 11,1 C 11,1 C 91 % 1016,9 hPa 0,0 mm 1,9 km/h (1 Bft) N-NO 32 0 min 0,000 mm 1,8 UV-I 225 W/m 9,7 C 4,8 km/h (1 Bft)
20.09.2016 11:08 11,2 C 11,2 C 92 % 1016,9 hPa 0,0 mm 3,8 km/h (1 Bft) N 11 0 min 0,000 mm 1,8 UV-I 234 W/m 9,9 C 4,8 km/h (1 Bft)
20.09.2016 11:09 11,2 C 11,2 C 92 % 1016,9 hPa 0,0 mm 3,6 km/h (1 Bft) NO 39 0 min 0,000 mm 1,7 UV-I 220 W/m 9,9 C 4,8 km/h (1 Bft)
20.09.2016 11:10 11,2 C 11,2 C 91 % 1016,9 hPa 0,0 mm 4,4 km/h (1 Bft) NO 42 0 min 0,000 mm 1,5 UV-I 202 W/m 9,8 C 6,4 km/h (2 Bft)
20.09.2016 11:11 11,1 C 11,2 C 90 % 1016,9 hPa 0,0 mm 2,5 km/h (1 Bft) NO 38 0 min 0,000 mm 1,5 UV-I 197 W/m 9,5 C 4,8 km/h (1 Bft)
20.09.2016 11:12 11,0 C 11,1 C 91 % 1016,9 hPa 0,0 mm 3,6 km/h (1 Bft) N-NO 14 0 min 0,000 mm 1,6 UV-I 206 W/m 9,6 C 6,4 km/h (2 Bft)
20.09.2016 11:13 11,1 C 11,1 C 91 % 1016,9 hPa 0,0 mm 3,1 km/h (1 Bft) N 355 0 min 0,000 mm 1,5 UV-I 211 W/m 9,7 C 6,4 km/h (2 Bft)
20.09.2016 11:14 11,2 C 11,2 C 92 % 1016,9 hPa 0,0 mm 5,0 km/h (1 Bft) N 5 0 min 0,000 mm 1,5 UV-I 197 W/m 9,9 C 6,4 km/h (2 Bft)
20.09.2016 11:15 11,2 C 11,2 C 92 % 1016,9 hPa 0,0 mm 3,9 km/h (1 Bft) N-NO 17 0 min 0,000 mm 1,4 UV-I 172 W/m 9,9 C 4,8 km/h (1 Bft)
20.09.2016 11:16 11,2 C 11,2 C 91 % 1016,9 hPa 0,0 mm 3,1 km/h (1 Bft) N-NO 31 0 min 0,000 mm 1,3 UV-I 165 W/m 9,8 C 4,8 km/h (1 Bft)
20.09.2016 11:17 11,1 C 11,2 C 91 % 1016,9 hPa 0,0 mm 3,0 km/h (1 Bft) NO 38 0 min 0,000 mm 1,3 UV-I 165 W/m 9,7 C 4,8 km/h (1 Bft)
20.09.2016 11:18 11,2 C 11,2 C 92 % 1016,9 hPa 0,0 mm 5,2 km/h (1 Bft) O-NO 71 0 min 0,000 mm 1,4 UV-I 169 W/m 9,9 C 9,7 km/h (2 Bft)
20.09.2016 11:19 11,1 C 11,2 C 92 % 1016,9 hPa 0,0 mm 4,4 km/h (1 Bft) NO 36 0 min 0,000 mm 1,4 UV-I 174 W/m 9,8 C 6,4 km/h (2 Bft)
20.09.2016 11:20 11,1 C 11,1 C 91 % 1016,9 hPa 0,0 mm 4,8 km/h (1 Bft) N-NW 344 0 min 0,000 mm 1,5 UV-I 185 W/m 9,7 C 8,0 km/h (2 Bft)
20.09.2016 11:21 11,1 C 11,1 C 92 % 1016,9 hPa 0,0 mm 4,0 km/h (1 Bft) N 5 0 min 0,000 mm 1,6 UV-I 186 W/m 9,8 C 6,4 km/h (2 Bft)
20.09.2016 11:22 11,1 C 11,1 C 92 % 1016,9 hPa 0,0 mm 4,2 km/h (1 Bft) N-NO 26 0 min 0,000 mm 1,6 UV-I 188 W/m 9,8 C 4,8 km/h (1 Bft)
20.09.2016 11:23 11,1 C 11,1 C 92 % 1016,9 hPa 0,0 mm 3,8 km/h (1 Bft) N 351 0 min 0,000 mm 1,6 UV-I 192 W/m 9,8 C 4,8 km/h (1 Bft)
20.09.2016 11:24 11,1 C 11,1 C 92 % 1016,9 hPa 0,0 mm 3,0 km/h (1 Bft) NO 39 0 min 0,000 mm 1,5 UV-I 190 W/m 9,8 C 4,8 km/h (1 Bft)
20.09.2016 11:25 11,1 C 11,1 C 92 % 1016,9 hPa 0,0 mm 4,4 km/h (1 Bft) NO 34 0 min 0,000 mm 1,5 UV-I 186 W/m 9,8 C 4,8 km/h (1 Bft)
20.09.2016 11:26 11,2 C 11,2 C 92 % 1016,9 hPa 0,0 mm 4,0 km/h (1 Bft) N-NO 17 0 min 0,000 mm 1,5 UV-I 183 W/m 9,9 C 4,8 km/h (1 Bft)
20.09.2016 11:27 11,2 C 11,2 C 91 % 1016,9 hPa 0,0 mm 2,7 km/h (1 Bft) N 5 0 min 0,000 mm 1,5 UV-I 179 W/m 9,8 C 4,8 km/h (1 Bft)
20.09.2016 11:28 11,2 C 11,2 C 91 % 1016,9 hPa 0,0 mm 3,0 km/h (1 Bft) N 355 0 min 0,000 mm 1,5 UV-I 176 W/m 9,8 C 6,4 km/h (2 Bft)
20.09.2016 11:29 11,2 C 11,2 C 91 % 1016,9 hPa 0,0 mm 4,0 km/h (1 Bft) NO 44 0 min 0,000 mm 1,5 UV-I 174 W/m 9,8 C 6,4 km/h (2 Bft)
20.09.2016 11:30 11,2 C 11,2 C 92 % 1016,9 hPa 0,0 mm 5,3 km/h (1 Bft) N-NO 30 0 min 0,000 mm 1,6 UV-I 176 W/m 9,9 C 8,0 km/h (2 Bft)
20.09.2016 11:31 11,1 C 11,2 C 91 % 1017,0 hPa 0,0 mm 6,1 km/h (2 Bft) N 5 0 min 0,000 mm 1,6 UV-I 178 W/m 9,7 C 8,0 km/h (2 Bft)
20.09.2016 11:32 11,1 C 11,1 C 91 % 1016,9 hPa 0,0 mm 5,8 km/h (2 Bft) N-NO 32 0 min 0,000 mm 1,6 UV-I 181 W/m 9,7 C 8,0 km/h (2 Bft)
20.09.2016 11:33 11,0 C 11,1 C 91 % 1016,9 hPa 0,0 mm 4,7 km/h (1 Bft) NO 53 0 min 0,000 mm 1,6 UV-I 185 W/m 9,6 C 6,4 km/h (2 Bft)
20.09.2016 11:34 11,0 C 11,0 C 92 % 1016,9 hPa 0,0 mm 4,2 km/h (1 Bft) NO 44 0 min 0,000 mm 1,6 UV-I 183 W/m 9,8 C 6,4 km/h (2 Bft)
20.09.2016 11:35 11,0 C 11,0 C 92 % 1016,9 hPa 0,0 mm 7,2 km/h (2 Bft) NO 51 0 min 0,000 mm 1,7 UV-I 186 W/m 9,8 C 9,7 km/h (2 Bft)
20.09.2016 11:36 10,9 C 11,0 C 92 % 1016,9 hPa 0,0 mm 7,3 km/h (2 Bft) NO 48 0 min 0,000 mm 1,8 UV-I 193 W/m 9,7 C 11,3 km/h (2 Bft)
20.09.2016 11:37 10,9 C 10,9 C 92 % 1016,9 hPa 0,0 mm 3,2 km/h (1 Bft) NO 49 0 min 0,000 mm 1,8 UV-I 200 W/m 9,7 C 4,8 km/h (1 Bft)
20.09.2016 11:38 10,9 C 10,9 C 92 % 1016,9 hPa 0,0 mm 4,2 km/h (1 Bft) N-NO 27 0 min 0,000 mm 1,9 UV-I 204 W/m 9,7 C 6,4 km/h (2 Bft)
20.09.2016 11:39 10,8 C 10,9 C 92 % 1016,8 hPa 0,0 mm 5,2 km/h (1 Bft) NO 44 0 min 0,000 mm 2,1 UV-I 211 W/m 9,6 C 8,0 km/h (2 Bft)
20.09.2016 11:40 10,8 C 10,8 C 92 % 1016,8 hPa 0,0 mm 4,7 km/h (1 Bft) N-NO 17 0 min 0,000 mm 2,2 UV-I 209 W/m 9,6 C 6,4 km/h (2 Bft)
20.09.2016 11:41 10,8 C 10,8 C 92 % 1016,9 hPa 0,0 mm 4,4 km/h (1 Bft) N-NO 15 0 min 0,000 mm 2,1 UV-I 204 W/m 9,6 C 6,4 km/h (2 Bft)
20.09.2016 11:42 10,7 C 10,8 C 92 % 1016,8 hPa 0,0 mm 3,7 km/h (1 Bft) N 350 0 min 0,000 mm 2,1 UV-I 199 W/m 9,5 C 6,4 km/h (2 Bft)
20.09.2016 11:43 10,8 C 10,8 C 93 % 1016,8 hPa 0,0 mm 3,6 km/h (1 Bft) N 355 0 min 0,000 mm 2,1 UV-I 193 W/m 9,7 C 4,8 km/h (1 Bft)
20.09.2016 11:44 10,8 C 10,9 C 92 % 1016,8 hPa 0,0 mm 4,6 km/h (1 Bft) NO 44 0 min 0,000 mm 2,1 UV-I 213 W/m 9,6 C 8,0 km/h (2 Bft)
20.09.2016 11:45 10,8 C 10,9 C 92 % 1016,9 hPa 0,0 mm 5,2 km/h (1 Bft) O-NO 61 0 min 0,000 mm 2,3 UV-I 225 W/m 9,6 C 9,7 km/h (2 Bft)
20.09.2016 11:46 10,8 C 10,8 C 92 % 1016,9 hPa 0,0 mm 6,4 km/h (2 Bft) O 81 0 min 0,000 mm 2,3 UV-I 236 W/m 9,6 C 8,0 km/h (2 Bft)
20.09.2016 11:47 10,8 C 10,8 C 92 % 1016,8 hPa 0,0 mm 5,1 km/h (1 Bft) O 96 0 min 0,000 mm 2,4 UV-I 239 W/m 9,6 C 8,0 km/h (2 Bft)
20.09.2016 11:48 10,7 C 10,8 C 92 % 1016,8 hPa 0,0 mm 5,7 km/h (1 Bft) O-NO 57 0 min 0,000 mm 2,4 UV-I 241 W/m 9,5 C 8,0 km/h (2 Bft)
20.09.2016 11:49 10,7 C 10,8 C 92 % 1016,8 hPa 0,0 mm 5,8 km/h (2 Bft) NO 46 0 min 0,000 mm 2,4 UV-I 243 W/m 9,5 C 9,7 km/h (2 Bft)
20.09.2016 11:50 10,7 C 10,7 C 92 % 1016,8 hPa 0,0 mm 7,4 km/h (2 Bft) O-NO 65 0 min 0,000 mm 2,4 UV-I 241 W/m 9,5 C 9,7 km/h (2 Bft)
20.09.2016 11:51 10,7 C 10,8 C 92 % 1016,7 hPa 0,0 mm 7,2 km/h (2 Bft) N-NO 32 0 min 0,000 mm 2,3 UV-I 239 W/m 9,5 C 11,3 km/h (2 Bft)
20.09.2016 11:52 10,7 C 10,8 C 92 % 1016,7 hPa 0,0 mm 5,8 km/h (2 Bft) O-NO 72 0 min 0,000 mm 2,3 UV-I 237 W/m 9,5 C 8,0 km/h (2 Bft)
20.09.2016 11:53 10,8 C 10,8 C 92 % 1016,7 hPa 0,0 mm 4,2 km/h (1 Bft) O 80 0 min 0,000 mm 2,3 UV-I 234 W/m 9,6 C 6,4 km/h (2 Bft)
20.09.2016 11:54 10,8 C 10,8 C 93 % 1016,7 hPa 0,0 mm 5,8 km/h (2 Bft) NO 36 0 min 0,000 mm 2,2 UV-I 229 W/m 9,7 C 8,0 km/h (2 Bft)
20.09.2016 11:55 10,8 C 10,8 C 92 % 1016,7 hPa 0,0 mm 4,0 km/h (1 Bft) O 84 0 min 0,000 mm 2,1 UV-I 220 W/m 9,6 C 6,4 km/h (2 Bft)
20.09.2016 11:56 10,8 C 10,8 C 92 % 1016,7 hPa 0,0 mm 7,5 km/h (2 Bft) NO 38 0 min 0,000 mm 2,0 UV-I 202 W/m 9,6 C 11,3 km/h (2 Bft)
20.09.2016 11:57 10,8 C 10,8 C 92 % 1016,7 hPa 0,0 mm 4,8 km/h (1 Bft) N-NO 17 0 min 0,000 mm 2,0 UV-I 206 W/m 9,6 C 8,0 km/h (2 Bft)
20.09.2016 11:58 10,7 C 10,8 C 92 % 1016,7 hPa 0,0 mm 5,6 km/h (1 Bft) NO 53 0 min 0,000 mm 2,0 UV-I 211 W/m 9,5 C 8,0 km/h (2 Bft)
20.09.2016 11:59 10,8 C 10,8 C 92 % 1016,7 hPa 0,0 mm 4,0 km/h (1 Bft) NO 38 0 min 0,000 mm 1,9 UV-I 207 W/m 9,6 C 4,8 km/h (1 Bft)
20.09.2016 12:00 10,8 C 10,8 C 92 % 1016,7 hPa 0,0 mm 1,9 km/h (1 Bft) NO 38 0 min 0,000 mm 1,9 UV-I 202 W/m 9,6 C 4,8 km/h (1 Bft)
20.09.2016 12:01 10,8 C 10,8 C 92 % 1016,7 hPa 0,0 mm 3,2 km/h (1 Bft) O 84 0 min 0,102 mm 1,9 UV-I 195 W/m 9,6 C 6,4 km/h (2 Bft)
20.09.2016 12:02 10,8 C 10,8 C 92 % 1016,7 hPa 0,0 mm 5,8 km/h (2 Bft) O-NO 75 0 min 0,000 mm 1,8 UV-I 186 W/m 9,6 C 8,0 km/h (2 Bft)
20.09.2016 12:03 10,8 C 10,9 C 92 % 1016,7 hPa 0,0 mm 3,6 km/h (1 Bft) N-NO 26 0 min 0,000 mm 1,8 UV-I 188 W/m 9,6 C 4,8 km/h (1 Bft)
20.09.2016 12:04 10,9 C 10,9 C 92 % 1016,7 hPa 0,0 mm 4,4 km/h (1 Bft) NO 49 0 min 0,000 mm 1,8 UV-I 197 W/m 9,7 C 6,4 km/h (2 Bft)
20.09.2016 12:05 10,9 C 10,9 C 92 % 1016,7 hPa 0,0 mm 2,1 km/h (1 Bft) O 92 0 min 0,000 mm 1,9 UV-I 211 W/m 9,7 C 4,8 km/h (1 Bft)
20.09.2016 12:06 10,9 C 10,9 C 93 % 1016,7 hPa 0,0 mm 3,1 km/h (1 Bft) O 90 0 min 0,000 mm 1,9 UV-I 225 W/m 9,8 C 4,8 km/h (1 Bft)
20.09.2016 12:07 11,0 C 11,0 C 92 % 1016,6 hPa 0,0 mm 4,2 km/h (1 Bft) N-NO 17 0 min 0,000 mm 2,1 UV-I 251 W/m 9,8 C 6,4 km/h (2 Bft)
20.09.2016 12:08 10,9 C 11,0 C 91 % 1016,7 hPa 0,0 mm 3,4 km/h (1 Bft) N-NO 30 0 min 0,000 mm 2,2 UV-I 255 W/m 9,5 C 6,4 km/h (2 Bft)
20.09.2016 12:09 11,0 C 11,0 C 91 % 1016,7 hPa 0,0 mm 4,8 km/h (1 Bft) O-NO 76 0 min 0,000 mm 2,0 UV-I 246 W/m 9,6 C 6,4 km/h (2 Bft)
20.09.2016 12:10 11,0 C 11,0 C 91 % 1016,7 hPa 0,0 mm 4,2 km/h (1 Bft) NO 42 0 min 0,000 mm 1,9 UV-I 229 W/m 9,6 C 6,4 km/h (2 Bft)
20.09.2016 12:11 11,1 C 11,1 C 92 % 1016,7 hPa 0,0 mm 4,6 km/h (1 Bft) N-NO 30 0 min 0,000 mm 1,8 UV-I 214 W/m 9,8 C 6,4 km/h (2 Bft)
20.09.2016 12:12 11,1 C 11,1 C 91 % 1016,7 hPa 0,0 mm 4,1 km/h (1 Bft) N-NO 17 0 min 0,000 mm 1,8 UV-I 209 W/m 9,7 C 6,4 km/h (2 Bft)
20.09.2016 12:13 11,1 C 11,2 C 91 % 1016,7 hPa 0,0 mm 7,8 km/h (2 Bft) N-NO 16 0 min 0,000 mm 1,8 UV-I 239 W/m 9,7 C 12,9 km/h (3 Bft)
20.09.2016 12:14 11,1 C 11,1 C 90 % 1016,7 hPa 0,0 mm 5,9 km/h (2 Bft) N-NW 336 0 min 0,000 mm 2,2 UV-I 271 W/m 9,5 C 8,0 km/h (2 Bft)
20.09.2016 12:15 11,1 C 11,1 C 91 % 1016,7 hPa 0,0 mm 4,6 km/h (1 Bft) O-NO 58 0 min 0,000 mm 2,2 UV-I 292 W/m 9,7 C 6,4 km/h (2 Bft)
20.09.2016 12:16 11,1 C 11,1 C 91 % 1016,7 hPa 0,0 mm 4,6 km/h (1 Bft) O-NO 77 0 min 0,000 mm 2,2 UV-I 292 W/m 9,7 C 6,4 km/h (2 Bft)
20.09.2016 12:17 11,0 C 11,1 C 91 % 1016,7 hPa 0,0 mm 2,8 km/h (1 Bft) O-NO 57 0 min 0,000 mm 2,1 UV-I 265 W/m 9,6 C 4,8 km/h (1 Bft)
20.09.2016 12:18 11,1 C 11,1 C 92 % 1016,7 hPa 0,0 mm 4,8 km/h (1 Bft) O-NO 57 0 min 0,000 mm 2,0 UV-I 251 W/m 9,8 C 6,4 km/h (2 Bft)
20.09.2016 12:19 11,1 C 11,1 C 92 % 1016,6 hPa 0,0 mm 4,9 km/h (1 Bft) O-NO 77 0 min 0,000 mm 2,0 UV-I 239 W/m 9,8 C 6,4 km/h (2 Bft)
20.09.2016 12:20 11,1 C 11,1 C 91 % 1016,7 hPa 0,0 mm 4,9 km/h (1 Bft) N-NW 336 0 min 0,000 mm 1,7 UV-I 218 W/m 9,7 C 8,0 km/h (2 Bft)
20.09.2016 12:21 11,2 C 11,2 C 92 % 1016,7 hPa 0,0 mm 5,4 km/h (1 Bft) N-NO 33 0 min 0,000 mm 1,6 UV-I 202 W/m 9,9 C 8,0 km/h (2 Bft)
20.09.2016 12:22 11,2 C 11,2 C 91 % 1016,7 hPa 0,0 mm 2,8 km/h (1 Bft) NO 55 0 min 0,000 mm 1,5 UV-I 193 W/m 9,8 C 4,8 km/h (1 Bft)
20.09.2016 12:23 11,1 C 11,2 C 91 % 1016,7 hPa 0,0 mm 4,2 km/h (1 Bft) N-NO 29 0 min 0,000 mm 1,6 UV-I 195 W/m 9,7 C 6,4 km/h (2 Bft)
20.09.2016 12:24 11,1 C 11,2 C 91 % 1016,7 hPa 0,0 mm 3,5 km/h (1 Bft) N 5 0 min 0,000 mm 1,6 UV-I 199 W/m 9,7 C 6,4 km/h (2 Bft)
20.09.2016 12:25 11,1 C 11,1 C 91 % 1016,7 hPa 0,0 mm 3,7 km/h (1 Bft) N-NO 22 0 min 0,000 mm 1,6 UV-I 190 W/m 9,7 C 6,4 km/h (2 Bft)
20.09.2016 12:26 11,2 C 11,2 C 92 % 1016,7 hPa 0,0 mm 3,9 km/h (1 Bft) N 355 0 min 0,000 mm 1,3 UV-I 174 W/m 9,9 C 4,8 km/h (1 Bft)
20.09.2016 12:27 11,2 C 11,2 C 91 % 1016,7 hPa 0,0 mm 5,1 km/h (1 Bft) N-NO 19 0 min 0,000 mm 1,1 UV-I 148 W/m 9,8 C 6,4 km/h (2 Bft)
20.09.2016 12:28 11,2 C 11,2 C 91 % 1016,7 hPa 0,0 mm 4,3 km/h (1 Bft) NO 46 0 min 0,000 mm 1,0 UV-I 128 W/m 9,8 C 9,7 km/h (2 Bft)
20.09.2016 12:29 11,2 C 11,2 C 92 % 1016,7 hPa 0,0 mm 6,9 km/h (2 Bft) N-NO 28 0 min 0,000 mm 0,9 UV-I 114 W/m 9,9 C 9,7 km/h (2 Bft)
20.09.2016 12:30 11,2 C 11,2 C 91 % 1016,7 hPa 0,0 mm 4,3 km/h (1 Bft) N 11 0 min 0,000 mm 0,9 UV-I 107 W/m 9,8 C 8,0 km/h (2 Bft)
20.09.2016 12:31 11,1 C 11,2 C 91 % 1016,7 hPa 0,0 mm 5,2 km/h (1 Bft) O-NO 61 0 min 0,000 mm 0,9 UV-I 105 W/m 9,7 C 8,0 km/h (2 Bft)
20.09.2016 12:32 11,0 C 11,1 C 91 % 1016,7 hPa 0,0 mm 5,3 km/h (1 Bft) O-NO 70 0 min 0,000 mm 0,8 UV-I 105 W/m 9,6 C 8,0 km/h (2 Bft)
20.09.2016 12:33 10,9 C 11,0 C 91 % 1016,7 hPa 0,0 mm 2,7 km/h (1 Bft) N-NO 28 0 min 0,000 mm 0,9 UV-I 113 W/m 9,5 C 6,4 km/h (2 Bft)
20.09.2016 12:34 10,9 C 10,9 C 92 % 1016,8 hPa 0,0 mm 5,3 km/h (1 Bft) N-NO 27 0 min 0,000 mm 1,0 UV-I 125 W/m 9,7 C 8,0 km/h (2 Bft)
20.09.2016 12:35 10,8 C 10,9 C 92 % 1016,7 hPa 0,0 mm 5,5 km/h (1 Bft) N-NO 15 0 min 0,000 mm 1,2 UV-I 141 W/m 9,6 C 6,4 km/h (2 Bft)
20.09.2016 12:36 10,8 C 10,8 C 92 % 1016,8 hPa 0,0 mm 4,5 km/h (1 Bft) O-NO 73 0 min 0,000 mm 1,3 UV-I 155 W/m 9,6 C 8,0 km/h (2 Bft)
20.09.2016 12:37 10,8 C 10,8 C 92 % 1016,8 hPa 0,0 mm 5,7 km/h (1 Bft) NO 35 0 min 0,000 mm 1,4 UV-I 172 W/m 9,6 C 8,0 km/h (2 Bft)
20.09.2016 12:38 10,8 C 10,8 C 92 % 1016,7 hPa 0,0 mm 5,5 km/h (1 Bft) O-NO 57 0 min 0,000 mm 1,4 UV-I 172 W/m 9,6 C 8,0 km/h (2 Bft)
20.09.2016 12:39 10,7 C 10,8 C 92 % 1016,7 hPa 0,0 mm 4,0 km/h (1 Bft) O-NO 63 0 min 0,000 mm 1,6 UV-I 193 W/m 9,5 C 6,4 km/h (2 Bft)
20.09.2016 12:40 10,7 C 10,7 C 92 % 1016,7 hPa 0,0 mm 7,6 km/h (2 Bft) NO 53 0 min 0,000 mm 1,8 UV-I 211 W/m 9,5 C 11,3 km/h (2 Bft)
20.09.2016 12:41 10,7 C 10,7 C 92 % 1016,7 hPa 0,0 mm 8,2 km/h (2 Bft) NO 44 0 min 0,000 mm 1,9 UV-I 223 W/m 9,5 C 9,7 km/h (2 Bft)
20.09.2016 12:42 10,7 C 10,7 C 92 % 1016,7 hPa 0,0 mm 6,0 km/h (2 Bft) N 10 0 min 0,000 mm 1,9 UV-I 223 W/m 9,5 C 8,0 km/h (2 Bft)
20.09.2016 12:43 10,7 C 10,7 C 93 % 1016,7 hPa 0,0 mm 2,9 km/h (1 Bft) NO 56 0 min 0,000 mm 2,0 UV-I 237 W/m 9,6 C 4,8 km/h (1 Bft)
20.09.2016 12:44 10,7 C 10,7 C 92 % 1016,7 hPa 0,0 mm 6,7 km/h (2 Bft) O-NO 69 0 min 0,000 mm 2,0 UV-I 234 W/m 9,5 C 9,7 km/h (2 Bft)
20.09.2016 12:45 10,8 C 10,8 C 92 % 1016,7 hPa 0,0 mm 3,0 km/h (1 Bft) O-NO 74 0 min 0,000 mm 1,9 UV-I 227 W/m 9,6 C 6,4 km/h (2 Bft)
20.09.2016 12:46 10,8 C 10,8 C 92 % 1016,7 hPa 0,0 mm 3,1 km/h (1 Bft) O-NO 69 0 min 0,000 mm 1,8 UV-I 216 W/m 9,6 C 6,4 km/h (2 Bft)
20.09.2016 12:47 10,8 C 10,8 C 92 % 1016,7 hPa 0,0 mm 5,7 km/h (1 Bft) O 80 0 min 0,000 mm 1,6 UV-I 199 W/m 9,6 C 9,7 km/h (2 Bft)
20.09.2016 12:48 10,8 C 10,8 C 91 % 1016,7 hPa 0,0 mm 5,8 km/h (2 Bft) O-NO 65 0 min 0,000 mm 1,5 UV-I 181 W/m 9,4 C 8,0 km/h (2 Bft)
20.09.2016 12:49 10,8 C 10,8 C 91 % 1016,6 hPa 0,0 mm 7,4 km/h (2 Bft) NO 42 0 min 0,000 mm 1,4 UV-I 174 W/m 9,4 C 11,3 km/h (2 Bft)
20.09.2016 12:50 10,8 C 10,8 C 91 % 1016,7 hPa 0,0 mm 5,5 km/h (1 Bft) O-NO 69 0 min 0,000 mm 1,4 UV-I 167 W/m 9,4 C 11,3 km/h (2 Bft)
20.09.2016 12:51 10,8 C 10,8 C 91 % 1016,7 hPa 0,0 mm 5,7 km/h (1 Bft) NO 54 0 min 0,000 mm 1,5 UV-I 172 W/m 9,4 C 8,0 km/h (2 Bft)
20.09.2016 12:52 10,8 C 10,8 C 91 % 1016,6 hPa 0,0 mm 6,6 km/h (2 Bft) O-NO 58 0 min 0,000 mm 1,4 UV-I 174 W/m 9,4 C 8,0 km/h (2 Bft)
20.09.2016 12:53 10,8 C 10,8 C 91 % 1016,6 hPa 0,0 mm 2,9 km/h (1 Bft) N-NO 28 0 min 0,000 mm 1,3 UV-I 162 W/m 9,4 C 6,4 km/h (2 Bft)
20.09.2016 12:54 10,8 C 10,8 C 92 % 1016,6 hPa 0,0 mm 3,9 km/h (1 Bft) O-NO 75 0 min 0,000 mm 1,3 UV-I 148 W/m 9,6 C 6,4 km/h (2 Bft)
20.09.2016 12:55 10,8 C 10,8 C 92 % 1016,6 hPa 0,0 mm 4,9 km/h (1 Bft) NO 38 0 min 0,000 mm 1,2 UV-I 141 W/m 9,6 C 6,4 km/h (2 Bft)
20.09.2016 12:56 10,9 C 10,9 C 92 % 1016,6 hPa 0,0 mm 5,3 km/h (1 Bft) NO 46 0 min 0,000 mm 1,2 UV-I 142 W/m 9,7 C 8,0 km/h (2 Bft)
20.09.2016 12:57 10,9 C 10,9 C 92 % 1016,6 hPa 0,0 mm 5,2 km/h (1 Bft) O-NO 66 0 min 0,000 mm 1,2 UV-I 142 W/m 9,7 C 8,0 km/h (2 Bft)
20.09.2016 12:58 10,9 C 10,9 C 92 % 1016,6 hPa 0,0 mm 5,8 km/h (2 Bft) NO 46 0 min 0,000 mm 1,1 UV-I 132 W/m 9,7 C 9,7 km/h (2 Bft)
20.09.2016 12:59 10,9 C 10,9 C 91 % 1016,6 hPa 0,0 mm 5,3 km/h (1 Bft) O-NO 77 0 min 0,000 mm 1,0 UV-I 121 W/m 9,5 C 6,4 km/h (2 Bft)
20.09.2016 13:00 10,9 C 10,9 C 91 % 1016,7 hPa 0,0 mm 6,8 km/h (2 Bft) NO 55 0 min 0,000 mm 1,0 UV-I 120 W/m 9,5 C 9,7 km/h (2 Bft)
20.09.2016 13:01 10,8 C 10,9 C 91 % 1016,7 hPa 0,0 mm 5,4 km/h (1 Bft) NO 38 0 min 0,102 mm 0,8 UV-I 104 W/m 9,4 C 6,4 km/h (2 Bft)
20.09.2016 13:02 10,8 C 10,8 C 91 % 1016,7 hPa 0,0 mm 7,4 km/h (2 Bft) N-NO 31 0 min 0,000 mm 0,7 UV-I 90 W/m 9,4 C 11,3 km/h (2 Bft)
20.09.2016 13:03 10,8 C 10,8 C 91 % 1016,7 hPa 0,0 mm 6,6 km/h (2 Bft) O-NO 57 0 min 0,000 mm 0,7 UV-I 83 W/m 9,4 C 9,7 km/h (2 Bft)
20.09.2016 13:04 10,7 C 10,8 C 91 % 1016,7 hPa 0,0 mm 5,9 km/h (2 Bft) O 93 0 min 0,000 mm 0,6 UV-I 81 W/m 9,3 C 8,0 km/h (2 Bft)
20.09.2016 13:05 10,7 C 10,7 C 91 % 1016,7 hPa 0,0 mm 6,0 km/h (2 Bft) O-NO 67 0 min 0,000 mm 0,6 UV-I 77 W/m 9,3 C 8,0 km/h (2 Bft)
20.09.2016 13:06 10,7 C 10,7 C 91 % 1016,7 hPa 0,0 mm 5,8 km/h (2 Bft) O-NO 59 0 min 0,000 mm 0,7 UV-I 79 W/m 9,3 C 8,0 km/h (2 Bft)
20.09.2016 13:07 10,6 C 10,7 C 92 % 1016,7 hPa 0,0 mm 6,4 km/h (2 Bft) O-NO 60 0 min 0,000 mm 0,6 UV-I 72 W/m 9,4 C 8,0 km/h (2 Bft)
20.09.2016 13:08 10,6 C 10,6 C 92 % 1016,7 hPa 0,0 mm 7,5 km/h (2 Bft) N-NW 343 0 min 0,000 mm 0,6 UV-I 63 W/m 9,4 C 12,9 km/h (3 Bft)
20.09.2016 13:09 10,6 C 10,6 C 92 % 1016,7 hPa 0,0 mm 5,0 km/h (1 Bft) N-NO 17 0 min 0,000 mm 0,5 UV-I 60 W/m 9,4 C 8,0 km/h (2 Bft)
20.09.2016 13:10 10,6 C 10,6 C 92 % 1016,7 hPa 0,0 mm 5,2 km/h (1 Bft) N-NO 26 0 min 0,000 mm 0,5 UV-I 62 W/m 9,4 C 8,0 km/h (2 Bft)
20.09.2016 13:11 10,6 C 10,6 C 92 % 1016,7 hPa 0,0 mm 4,3 km/h (1 Bft) NO 44 0 min 0,000 mm 0,5 UV-I 62 W/m 9,4 C 8,0 km/h (2 Bft)
20.09.2016 13:12 10,6 C 10,7 C 92 % 1016,7 hPa 0,0 mm 5,6 km/h (1 Bft) NO 41 0 min 0,000 mm 0,5 UV-I 62 W/m 9,4 C 8,0 km/h (2 Bft)
20.09.2016 13:13 10,6 C 10,6 C 91 % 1016,7 hPa 0,0 mm 4,8 km/h (1 Bft) N-NO 24 0 min 0,000 mm 0,5 UV-I 63 W/m 9,2 C 6,4 km/h (2 Bft)
20.09.2016 13:14 10,6 C 10,6 C 92 % 1016,7 hPa 0,0 mm 6,3 km/h (2 Bft) O-NO 57 0 min 0,000 mm 0,5 UV-I 60 W/m 9,4 C 11,3 km/h (2 Bft)
20.09.2016 13:15 10,6 C 10,6 C 92 % 1016,7 hPa 0,0 mm 4,1 km/h (1 Bft) NO 53 0 min 0,000 mm 0,5 UV-I 58 W/m 9,4 C 8,0 km/h (2 Bft)
20.09.2016 13:16 10,5 C 10,6 C 92 % 1016,7 hPa 0,0 mm 1,7 km/h (1 Bft) NO 53 0 min 0,000 mm 0,5 UV-I 62 W/m 9,3 C 3,2 km/h (1 Bft)
20.09.2016 13:17 10,6 C 10,6 C 92 % 1016,7 hPa 0,0 mm 3,1 km/h (1 Bft) N-NW 333 0 min 0,000 mm 0,5 UV-I 63 W/m 9,4 C 4,8 km/h (1 Bft)
20.09.2016 13:18 10,6 C 10,6 C 92 % 1016,7 hPa 0,0 mm 3,9 km/h (1 Bft) O-NO 71 0 min 0,000 mm 0,6 UV-I 67 W/m 9,4 C 8,0 km/h (2 Bft)
20.09.2016 13:19 10,6 C 10,6 C 92 % 1016,7 hPa 0,0 mm 5,3 km/h (1 Bft) O-NO 71 0 min 0,000 mm 0,6 UV-I 70 W/m 9,4 C 6,4 km/h (2 Bft)
20.09.2016 13:20 10,6 C 10,6 C 92 % 1016,7 hPa 0,0 mm 4,9 km/h (1 Bft) O-NO 65 0 min 0,000 mm 0,6 UV-I 70 W/m 9,4 C 6,4 km/h (2 Bft)
20.09.2016 13:21 10,6 C 10,6 C 92 % 1016,8 hPa 0,0 mm 3,4 km/h (1 Bft) N-NO 28 0 min 0,000 mm 0,6 UV-I 72 W/m 9,4 C 4,8 km/h (1 Bft)
20.09.2016 13:22 10,6 C 10,6 C 92 % 1016,8 hPa 0,0 mm 2,4 km/h (1 Bft) O-NO 73 0 min 0,000 mm 0,6 UV-I 76 W/m 9,4 C 4,8 km/h (1 Bft)
20.09.2016 13:23 10,6 C 10,6 C 92 % 1016,7 hPa 0,0 mm 0,9 km/h (0 Bft) O-NO 76 0 min 0,000 mm 0,6 UV-I 76 W/m 9,4 C 3,2 km/h (1 Bft)
20.09.2016 13:24 10,5 C 10,6 C 92 % 1016,8 hPa 0,0 mm 1,6 km/h (1 Bft) O-NO 76 0 min 0,000 mm 0,6 UV-I 60 W/m 9,3 C 3,2 km/h (1 Bft)
20.09.2016 13:25 10,6 C 10,6 C 92 % 1016,8 hPa 0,0 mm 2,3 km/h (1 Bft) N 360 0 min 0,000 mm 0,5 UV-I 60 W/m 9,4 C 4,8 km/h (1 Bft)
20.09.2016 13:26 10,6 C 10,6 C 93 % 1016,8 hPa 0,0 mm 1,5 km/h (1 Bft) N-NO 13 0 min 0,000 mm 0,5 UV-I 58 W/m 9,5 C 3,2 km/h (1 Bft)
20.09.2016 13:27 10,6 C 10,6 C 93 % 1016,8 hPa 0,0 mm 4,2 km/h (1 Bft) N-NO 17 0 min 0,000 mm 0,5 UV-I 56 W/m 9,5 C 6,4 km/h (2 Bft)
20.09.2016 13:28 10,6 C 10,6 C 92 % 1016,8 hPa 0,0 mm 4,0 km/h (1 Bft) NO 36 0 min 0,000 mm 0,5 UV-I 56 W/m 9,4 C 6,4 km/h (2 Bft)
20.09.2016 13:29 10,6 C 10,6 C 92 % 1016,8 hPa 0,0 mm 5,1 km/h (1 Bft) N 5 0 min 0,000 mm 0,5 UV-I 56 W/m 9,4 C 8,0 km/h (2 Bft)
20.09.2016 13:30 10,5 C 10,6 C 92 % 1016,7 hPa 0,0 mm 5,5 km/h (1 Bft) N 11 0 min 0,000 mm 0,5 UV-I 56 W/m 9,3 C 8,0 km/h (2 Bft)
20.09.2016 13:31 10,5 C 10,6 C 92 % 1016,7 hPa 0,0 mm 2,8 km/h (1 Bft) N-NW 338 0 min 0,000 mm 0,0 UV-I 54 W/m 9,3 C 4,8 km/h (1 Bft)
20.09.2016 13:32 10,4 C 10,5 C 92 % 1016,8 hPa 0,0 mm 1,9 km/h (1 Bft) NO 47 0 min 0,000 mm 0,0 UV-I 54 W/m 9,2 C 3,2 km/h (1 Bft)
20.09.2016 13:33 10,4 C 10,4 C 92 % 1016,8 hPa 0,0 mm 1,5 km/h (1 Bft) NO 49 0 min 0,000 mm 0,0 UV-I 54 W/m 9,2 C 3,2 km/h (1 Bft)
20.09.2016 13:34 10,4 C 10,4 C 92 % 1016,8 hPa 0,0 mm 3,1 km/h (1 Bft) N-NO 15 0 min 0,000 mm 0,0 UV-I 56 W/m 9,2 C 6,4 km/h (2 Bft)
20.09.2016 13:35 10,4 C 10,4 C 92 % 1016,8 hPa 0,0 mm 4,3 km/h (1 Bft) NO 55 0 min 0,000 mm 0,5 UV-I 62 W/m 9,2 C 6,4 km/h (2 Bft)
20.09.2016 13:36 10,4 C 10,4 C 92 % 1016,7 hPa 0,0 mm 3,3 km/h (1 Bft) NO 34 0 min 0,000 mm 0,5 UV-I 62 W/m 9,2 C 6,4 km/h (2 Bft)
20.09.2016 13:37 10,4 C 10,4 C 92 % 1016,8 hPa 0,0 mm 3,3 km/h (1 Bft) N-NO 32 0 min 0,000 mm 0,5 UV-I 63 W/m 9,2 C 4,8 km/h (1 Bft)
20.09.2016 13:38 10,4 C 10,4 C 92 % 1016,7 hPa 0,0 mm 2,9 km/h (1 Bft) N-NO 26 0 min 0,000 mm 0,5 UV-I 65 W/m 9,2 C 3,2 km/h (1 Bft)
20.09.2016 13:39 10,4 C 10,4 C 92 % 1016,7 hPa 0,0 mm 4,4 km/h (1 Bft) O 84 0 min 0,000 mm 0,5 UV-I 65 W/m 9,2 C 6,4 km/h (2 Bft)
20.09.2016 13:40 10,4 C 10,4 C 92 % 1016,7 hPa 0,0 mm 2,1 km/h (1 Bft) O-NO 78 0 min 0,000 mm 0,6 UV-I 69 W/m 9,2 C 4,8 km/h (1 Bft)
20.09.2016 13:41 10,4 C 10,4 C 92 % 1016,7 hPa 0,0 mm 6,0 km/h (2 Bft) O-SO 105 0 min 0,000 mm 0,6 UV-I 76 W/m 9,2 C 12,9 km/h (3 Bft)
20.09.2016 13:42 10,4 C 10,4 C 92 % 1016,7 hPa 0,0 mm 7,1 km/h (2 Bft) O 90 0 min 0,000 mm 0,6 UV-I 76 W/m 9,2 C 11,3 km/h (2 Bft)
20.09.2016 13:43 10,4 C 10,4 C 92 % 1016,7 hPa 0,0 mm 2,3 km/h (1 Bft) O 84 0 min 0,000 mm 0,6 UV-I 77 W/m 9,2 C 4,8 km/h (1 Bft)
20.09.2016 13:44 10,3 C 10,4 C 92 % 1016,7 hPa 0,0 mm 4,0 km/h (1 Bft) N-NO 30 0 min 0,000 mm 0,7 UV-I 79 W/m 9,1 C 6,4 km/h (2 Bft)
20.09.2016 13:45 10,3 C 10,3 C 92 % 1016,8 hPa 0,0 mm 4,7 km/h (1 Bft) NO 50 0 min 0,000 mm 0,7 UV-I 83 W/m 9,1 C 8,0 km/h (2 Bft)
20.09.2016 13:46 10,3 C 10,3 C 92 % 1016,7 hPa 0,0 mm 5,2 km/h (1 Bft) NO 56 0 min 0,000 mm 0,7 UV-I 83 W/m 9,1 C 8,0 km/h (2 Bft)
20.09.2016 13:47 10,3 C 10,3 C 92 % 1016,7 hPa 0,0 mm 2,1 km/h (1 Bft) NO 55 0 min 0,000 mm 0,7 UV-I 86 W/m 9,1 C 4,8 km/h (1 Bft)
20.09.2016 13:48 10,3 C 10,3 C 92 % 1016,7 hPa 0,0 mm 2,7 km/h (1 Bft) O 79 0 min 0,000 mm 0,7 UV-I 90 W/m 9,1 C 4,8 km/h (1 Bft)
20.09.2016 13:49 10,3 C 10,3 C 92 % 1016,7 hPa 0,0 mm 3,8 km/h (1 Bft) O 91 0 min 0,000 mm 0,8 UV-I 91 W/m 9,1 C 6,4 km/h (2 Bft)
20.09.2016 13:50 10,3 C 10,3 C 92 % 1016,6 hPa 0,0 mm 5,9 km/h (2 Bft) O-SO 113 0 min 0,000 mm 0,8 UV-I 91 W/m 9,1 C 9,7 km/h (2 Bft)
20.09.2016 13:51 10,3 C 10,3 C 91 % 1016,7 hPa 0,0 mm 6,0 km/h (2 Bft) NO 53 0 min 0,000 mm 0,8 UV-I 95 W/m 8,9 C 9,7 km/h (2 Bft)
20.09.2016 13:52 10,3 C 10,3 C 92 % 1016,6 hPa 0,0 mm 5,9 km/h (2 Bft) NO 37 0 min 0,000 mm 0,8 UV-I 95 W/m 9,1 C 8,0 km/h (2 Bft)
20.09.2016 13:53 10,3 C 10,3 C 92 % 1016,7 hPa 0,0 mm 4,6 km/h (1 Bft) N-NO 28 0 min 0,000 mm 0,8 UV-I 95 W/m 9,1 C 8,0 km/h (2 Bft)
20.09.2016 13:54 10,3 C 10,3 C 92 % 1016,7 hPa 0,0 mm 1,1 km/h (1 Bft) N-NO 29 0 min 0,000 mm 0,8 UV-I 97 W/m 9,1 C 3,2 km/h (1 Bft)
20.09.2016 13:55 10,3 C 10,3 C 92 % 1016,7 hPa 0,0 mm 3,1 km/h (1 Bft) N 355 0 min 0,000 mm 0,8 UV-I 97 W/m 9,1 C 4,8 km/h (1 Bft)
20.09.2016 13:56 10,3 C 10,3 C 92 % 1016,7 hPa 0,0 mm 1,9 km/h (1 Bft) N 10 0 min 0,000 mm 0,8 UV-I 98 W/m 9,1 C 4,8 km/h (1 Bft)
20.09.2016 13:57 10,4 C 10,4 C 92 % 1016,6 hPa 0,0 mm 2,2 km/h (1 Bft) N-NO 20 0 min 0,000 mm 0,8 UV-I 98 W/m 9,2 C 3,2 km/h (1 Bft)
20.09.2016 13:58 10,4 C 10,4 C 92 % 1016,7 hPa 0,0 mm 1,4 km/h (1 Bft) N-NO 20 0 min 0,000 mm 0,8 UV-I 98 W/m 9,2 C 3,2 km/h (1 Bft)
20.09.2016 13:59 10,4 C 10,4 C 92 % 1016,6 hPa 0,0 mm 1,3 km/h (1 Bft) N-NO 23 0 min 0,000 mm 0,8 UV-I 104 W/m 9,2 C 3,2 km/h (1 Bft)
20.09.2016 14:00 10,4 C 10,4 C 92 % 1016,6 hPa 0,0 mm 3,0 km/h (1 Bft) O-SO 104 0 min 0,000 mm 0,9 UV-I 109 W/m 9,2 C 4,8 km/h (1 Bft)
20.09.2016 14:01 10,4 C 10,4 C 91 % 1016,6 hPa 0,0 mm 4,6 km/h (1 Bft) N-NO 25 0 min 0,050 mm 1,0 UV-I 116 W/m 9,0 C 6,4 km/h (2 Bft)
20.09.2016 14:02 10,4 C 10,4 C 92 % 1016,6 hPa 0,0 mm 5,0 km/h (1 Bft) NO 34 0 min 0,000 mm 1,0 UV-I 123 W/m 9,2 C 9,7 km/h (2 Bft)
20.09.2016 14:03 10,4 C 10,5 C 91 % 1016,6 hPa 0,0 mm 6,5 km/h (2 Bft) NO 42 0 min 0,000 mm 1,1 UV-I 130 W/m 9,0 C 9,7 km/h (2 Bft)
20.09.2016 14:04 10,4 C 10,4 C 90 % 1016,6 hPa 0,0 mm 6,1 km/h (2 Bft) N-NO 32 0 min 0,000 mm 1,2 UV-I 137 W/m 8,8 C 9,7 km/h (2 Bft)
20.09.2016 14:05 10,4 C 10,5 C 91 % 1016,6 hPa 0,0 mm 5,9 km/h (2 Bft) O 88 0 min 0,000 mm 1,2 UV-I 141 W/m 9,0 C 8,0 km/h (2 Bft)
20.09.2016 14:06 10,5 C 10,5 C 91 % 1016,6 hPa 0,0 mm 6,7 km/h (2 Bft) O 95 0 min 0,000 mm 1,2 UV-I 139 W/m 9,1 C 9,7 km/h (2 Bft)
20.09.2016 14:07 10,5 C 10,5 C 91 % 1016,5 hPa 0,0 mm 3,0 km/h (1 Bft) O-NO 65 0 min 0,000 mm 1,1 UV-I 137 W/m 9,1 C 4,8 km/h (1 Bft)
20.09.2016 14:08 10,6 C 10,6 C 91 % 1016,5 hPa 0,0 mm 2,7 km/h (1 Bft) NO 39 0 min 0,000 mm 1,1 UV-I 137 W/m 9,2 C 4,8 km/h (1 Bft)
20.09.2016 14:09 10,6 C 10,6 C 92 % 1016,5 hPa 0,0 mm 4,8 km/h (1 Bft) O-NO 78 0 min 0,000 mm 1,1 UV-I 137 W/m 9,4 C 8,0 km/h (2 Bft)
20.09.2016 14:10 10,6 C 10,6 C 91 % 1016,5 hPa 0,0 mm 1,6 km/h (1 Bft) N-NO 25 0 min 0,000 mm 1,1 UV-I 141 W/m 9,2 C 3,2 km/h (1 Bft)
20.09.2016 14:11 10,7 C 10,7 C 91 % 1016,5 hPa 0,0 mm 0,4 km/h (0 Bft) N-NO 25 0 min 0,000 mm 1,2 UV-I 142 W/m 9,3 C 3,2 km/h (1 Bft)
20.09.2016 14:12 10,8 C 10,8 C 91 % 1016,5 hPa 0,0 mm 4,7 km/h (1 Bft) NO 36 0 min 0,000 mm 1,2 UV-I 148 W/m 9,4 C 6,4 km/h (2 Bft)
20.09.2016 14:13 10,8 C 10,8 C 90 % 1016,4 hPa 0,0 mm 4,1 km/h (1 Bft) N 355 0 min 0,000 mm 1,3 UV-I 155 W/m 9,2 C 4,8 km/h (1 Bft)
20.09.2016 14:14 10,8 C 10,8 C 90 % 1016,5 hPa 0,0 mm 6,6 km/h (2 Bft) N-NO 24 0 min 0,000 mm 1,3 UV-I 162 W/m 9,2 C 9,7 km/h (2 Bft)
20.09.2016 14:15 10,8 C 10,8 C 90 % 1016,4 hPa 0,0 mm 4,1 km/h (1 Bft) NO 37 0 min 0,000 mm 1,4 UV-I 169 W/m 9,2 C 9,7 km/h (2 Bft)
20.09.2016 14:16 10,8 C 10,8 C 89 % 1016,5 hPa 0,0 mm 7,0 km/h (2 Bft) N 11 0 min 0,000 mm 1,4 UV-I 176 W/m 9,1 C 9,7 km/h (2 Bft)
20.09.2016 14:17 10,8 C 10,8 C 90 % 1016,4 hPa 0,0 mm 3,9 km/h (1 Bft) N 11 0 min 0,000 mm 1,4 UV-I 176 W/m 9,2 C 4,8 km/h (1 Bft)
20.09.2016 14:18 10,8 C 10,8 C 90 % 1016,4 hPa 0,0 mm 3,6 km/h (1 Bft) N-NO 19 0 min 0,000 mm 1,4 UV-I 174 W/m 9,2 C 4,8 km/h (1 Bft)
20.09.2016 14:19 10,9 C 10,9 C 90 % 1016,5 hPa 0,0 mm 2,8 km/h (1 Bft) N-NO 24 0 min 0,000 mm 1,4 UV-I 172 W/m 9,3 C 4,8 km/h (1 Bft)
20.09.2016 14:20 10,9 C 10,9 C 90 % 1016,5 hPa 0,0 mm 3,4 km/h (1 Bft) N 5 0 min 0,000 mm 1,4 UV-I 172 W/m 9,3 C 6,4 km/h (2 Bft)
20.09.2016 14:21 10,9 C 10,9 C 90 % 1016,5 hPa 0,0 mm 2,8 km/h (1 Bft) NO 45 0 min 0,000 mm 1,4 UV-I 171 W/m 9,3 C 4,8 km/h (1 Bft)
20.09.2016 14:22 10,9 C 10,9 C 89 % 1016,5 hPa 0,0 mm 4,4 km/h (1 Bft) NO 40 0 min 0,000 mm 1,4 UV-I 171 W/m 9,2 C 8,0 km/h (2 Bft)
20.09.2016 14:23 10,9 C 10,9 C 90 % 1016,5 hPa 0,0 mm 4,6 km/h (1 Bft) NO 46 0 min 0,000 mm 1,4 UV-I 174 W/m 9,3 C 6,4 km/h (2 Bft)
20.09.2016 14:24 10,9 C 10,9 C 89 % 1016,5 hPa 0,0 mm 4,0 km/h (1 Bft) N-NO 30 0 min 0,000 mm 1,4 UV-I 174 W/m 9,2 C 6,4 km/h (2 Bft)
20.09.2016 14:25 10,8 C 10,9 C 89 % 1016,5 hPa 0,0 mm 2,3 km/h (1 Bft) N-NO 19 0 min 0,000 mm 1,4 UV-I 174 W/m 9,1 C 4,8 km/h (1 Bft)
20.09.2016 14:26 10,8 C 10,8 C 89 % 1016,5 hPa 0,0 mm 4,0 km/h (1 Bft) NO 46 0 min 0,000 mm 1,3 UV-I 171 W/m 9,1 C 9,7 km/h (2 Bft)
20.09.2016 14:27 10,8 C 10,9 C 89 % 1016,5 hPa 0,0 mm 5,0 km/h (1 Bft) N-NO 27 0 min 0,000 mm 1,3 UV-I 171 W/m 9,1 C 6,4 km/h (2 Bft)
20.09.2016 14:28 10,9 C 10,9 C 89 % 1016,5 hPa 0,0 mm 3,8 km/h (1 Bft) NO 42 0 min 0,000 mm 1,4 UV-I 172 W/m 9,2 C 6,4 km/h (2 Bft)
20.09.2016 14:29 10,9 C 10,9 C 90 % 1016,5 hPa 0,0 mm 4,0 km/h (1 Bft) NO 51 0 min 0,000 mm 1,4 UV-I 176 W/m 9,3 C 6,4 km/h (2 Bft)
20.09.2016 14:30 11,0 C 11,0 C 89 % 1016,5 hPa 0,0 mm 4,1 km/h (1 Bft) N-NO 33 0 min 0,000 mm 1,4 UV-I 179 W/m 9,3 C 4,8 km/h (1 Bft)
20.09.2016 14:31 11,0 C 11,0 C 89 % 1016,4 hPa 0,0 mm 2,1 km/h (1 Bft) N-NO 33 0 min 0,000 mm 1,5 UV-I 183 W/m 9,3 C 3,2 km/h (1 Bft)
20.09.2016 14:32 11,1 C 11,1 C 89 % 1016,5 hPa 0,0 mm 3,4 km/h (1 Bft) N-NO 32 0 min 0,000 mm 1,5 UV-I 186 W/m 9,4 C 4,8 km/h (1 Bft)
20.09.2016 14:33 11,1 C 11,1 C 89 % 1016,4 hPa 0,0 mm 2,7 km/h (1 Bft) N 351 0 min 0,000 mm 1,5 UV-I 188 W/m 9,4 C 4,8 km/h (1 Bft)
20.09.2016 14:34 11,2 C 11,2 C 90 % 1016,4 hPa 0,0 mm 1,7 km/h (1 Bft) N 360 0 min 0,000 mm 1,5 UV-I 183 W/m 9,6 C 4,8 km/h (1 Bft)
20.09.2016 14:35 11,3 C 11,3 C 89 % 1016,4 hPa 0,0 mm 3,2 km/h (1 Bft) N 355 0 min 0,000 mm 1,4 UV-I 178 W/m 9,6 C 4,8 km/h (1 Bft)
20.09.2016 14:36 11,3 C 11,3 C 89 % 1016,4 hPa 0,0 mm 2,1 km/h (1 Bft) N-NO 29 0 min 0,000 mm 1,4 UV-I 169 W/m 9,6 C 4,8 km/h (1 Bft)
20.09.2016 14:37 11,3 C 11,3 C 88 % 1016,4 hPa 0,0 mm 4,4 km/h (1 Bft) N-NO 26 0 min 0,000 mm 1,3 UV-I 163 W/m 9,4 C 6,4 km/h (2 Bft)
20.09.2016 14:38 11,3 C 11,3 C 88 % 1016,4 hPa 0,0 mm 4,8 km/h (1 Bft) N-NO 13 0 min 0,000 mm 1,3 UV-I 163 W/m 9,4 C 8,0 km/h (2 Bft)
20.09.2016 14:39 11,3 C 11,3 C 88 % 1016,4 hPa 0,0 mm 1,9 km/h (1 Bft) N-NO 13 0 min 0,000 mm 1,3 UV-I 160 W/m 9,4 C 4,8 km/h (1 Bft)
20.09.2016 14:40 11,3 C 11,3 C 88 % 1016,3 hPa 0,0 mm 2,2 km/h (1 Bft) N-NO 13 0 min 0,000 mm 1,3 UV-I 153 W/m 9,4 C 4,8 km/h (1 Bft)
20.09.2016 14:41 11,3 C 11,3 C 89 % 1016,4 hPa 0,0 mm 4,1 km/h (1 Bft) O-NO 65 0 min 0,000 mm 1,2 UV-I 148 W/m 9,6 C 6,4 km/h (2 Bft)
20.09.2016 14:42 11,4 C 11,4 C 90 % 1016,4 hPa 0,0 mm 4,0 km/h (1 Bft) O-NO 60 0 min 0,000 mm 1,2 UV-I 149 W/m 9,8 C 6,4 km/h (2 Bft)
20.09.2016 14:43 11,3 C 11,4 C 88 % 1016,3 hPa 0,0 mm 5,7 km/h (1 Bft) NO 48 0 min 0,000 mm 1,3 UV-I 151 W/m 9,4 C 8,0 km/h (2 Bft)
20.09.2016 14:44 11,4 C 11,4 C 89 % 1016,4 hPa 0,0 mm 6,1 km/h (2 Bft) N-NO 15 0 min 0,000 mm 1,3 UV-I 155 W/m 9,7 C 8,0 km/h (2 Bft)
20.09.2016 14:45 11,3 C 11,4 C 87 % 1016,3 hPa 0,0 mm 2,9 km/h (1 Bft) N-NO 15 0 min 0,000 mm 1,3 UV-I 155 W/m 9,2 C 4,8 km/h (1 Bft)
20.09.2016 14:46 11,3 C 11,3 C 88 % 1016,3 hPa 0,0 mm 4,8 km/h (1 Bft) O-NO 59 0 min 0,000 mm 1,2 UV-I 148 W/m 9,4 C 6,4 km/h (2 Bft)
20.09.2016 14:47 11,3 C 11,3 C 87 % 1016,3 hPa 0,0 mm 4,9 km/h (1 Bft) O-NO 63 0 min 0,000 mm 1,2 UV-I 142 W/m 9,2 C 6,4 km/h (2 Bft)
20.09.2016 14:48 11,3 C 11,3 C 88 % 1016,3 hPa 0,0 mm 1,9 km/h (1 Bft) O-NO 63 0 min 0,000 mm 1,2 UV-I 141 W/m 9,4 C 3,2 km/h (1 Bft)
20.09.2016 14:49 11,3 C 11,3 C 89 % 1016,3 hPa 0,0 mm 1,7 km/h (1 Bft) O-NO 63 0 min 0,000 mm 1,1 UV-I 139 W/m 9,6 C 3,2 km/h (1 Bft)
20.09.2016 14:50 11,3 C 11,3 C 89 % 1016,3 hPa 0,0 mm 2,7 km/h (1 Bft) NO 46 0 min 0,000 mm 1,1 UV-I 139 W/m 9,6 C 6,4 km/h (2 Bft)
20.09.2016 14:51 11,3 C 11,3 C 88 % 1016,3 hPa 0,0 mm 6,6 km/h (2 Bft) NO 40 0 min 0,000 mm 1,1 UV-I 142 W/m 9,4 C 8,0 km/h (2 Bft)
20.09.2016 14:52 11,3 C 11,3 C 88 % 1016,3 hPa 0,0 mm 6,2 km/h (2 Bft) NO 36 0 min 0,000 mm 1,1 UV-I 146 W/m 9,4 C 8,0 km/h (2 Bft)
20.09.2016 14:53 11,3 C 11,3 C 88 % 1016,3 hPa 0,0 mm 4,8 km/h (1 Bft) O-NO 78 0 min 0,000 mm 1,2 UV-I 149 W/m 9,4 C 6,4 km/h (2 Bft)
20.09.2016 14:54 11,3 C 11,3 C 88 % 1016,4 hPa 0,0 mm 4,1 km/h (1 Bft) O-NO 59 0 min 0,000 mm 1,3 UV-I 155 W/m 9,4 C 6,4 km/h (2 Bft)
20.09.2016 14:55 11,3 C 11,3 C 88 % 1016,3 hPa 0,0 mm 4,8 km/h (1 Bft) O-NO 69 0 min 0,000 mm 1,3 UV-I 165 W/m 9,4 C 6,4 km/h (2 Bft)
20.09.2016 14:56 11,2 C 11,3 C 88 % 1016,4 hPa 0,0 mm 2,6 km/h (1 Bft) O-NO 69 0 min 0,000 mm 1,4 UV-I 171 W/m 9,3 C 3,2 km/h (1 Bft)
20.09.2016 14:57 11,3 C 11,3 C 89 % 1016,3 hPa 0,0 mm 2,2 km/h (1 Bft) O-NO 69 0 min 0,000 mm 1,4 UV-I 186 W/m 9,6 C 4,8 km/h (1 Bft)
20.09.2016 14:58 11,3 C 11,3 C 89 % 1016,3 hPa 0,0 mm 3,5 km/h (1 Bft) O-NO 75 0 min 0,000 mm 1,6 UV-I 197 W/m 9,6 C 4,8 km/h (1 Bft)
20.09.2016 14:59 11,3 C 11,3 C 89 % 1016,3 hPa 0,0 mm 1,9 km/h (1 Bft) O-NO 73 0 min 0,000 mm 1,7 UV-I 206 W/m 9,6 C 3,2 km/h (1 Bft)
20.09.2016 15:00 11,4 C 11,4 C 89 % 1016,3 hPa 0,0 mm 3,6 km/h (1 Bft) NO 46 0 min 0,000 mm 1,7 UV-I 213 W/m 9,7 C 4,8 km/h (1 Bft)
20.09.2016 15:01 11,5 C 11,5 C 89 % 1016,3 hPa 0,0 mm 4,6 km/h (1 Bft) NO 49 0 min 0,076 mm 1,7 UV-I 218 W/m 9,8 C 6,4 km/h (2 Bft)
20.09.2016 15:02 11,6 C 11,6 C 88 % 1016,3 hPa 0,0 mm 2,9 km/h (1 Bft) N-NO 14 0 min 0,001 mm 1,7 UV-I 221 W/m 9,7 C 4,8 km/h (1 Bft)
20.09.2016 15:03 11,6 C 11,6 C 88 % 1016,3 hPa 0,0 mm 3,4 km/h (1 Bft) O 80 0 min 0,000 mm 1,8 UV-I 230 W/m 9,7 C 8,0 km/h (2 Bft)
20.09.2016 15:04 11,6 C 11,6 C 88 % 1016,3 hPa 0,0 mm 6,4 km/h (2 Bft) O-NO 67 0 min 0,000 mm 1,8 UV-I 232 W/m 9,7 C 8,0 km/h (2 Bft)
20.09.2016 15:05 11,6 C 11,6 C 86 % 1016,3 hPa 0,0 mm 4,2 km/h (1 Bft) O-NO 77 0 min 0,000 mm 1,8 UV-I 234 W/m 9,3 C 8,0 km/h (2 Bft)
20.09.2016 15:06 11,6 C 11,6 C 87 % 1016,3 hPa 0,0 mm 3,8 km/h (1 Bft) N-NO 13 0 min 0,000 mm 1,9 UV-I 237 W/m 9,5 C 8,0 km/h (2 Bft)
20.09.2016 15:07 11,7 C 11,7 C 88 % 1016,3 hPa 0,0 mm 4,5 km/h (1 Bft) N-NO 22 0 min 0,000 mm 1,8 UV-I 237 W/m 9,8 C 8,0 km/h (2 Bft)
20.09.2016 15:08 11,7 C 11,7 C 86 % 1016,3 hPa 0,0 mm 4,5 km/h (1 Bft) N-NO 15 0 min 0,000 mm 1,8 UV-I 232 W/m 9,4 C 6,4 km/h (2 Bft)
20.09.2016 15:09 11,7 C 11,7 C 86 % 1016,3 hPa 0,0 mm 4,6 km/h (1 Bft) N-NO 32 0 min 0,000 mm 1,8 UV-I 221 W/m 9,4 C 6,4 km/h (2 Bft)
20.09.2016 15:10 11,7 C 11,7 C 86 % 1016,2 hPa 0,0 mm 2,5 km/h (1 Bft) N-NO 32 0 min 0,000 mm 1,7 UV-I 195 W/m 9,4 C 6,4 km/h (2 Bft)
20.09.2016 15:11 11,7 C 11,7 C 86 % 1016,3 hPa 0,0 mm 4,0 km/h (1 Bft) NO 50 0 min 0,000 mm 1,5 UV-I 186 W/m 9,4 C 6,4 km/h (2 Bft)
20.09.2016 15:12 11,7 C 11,7 C 86 % 1016,3 hPa 0,0 mm 2,5 km/h (1 Bft) NO 51 0 min 0,000 mm 1,5 UV-I 181 W/m 9,4 C 4,8 km/h (1 Bft)
20.09.2016 15:13 11,6 C 11,7 C 86 % 1016,3 hPa 0,0 mm 0,1 km/h (0 Bft) NO 51 0 min 0,000 mm 1,5 UV-I 176 W/m 9,3 C 1,6 km/h (1 Bft)
20.09.2016 15:14 11,7 C 11,7 C 88 % 1016,3 hPa 0,0 mm 1,0 km/h (0 Bft) NO 51 0 min 0,000 mm 1,4 UV-I 171 W/m 9,8 C 1,6 km/h (1 Bft)
20.09.2016 15:15 11,7 C 11,7 C 88 % 1016,3 hPa 0,0 mm 4,2 km/h (1 Bft) O-NO 62 0 min 0,000 mm 1,4 UV-I 156 W/m 9,8 C 6,4 km/h (2 Bft)
20.09.2016 15:16 11,7 C 11,7 C 86 % 1016,3 hPa 0,0 mm 2,1 km/h (1 Bft) NO 56 0 min 0,000 mm 1,2 UV-I 149 W/m 9,4 C 3,2 km/h (1 Bft)
20.09.2016 15:17 11,6 C 11,7 C 85 % 1016,3 hPa 0,0 mm 2,0 km/h (1 Bft) NO 56 0 min 0,000 mm 1,2 UV-I 146 W/m 9,2 C 3,2 km/h (1 Bft)
20.09.2016 15:18 11,6 C 11,6 C 86 % 1016,3 hPa 0,0 mm 1,5 km/h (1 Bft) NO 56 0 min 0,000 mm 1,2 UV-I 141 W/m 9,3 C 3,2 km/h (1 Bft)
20.09.2016 15:19 11,6 C 11,6 C 85 % 1016,3 hPa 0,0 mm 0,8 km/h (0 Bft) NO 56 0 min 0,000 mm 1,1 UV-I 139 W/m 9,2 C 1,6 km/h (1 Bft)
20.09.2016 15:20 11,5 C 11,6 C 86 % 1016,3 hPa 0,0 mm 2,4 km/h (1 Bft) O-NO 59 0 min 0,000 mm 1,1 UV-I 139 W/m 9,2 C 3,2 km/h (1 Bft)
20.09.2016 15:21 11,6 C 11,6 C 87 % 1016,3 hPa 0,0 mm 4,3 km/h (1 Bft) NO 43 0 min 0,000 mm 1,1 UV-I 148 W/m 9,5 C 6,4 km/h (2 Bft)
20.09.2016 15:22 11,6 C 11,6 C 87 % 1016,3 hPa 0,0 mm 4,4 km/h (1 Bft) NO 48 0 min 0,000 mm 1,2 UV-I 155 W/m 9,5 C 6,4 km/h (2 Bft)
20.09.2016 15:23 11,6 C 11,7 C 86 % 1016,3 hPa 0,0 mm 5,0 km/h (1 Bft) NO 55 0 min 0,000 mm 1,3 UV-I 162 W/m 9,3 C 8,0 km/h (2 Bft)
20.09.2016 15:24 11,7 C 11,7 C 86 % 1016,3 hPa 0,0 mm 6,6 km/h (2 Bft) O-NO 64 0 min 0,000 mm 1,3 UV-I 171 W/m 9,4 C 8,0 km/h (2 Bft)
20.09.2016 15:25 11,7 C 11,7 C 86 % 1016,3 hPa 0,0 mm 4,0 km/h (1 Bft) NO 42 0 min 0,000 mm 1,4 UV-I 176 W/m 9,4 C 6,4 km/h (2 Bft)
20.09.2016 15:26 11,7 C 11,7 C 85 % 1016,2 hPa 0,0 mm 6,0 km/h (2 Bft) NO 42 0 min 0,000 mm 1,4 UV-I 179 W/m 9,3 C 8,0 km/h (2 Bft)
20.09.2016 15:27 11,6 C 11,7 C 85 % 1016,2 hPa 0,0 mm 4,0 km/h (1 Bft) O-NO 71 0 min 0,000 mm 1,4 UV-I 179 W/m 9,2 C 6,4 km/h (2 Bft)
20.09.2016 15:28 11,6 C 11,6 C 84 % 1016,2 hPa 0,0 mm 3,4 km/h (1 Bft) NO 43 0 min 0,000 mm 1,5 UV-I 179 W/m 9,0 C 4,8 km/h (1 Bft)
20.09.2016 15:29 11,6 C 11,6 C 84 % 1016,2 hPa 0,0 mm 5,5 km/h (1 Bft) O-NO 70 0 min 0,000 mm 1,5 UV-I 176 W/m 9,0 C 8,0 km/h (2 Bft)
20.09.2016 15:30 11,6 C 11,6 C 85 % 1016,2 hPa 0,0 mm 2,7 km/h (1 Bft) NO 48 0 min 0,000 mm 1,4 UV-I 172 W/m 9,2 C 6,4 km/h (2 Bft)
20.09.2016 15:31 11,6 C 11,6 C 84 % 1016,2 hPa 0,0 mm 4,9 km/h (1 Bft) NO 53 0 min 0,000 mm 1,4 UV-I 169 W/m 9,0 C 8,0 km/h (2 Bft)
20.09.2016 15:32 11,6 C 11,7 C 84 % 1016,2 hPa 0,0 mm 3,8 km/h (1 Bft) O-NO 57 0 min 0,000 mm 1,4 UV-I 163 W/m 9,0 C 6,4 km/h (2 Bft)
20.09.2016 15:33 11,7 C 11,7 C 84 % 1016,2 hPa 0,0 mm 4,6 km/h (1 Bft) O-NO 59 0 min 0,000 mm 1,4 UV-I 165 W/m 9,1 C 8,0 km/h (2 Bft)
20.09.2016 15:34 11,7 C 11,7 C 84 % 1016,2 hPa 0,0 mm 2,4 km/h (1 Bft) O-NO 59 0 min 0,000 mm 1,4 UV-I 167 W/m 9,1 C 3,2 km/h (1 Bft)
20.09.2016 15:35 11,7 C 11,7 C 84 % 1016,2 hPa 0,0 mm 2,2 km/h (1 Bft) O-NO 59 0 min 0,000 mm 1,5 UV-I 171 W/m 9,1 C 3,2 km/h (1 Bft)
20.09.2016 15:36 11,7 C 11,7 C 84 % 1016,2 hPa 0,0 mm 1,9 km/h (1 Bft) O-NO 59 0 min 0,000 mm 1,5 UV-I 171 W/m 9,1 C 3,2 km/h (1 Bft)
20.09.2016 15:37 11,8 C 11,8 C 86 % 1016,1 hPa 0,0 mm 3,2 km/h (1 Bft) NO 34 0 min 0,000 mm 1,5 UV-I 174 W/m 9,5 C 4,8 km/h (1 Bft)
20.09.2016 15:38 11,8 C 11,8 C 84 % 1016,2 hPa 0,0 mm 5,3 km/h (1 Bft) N-NO 15 0 min 0,000 mm 1,5 UV-I 181 W/m 9,2 C 6,4 km/h (2 Bft)
20.09.2016 15:39 11,8 C 11,8 C 84 % 1016,1 hPa 0,0 mm 5,3 km/h (1 Bft) O-NO 59 0 min 0,000 mm 1,5 UV-I 185 W/m 9,2 C 6,4 km/h (2 Bft)
20.09.2016 15:40 11,8 C 11,8 C 85 % 1016,2 hPa 0,0 mm 3,2 km/h (1 Bft) O 90 0 min 0,000 mm 1,5 UV-I 186 W/m 9,4 C 4,8 km/h (1 Bft)
20.09.2016 15:41 11,7 C 11,8 C 86 % 1016,1 hPa 0,0 mm 2,7 km/h (1 Bft) O 90 0 min 0,000 mm 1,5 UV-I 188 W/m 9,4 C 4,8 km/h (1 Bft)
20.09.2016 15:42 11,7 C 11,7 C 87 % 1016,2 hPa 0,0 mm 1,7 km/h (1 Bft) O 90 0 min 0,000 mm 1,5 UV-I 190 W/m 9,6 C 3,2 km/h (1 Bft)
20.09.2016 15:43 11,6 C 11,7 C 87 % 1016,1 hPa 0,0 mm 2,2 km/h (1 Bft) O 80 0 min 0,000 mm 1,5 UV-I 190 W/m 9,5 C 3,2 km/h (1 Bft)
20.09.2016 15:44 11,6 C 11,6 C 87 % 1016,1 hPa 0,0 mm 1,0 km/h (0 Bft) O 80 0 min 0,000 mm 1,5 UV-I 186 W/m 9,5 C 1,6 km/h (1 Bft)
20.09.2016 15:45 11,6 C 11,6 C 87 % 1016,1 hPa 0,0 mm 2,7 km/h (1 Bft) O-NO 65 0 min 0,000 mm 1,4 UV-I 181 W/m 9,5 C 4,8 km/h (1 Bft)
20.09.2016 15:46 11,7 C 11,7 C 86 % 1016,1 hPa 0,0 mm 3,6 km/h (1 Bft) NO 55 0 min 0,000 mm 1,4 UV-I 176 W/m 9,4 C 4,8 km/h (1 Bft)
20.09.2016 15:47 11,7 C 11,7 C 85 % 1016,1 hPa 0,0 mm 0,8 km/h (0 Bft) NO 55 0 min 0,000 mm 1,3 UV-I 167 W/m 9,3 C 3,2 km/h (1 Bft)
20.09.2016 15:48 11,7 C 11,7 C 86 % 1016,1 hPa 0,0 mm 0,9 km/h (0 Bft) NO 55 0 min 0,000 mm 1,3 UV-I 163 W/m 9,4 C 1,6 km/h (1 Bft)
20.09.2016 15:49 11,7 C 11,7 C 86 % 1016,1 hPa 0,0 mm 1,6 km/h (1 Bft) O-NO 67 0 min 0,000 mm 1,3 UV-I 163 W/m 9,4 C 3,2 km/h (1 Bft)
20.09.2016 15:50 11,8 C 11,8 C 86 % 1016,1 hPa 0,0 mm 4,5 km/h (1 Bft) N-NO 16 0 min 0,000 mm 1,3 UV-I 118 W/m 9,5 C 6,4 km/h (2 Bft)
20.09.2016 15:51 11,8 C 11,8 C 86 % 1016,1 hPa 0,0 mm 2,7 km/h (1 Bft) N-NO 21 0 min 0,000 mm 1,3 UV-I 172 W/m 9,5 C 4,8 km/h (1 Bft)
20.09.2016 15:52 11,8 C 11,8 C 87 % 1016,1 hPa 0,0 mm 6,1 km/h (2 Bft) O-SO 111 0 min 0,000 mm 1,4 UV-I 178 W/m 9,7 C 9,7 km/h (2 Bft)
20.09.2016 15:53 11,8 C 11,8 C 86 % 1016,1 hPa 0,0 mm 3,6 km/h (1 Bft) O-SO 111 0 min 0,000 mm 1,4 UV-I 179 W/m 9,5 C 4,8 km/h (1 Bft)
20.09.2016 15:54 11,8 C 11,8 C 87 % 1016,0 hPa 0,0 mm 1,2 km/h (1 Bft) O-SO 111 0 min 0,000 mm 1,3 UV-I 179 W/m 9,7 C 3,2 km/h (1 Bft)
20.09.2016 15:55 11,8 C 11,8 C 87 % 1016,0 hPa 0,0 mm 2,6 km/h (1 Bft) O-NO 69 0 min 0,000 mm 1,3 UV-I 176 W/m 9,7 C 4,8 km/h (1 Bft)
20.09.2016 15:56 11,8 C 11,8 C 86 % 1016,1 hPa 0,0 mm 2,5 km/h (1 Bft) O-NO 59 0 min 0,000 mm 1,3 UV-I 160 W/m 9,5 C 4,8 km/h (1 Bft)
20.09.2016 15:57 11,8 C 11,8 C 85 % 1016,0 hPa 0,0 mm 3,6 km/h (1 Bft) O-NO 59 0 min 0,000 mm 1,1 UV-I 153 W/m 9,4 C 4,8 km/h (1 Bft)
20.09.2016 15:58 11,8 C 11,8 C 85 % 1016,0 hPa 0,0 mm 3,2 km/h (1 Bft) O-NO 59 0 min 0,000 mm 1,1 UV-I 148 W/m 9,4 C 4,8 km/h (1 Bft)
20.09.2016 15:59 11,8 C 11,8 C 85 % 1016,1 hPa 0,0 mm 3,2 km/h (1 Bft) NO 45 0 min 0,000 mm 1,1 UV-I 144 W/m 9,4 C 4,8 km/h (1 Bft)
20.09.2016 16:00 11,8 C 11,8 C 85 % 1016,0 hPa 0,0 mm 4,2 km/h (1 Bft) O-NO 65 0 min 0,000 mm 1,1 UV-I 142 W/m 9,4 C 8,0 km/h (2 Bft)
20.09.2016 16:01 11,8 C 11,8 C 85 % 1016,0 hPa 0,0 mm 4,6 km/h (1 Bft) O-NO 67 0 min 0,101 mm 1,1 UV-I 141 W/m 9,4 C 6,4 km/h (2 Bft)
20.09.2016 16:02 11,8 C 11,8 C 86 % 1016,0 hPa 0,0 mm 2,1 km/h (1 Bft) O-NO 67 0 min 0,000 mm 1,0 UV-I 135 W/m 9,5 C 3,2 km/h (1 Bft)
20.09.2016 16:03 11,8 C 11,8 C 86 % 1016,0 hPa 0,0 mm 3,1 km/h (1 Bft) NO 40 0 min 0,000 mm 0,9 UV-I 128 W/m 9,5 C 4,8 km/h (1 Bft)
20.09.2016 16:04 11,9 C 11,9 C 86 % 1016,0 hPa 0,0 mm 1,3 km/h (1 Bft) NO 40 0 min 0,000 mm 0,9 UV-I 120 W/m 9,6 C 1,6 km/h (1 Bft)
20.09.2016 16:05 11,9 C 11,9 C 87 % 1016,1 hPa 0,0 mm 1,3 km/h (1 Bft) NO 40 0 min 0,000 mm 0,8 UV-I 113 W/m 9,8 C 3,2 km/h (1 Bft)
20.09.2016 16:06 11,9 C 11,9 C 87 % 1016,1 hPa 0,0 mm 4,7 km/h (1 Bft) NO 45 0 min 0,000 mm 0,7 UV-I 113 W/m 9,8 C 6,4 km/h (2 Bft)
20.09.2016 16:07 11,9 C 11,9 C 88 % 1016,1 hPa 0,0 mm 5,0 km/h (1 Bft) O-NO 60 0 min 0,000 mm 0,6 UV-I 83 W/m 10,0 C 6,4 km/h (2 Bft)
20.09.2016 16:08 11,9 C 11,9 C 88 % 1016,1 hPa 0,0 mm 5,5 km/h (1 Bft) O-NO 74 0 min 0,000 mm 0,6 UV-I 76 W/m 10,0 C 8,0 km/h (2 Bft)
20.09.2016 16:09 11,8 C 11,9 C 87 % 1016,1 hPa 0,0 mm 3,0 km/h (1 Bft) O-NO 74 0 min 0,000 mm 0,5 UV-I 72 W/m 9,7 C 4,8 km/h (1 Bft)
20.09.2016 16:10 11,8 C 11,8 C 88 % 1016,1 hPa 0,0 mm 2,2 km/h (1 Bft) O-NO 74 0 min 0,000 mm 0,5 UV-I 69 W/m 9,9 C 3,2 km/h (1 Bft)
20.09.2016 16:11 11,8 C 11,8 C 88 % 1016,0 hPa 0,0 mm 3,3 km/h (1 Bft) O-NO 74 0 min 0,000 mm 0,5 UV-I 67 W/m 9,9 C 4,8 km/h (1 Bft)
20.09.2016 16:12 11,7 C 11,8 C 89 % 1016,1 hPa 0,0 mm 2,5 km/h (1 Bft) O-SO 111 0 min 0,000 mm 0,5 UV-I 67 W/m 9,9 C 4,8 km/h (1 Bft)
20.09.2016 16:13 11,7 C 11,7 C 89 % 1016,1 hPa 0,0 mm 1,1 km/h (1 Bft) O-SO 111 0 min 0,000 mm 0,5 UV-I 65 W/m 9,9 C 1,6 km/h (1 Bft)
20.09.2016 16:14 11,7 C 11,7 C 88 % 1016,1 hPa 0,0 mm 4,6 km/h (1 Bft) NO 55 0 min 0,000 mm 0,5 UV-I 63 W/m 9,8 C 8,0 km/h (2 Bft)
20.09.2016 16:15 11,7 C 11,7 C 88 % 1016,1 hPa 0,0 mm 2,7 km/h (1 Bft) O-NO 72 0 min 0,000 mm 0,0 UV-I 62 W/m 9,8 C 6,4 km/h (2 Bft)
20.09.2016 16:16 11,6 C 11,7 C 89 % 1016,1 hPa 0,0 mm 0,3 km/h (0 Bft) O-NO 72 0 min 0,000 mm 0,0 UV-I 56 W/m 9,8 C 1,6 km/h (1 Bft)
20.09.2016 16:17 11,6 C 11,6 C 88 % 1016,1 hPa 0,0 mm 0,8 km/h (0 Bft) O-NO 72 0 min 0,000 mm 0,0 UV-I 51 W/m 9,7 C 1,6 km/h (1 Bft)
20.09.2016 16:18 11,6 C 11,6 C 89 % 1016,1 hPa 0,0 mm 2,0 km/h (1 Bft) O-NO 72 0 min 0,000 mm 0,0 UV-I 46 W/m 9,8 C 3,2 km/h (1 Bft)
20.09.2016 16:19 11,6 C 11,6 C 89 % 1016,1 hPa 0,0 mm 3,6 km/h (1 Bft) O-NO 72 0 min 0,000 mm 0,0 UV-I 44 W/m 9,8 C 6,4 km/h (2 Bft)
20.09.2016 16:20 11,6 C 11,6 C 89 % 1016,1 hPa 0,0 mm 0,2 km/h (0 Bft) O-NO 72 0 min 0,000 mm 0,0 UV-I 46 W/m 9,8 C 1,6 km/h (1 Bft)
20.09.2016 16:21 11,5 C 11,6 C 88 % 1016,1 hPa 0,0 mm 0,3 km/h (0 Bft) O-NO 72 0 min 0,000 mm 0,0 UV-I 47 W/m 9,6 C 1,6 km/h (1 Bft)
20.09.2016 16:22 11,4 C 11,5 C 88 % 1016,1 hPa 0,0 mm 1,0 km/h (0 Bft) O 86 0 min 0,000 mm 0,0 UV-I 51 W/m 9,5 C 3,2 km/h (1 Bft)
20.09.2016 16:23 11,4 C 11,4 C 89 % 1016,2 hPa 0,0 mm 0,8 km/h (0 Bft) O 86 0 min 0,000 mm 0,0 UV-I 53 W/m 9,7 C 3,2 km/h (1 Bft)
20.09.2016 16:24 11,4 C 11,4 C 89 % 1016,1 hPa 0,0 mm 1,3 km/h (1 Bft) O-NO 70 0 min 0,000 mm 0,0 UV-I 53 W/m 9,7 C 3,2 km/h (1 Bft)
20.09.2016 16:25 11,4 C 11,4 C 89 % 1016,2 hPa 0,0 mm 2,8 km/h (1 Bft) O-NO 70 0 min 0,000 mm 0,0 UV-I 54 W/m 9,7 C 3,2 km/h (1 Bft)
20.09.2016 16:26 11,4 C 11,5 C 89 % 1016,1 hPa 0,0 mm 2,7 km/h (1 Bft) NO 54 0 min 0,000 mm 0,0 UV-I 54 W/m 9,7 C 3,2 km/h (1 Bft)
20.09.2016 16:27 11,4 C 11,4 C 89 % 1016,1 hPa 0,0 mm 2,8 km/h (1 Bft) NO 55 0 min 0,000 mm 0,0 UV-I 56 W/m 9,7 C 4,8 km/h (1 Bft)
20.09.2016 16:28 11,4 C 11,4 C 89 % 1016,1 hPa 0,0 mm 4,2 km/h (1 Bft) NO 55 0 min 0,000 mm 0,0 UV-I 56 W/m 9,7 C 4,8 km/h (1 Bft)
20.09.2016 16:29 11,4 C 11,5 C 89 % 1016,1 hPa 0,0 mm 3,5 km/h (1 Bft) NO 55 0 min 0,000 mm 0,0 UV-I 56 W/m 9,7 C 4,8 km/h (1 Bft)
20.09.2016 16:30 11,4 C 11,4 C 89 % 1016,1 hPa 0,0 mm 3,2 km/h (1 Bft) NO 55 0 min 0,000 mm 0,0 UV-I 56 W/m 9,7 C 4,8 km/h (1 Bft)
20.09.2016 16:31 11,4 C 11,4 C 89 % 1016,2 hPa 0,0 mm 1,6 km/h (1 Bft) NO 55 0 min 0,000 mm 0,0 UV-I 54 W/m 9,7 C 3,2 km/h (1 Bft)
20.09.2016 16:32 11,4 C 11,4 C 90 % 1016,1 hPa 0,0 mm 1,3 km/h (1 Bft) NO 55 0 min 0,000 mm 0,0 UV-I 54 W/m 9,8 C 1,6 km/h (1 Bft)
20.09.2016 16:33 11,4 C 11,4 C 90 % 1016,1 hPa 0,0 mm 2,1 km/h (1 Bft) O-NO 68 0 min 0,000 mm 0,0 UV-I 51 W/m 9,8 C 4,8 km/h (1 Bft)
20.09.2016 16:34 11,4 C 11,4 C 89 % 1016,1 hPa 0,0 mm 2,1 km/h (1 Bft) O-NO 68 0 min 0,000 mm 0,0 UV-I 51 W/m 9,7 C 3,2 km/h (1 Bft)
20.09.2016 16:35 11,3 C 11,4 C 89 % 1016,1 hPa 0,0 mm 2,2 km/h (1 Bft) O-NO 68 0 min 0,000 mm 0,0 UV-I 46 W/m 9,6 C 3,2 km/h (1 Bft)
20.09.2016 16:36 11,4 C 11,4 C 90 % 1016,1 hPa 0,0 mm 3,4 km/h (1 Bft) O-NO 68 0 min 0,000 mm 0,0 UV-I 42 W/m 9,8 C 4,8 km/h (1 Bft)
20.09.2016 16:37 11,4 C 11,4 C 90 % 1016,1 hPa 0,0 mm 4,1 km/h (1 Bft) O-NO 71 0 min 0,000 mm 0,0 UV-I 37 W/m 9,8 C 4,8 km/h (1 Bft)
20.09.2016 16:38 11,3 C 11,4 C 89 % 1016,1 hPa 0,0 mm 3,7 km/h (1 Bft) NO 51 0 min 0,000 mm 0,0 UV-I 37 W/m 9,6 C 6,4 km/h (2 Bft)
20.09.2016 16:39 11,3 C 11,3 C 90 % 1016,2 hPa 0,0 mm 3,8 km/h (1 Bft) O-NO 69 0 min 0,000 mm 0,0 UV-I 40 W/m 9,7 C 6,4 km/h (2 Bft)
20.09.2016 16:40 11,3 C 11,3 C 90 % 1016,1 hPa 0,0 mm 3,0 km/h (1 Bft) O-NO 73 0 min 0,000 mm 0,0 UV-I 42 W/m 9,7 C 4,8 km/h (1 Bft)
20.09.2016 16:41 11,3 C 11,3 C 90 % 1016,1 hPa 0,0 mm 4,7 km/h (1 Bft) O-NO 65 0 min 0,000 mm 0,0 UV-I 44 W/m 9,7 C 6,4 km/h (2 Bft)
20.09.2016 16:42 11,3 C 11,3 C 90 % 1016,1 hPa 0,0 mm 3,8 km/h (1 Bft) NO 41 0 min 0,000 mm 0,0 UV-I 46 W/m 9,7 C 6,4 km/h (2 Bft)
20.09.2016 16:43 11,3 C 11,3 C 90 % 1016,2 hPa 0,0 mm 2,4 km/h (1 Bft) O 88 0 min 0,000 mm 0,0 UV-I 46 W/m 9,7 C 4,8 km/h (1 Bft)
20.09.2016 16:44 11,3 C 11,3 C 90 % 1016,2 hPa 0,0 mm 3,6 km/h (1 Bft) NO 53 0 min 0,000 mm 0,0 UV-I 46 W/m 9,7 C 4,8 km/h (1 Bft)
20.09.2016 16:45 11,3 C 11,3 C 90 % 1016,2 hPa 0,0 mm 2,8 km/h (1 Bft) NO 47 0 min 0,000 mm 0,0 UV-I 44 W/m 9,7 C 4,8 km/h (1 Bft)
20.09.2016 16:46 11,3 C 11,3 C 90 % 1016,2 hPa 0,0 mm 3,7 km/h (1 Bft) O-NO 60 0 min 0,000 mm 0,0 UV-I 44 W/m 9,7 C 4,8 km/h (1 Bft)
20.09.2016 16:47 11,2 C 11,3 C 90 % 1016,2 hPa 0,0 mm 4,0 km/h (1 Bft) O-NO 64 0 min 0,000 mm 0,0 UV-I 42 W/m 9,6 C 4,8 km/h (1 Bft)
20.09.2016 16:48 11,2 C 11,2 C 90 % 1016,2 hPa 0,0 mm 4,6 km/h (1 Bft) O-NO 67 0 min 0,000 mm 0,0 UV-I 39 W/m 9,6 C 6,4 km/h (2 Bft)
20.09.2016 16:49 11,2 C 11,2 C 90 % 1016,2 hPa 0,0 mm 2,3 km/h (1 Bft) O-NO 67 0 min 0,000 mm 0,0 UV-I 33 W/m 9,6 C 4,8 km/h (1 Bft)
20.09.2016 16:50 11,2 C 11,2 C 90 % 1016,2 hPa 0,0 mm 1,0 km/h (0 Bft) O-NO 67 0 min 0,000 mm 0,0 UV-I 32 W/m 9,6 C 1,6 km/h (1 Bft)
20.09.2016 16:51 11,2 C 11,2 C 90 % 1016,2 hPa 0,0 mm 4,2 km/h (1 Bft) NO 54 0 min 0,000 mm 0,0 UV-I 28 W/m 9,6 C 6,4 km/h (2 Bft)
20.09.2016 16:52 11,2 C 11,2 C 90 % 1016,2 hPa 0,0 mm 2,6 km/h (1 Bft) O-NO 75 0 min 0,000 mm 0,0 UV-I 28 W/m 9,6 C 6,4 km/h (2 Bft)
20.09.2016 16:53 11,2 C 11,2 C 90 % 1016,1 hPa 0,0 mm 1,4 km/h (1 Bft) O-NO 75 0 min 0,000 mm 0,0 UV-I 25 W/m 9,6 C 3,2 km/h (1 Bft)
20.09.2016 16:54 11,2 C 11,2 C 90 % 1016,2 hPa 0,0 mm 2,7 km/h (1 Bft) O-NO 75 0 min 0,000 mm 0,0 UV-I 25 W/m 9,6 C 4,8 km/h (1 Bft)
20.09.2016 16:55 11,2 C 11,2 C 90 % 1016,2 hPa 0,0 mm 3,7 km/h (1 Bft) O-NO 67 0 min 0,000 mm 0,0 UV-I 26 W/m 9,6 C 4,8 km/h (1 Bft)
20.09.2016 16:56 11,2 C 11,2 C 90 % 1016,2 hPa 0,0 mm 3,6 km/h (1 Bft) O 94 0 min 0,000 mm 0,0 UV-I 26 W/m 9,6 C 6,4 km/h (2 Bft)
20.09.2016 16:57 11,2 C 11,2 C 91 % 1016,2 hPa 0,0 mm 2,8 km/h (1 Bft) O 92 0 min 0,000 mm 0,0 UV-I 28 W/m 9,8 C 4,8 km/h (1 Bft)
20.09.2016 16:58 11,2 C 11,2 C 91 % 1016,2 hPa 0,0 mm 3,6 km/h (1 Bft) O-NO 73 0 min 0,000 mm 0,0 UV-I 28 W/m 9,8 C 4,8 km/h (1 Bft)
20.09.2016 16:59 11,1 C 11,2 C 91 % 1016,2 hPa 0,0 mm 3,4 km/h (1 Bft) O-NO 73 0 min 0,000 mm 0,0 UV-I 32 W/m 9,7 C 4,8 km/h (1 Bft)
20.09.2016 17:00 11,1 C 11,1 C 91 % 1016,1 hPa 0,0 mm 1,5 km/h (1 Bft) O-NO 73 0 min 0,000 mm 0,0 UV-I 32 W/m 9,7 C 3,2 km/h (1 Bft)
20.09.2016 17:01 11,1 C 11,1 C 91 % 1016,1 hPa 0,0 mm 1,4 km/h (1 Bft) O-NO 73 0 min 0,025 mm 0,0 UV-I 33 W/m 9,7 C 3,2 km/h (1 Bft)
20.09.2016 17:02 11,1 C 11,1 C 91 % 1016,1 hPa 0,0 mm 4,9 km/h (1 Bft) O-NO 57 0 min 0,001 mm 0,0 UV-I 33 W/m 9,7 C 8,0 km/h (2 Bft)
20.09.2016 17:03 11,1 C 11,1 C 91 % 1016,1 hPa 0,0 mm 5,0 km/h (1 Bft) O-NO 65 0 min 0,000 mm 0,0 UV-I 33 W/m 9,7 C 6,4 km/h (2 Bft)
20.09.2016 17:04 11,1 C 11,1 C 90 % 1016,1 hPa 0,0 mm 2,5 km/h (1 Bft) NO 54 0 min 0,000 mm 0,0 UV-I 32 W/m 9,5 C 6,4 km/h (2 Bft)
20.09.2016 17:05 11,1 C 11,1 C 90 % 1016,1 hPa 0,0 mm 4,8 km/h (1 Bft) O-NO 73 0 min 0,000 mm 0,0 UV-I 32 W/m 9,5 C 6,4 km/h (2 Bft)
20.09.2016 17:06 11,1 C 11,1 C 91 % 1016,1 hPa 0,0 mm 3,5 km/h (1 Bft) O-NO 58 0 min 0,000 mm 0,0 UV-I 32 W/m 9,7 C 6,4 km/h (2 Bft)
20.09.2016 17:07 11,1 C 11,1 C 90 % 1016,1 hPa 0,0 mm 3,1 km/h (1 Bft) O-NO 58 0 min 0,000 mm 0,0 UV-I 32 W/m 9,5 C 3,2 km/h (1 Bft)
20.09.2016 17:08 11,1 C 11,1 C 91 % 1016,2 hPa 0,0 mm 2,9 km/h (1 Bft) SO 126 0 min 0,000 mm 0,0 UV-I 32 W/m 9,7 C 4,8 km/h (1 Bft)
20.09.2016 17:09 11,1 C 11,1 C 91 % 1016,1 hPa 0,0 mm 2,9 km/h (1 Bft) NO 36 0 min 0,000 mm 0,0 UV-I 32 W/m 9,7 C 4,8 km/h (1 Bft)
20.09.2016 17:10 11,0 C 11,1 C 91 % 1016,1 hPa 0,0 mm 3,7 km/h (1 Bft) O 83 0 min 0,000 mm 0,0 UV-I 32 W/m 9,6 C 6,4 km/h (2 Bft)
20.09.2016 17:11 11,0 C 11,0 C 91 % 1016,1 hPa 0,0 mm 2,2 km/h (1 Bft) O 82 0 min 0,000 mm 0,0 UV-I 32 W/m 9,6 C 4,8 km/h (1 Bft)
20.09.2016 17:12 11,0 C 11,0 C 91 % 1016,1 hPa 0,0 mm 1,1 km/h (1 Bft) O 82 0 min 0,000 mm 0,0 UV-I 30 W/m 9,6 C 3,2 km/h (1 Bft)
20.09.2016 17:13 10,9 C 11,0 C 91 % 1016,1 hPa 0,0 mm 2,2 km/h (1 Bft) O 82 0 min 0,000 mm 0,0 UV-I 30 W/m 9,5 C 3,2 km/h (1 Bft)
20.09.2016 17:14 10,9 C 11,0 C 91 % 1016,1 hPa 0,0 mm 3,9 km/h (1 Bft) O 83 0 min 0,000 mm 0,0 UV-I 30 W/m 9,5 C 6,4 km/h (2 Bft)
20.09.2016 17:15 10,9 C 11,0 C 91 % 1016,1 hPa 0,0 mm 4,2 km/h (1 Bft) O-NO 74 0 min 0,000 mm 0,0 UV-I 28 W/m 9,5 C 8,0 km/h (2 Bft)
20.09.2016 17:16 10,9 C 11,0 C 91 % 1016,0 hPa 0,0 mm 4,6 km/h (1 Bft) NO 53 0 min 0,000 mm 0,0 UV-I 28 W/m 9,5 C 6,4 km/h (2 Bft)
20.09.2016 17:17 10,9 C 10,9 C 91 % 1016,1 hPa 0,0 mm 5,1 km/h (1 Bft) N-NO 26 0 min 0,000 mm 0,0 UV-I 28 W/m 9,5 C 6,4 km/h (2 Bft)
20.09.2016 17:18 10,9 C 10,9 C 91 % 1016,1 hPa 0,0 mm 4,2 km/h (1 Bft) O 83 0 min 0,000 mm 0,0 UV-I 28 W/m 9,5 C 6,4 km/h (2 Bft)
20.09.2016 17:19 10,9 C 10,9 C 91 % 1016,1 hPa 0,0 mm 5,1 km/h (1 Bft) O-NO 71 0 min 0,000 mm 0,0 UV-I 28 W/m 9,5 C 6,4 km/h (2 Bft)
20.09.2016 17:20 10,9 C 10,9 C 91 % 1016,1 hPa 0,0 mm 5,2 km/h (1 Bft) O 92 0 min 0,000 mm 0,0 UV-I 28 W/m 9,5 C 6,4 km/h (2 Bft)
20.09.2016 17:21 10,9 C 10,9 C 92 % 1016,1 hPa 0,0 mm 4,4 km/h (1 Bft) O-NO 60 0 min 0,000 mm 0,0 UV-I 28 W/m 9,7 C 6,4 km/h (2 Bft)
20.09.2016 17:22 10,9 C 10,9 C 91 % 1016,1 hPa 0,0 mm 4,0 km/h (1 Bft) NO 52 0 min 0,000 mm 0,0 UV-I 28 W/m 9,5 C 6,4 km/h (2 Bft)
20.09.2016 17:23 10,9 C 10,9 C 92 % 1016,1 hPa 0,0 mm 4,6 km/h (1 Bft) NO 41 0 min 0,000 mm 0,0 UV-I 28 W/m 9,7 C 6,4 km/h (2 Bft)
20.09.2016 17:24 10,9 C 10,9 C 92 % 1016,1 hPa 0,0 mm 5,0 km/h (1 Bft) O-NO 67 0 min 0,000 mm 0,0 UV-I 26 W/m 9,7 C 6,4 km/h (2 Bft)
20.09.2016 17:25 10,9 C 10,9 C 91 % 1016,1 hPa 0,0 mm 6,6 km/h (2 Bft) NO 40 0 min 0,000 mm 0,0 UV-I 26 W/m 9,5 C 9,7 km/h (2 Bft)
20.09.2016 17:26 10,9 C 10,9 C 92 % 1016,1 hPa 0,0 mm 3,0 km/h (1 Bft) NO 49 0 min 0,000 mm 0,0 UV-I 26 W/m 9,7 C 6,4 km/h (2 Bft)
20.09.2016 17:27 10,9 C 10,9 C 92 % 1016,1 hPa 0,0 mm 0,5 km/h (0 Bft) NO 49 0 min 0,000 mm 0,0 UV-I 25 W/m 9,7 C 1,6 km/h (1 Bft)
20.09.2016 17:28 10,9 C 10,9 C 92 % 1016,2 hPa 0,0 mm 2,1 km/h (1 Bft) NO 49 0 min 0,000 mm 0,0 UV-I 25 W/m 9,7 C 3,2 km/h (1 Bft)
20.09.2016 17:29 10,8 C 10,9 C 92 % 1016,2 hPa 0,0 mm 2,4 km/h (1 Bft) NO 50 0 min 0,000 mm 0,0 UV-I 23 W/m 9,6 C 3,2 km/h (1 Bft)
20.09.2016 17:30 10,9 C 10,9 C 92 % 1016,1 hPa 0,0 mm 2,7 km/h (1 Bft) NO 50 0 min 0,000 mm 0,0 UV-I 23 W/m 9,7 C 4,8 km/h (1 Bft)
20.09.2016 17:31 10,9 C 10,9 C 92 % 1016,2 hPa 0,0 mm 2,5 km/h (1 Bft) NO 50 0 min 0,000 mm 0,0 UV-I 23 W/m 9,7 C 4,8 km/h (1 Bft)
20.09.2016 17:32 10,9 C 10,9 C 92 % 1016,2 hPa 0,0 mm 1,6 km/h (1 Bft) NO 50 0 min 0,000 mm 0,0 UV-I 21 W/m 9,7 C 3,2 km/h (1 Bft)
20.09.2016 17:33 10,9 C 10,9 C 92 % 1016,2 hPa 0,0 mm 0,9 km/h (0 Bft) NO 50 0 min 0,000 mm 0,0 UV-I 21 W/m 9,7 C 1,6 km/h (1 Bft)
20.09.2016 17:34 10,9 C 10,9 C 92 % 1016,2 hPa 0,0 mm 0,2 km/h (0 Bft) NO 50 0 min 0,000 mm 0,0 UV-I 21 W/m 9,7 C 1,6 km/h (1 Bft)
20.09.2016 17:35 10,9 C 10,9 C 92 % 1016,2 hPa 0,0 mm 0,3 km/h (0 Bft) NO 50 0 min 0,000 mm 0,0 UV-I 21 W/m 9,7 C 1,6 km/h (1 Bft)
20.09.2016 17:36 10,9 C 10,9 C 92 % 1016,2 hPa 0,0 mm 1,2 km/h (1 Bft) NO 50 0 min 0,000 mm 0,0 UV-I 21 W/m 9,7 C 1,6 km/h (1 Bft)
20.09.2016 17:37 10,9 C 10,9 C 91 % 1016,3 hPa 0,0 mm 2,2 km/h (1 Bft) NO 50 0 min 0,000 mm 0,0 UV-I 21 W/m 9,5 C 3,2 km/h (1 Bft)
20.09.2016 17:38 10,9 C 10,9 C 92 % 1016,2 hPa 0,0 mm 1,8 km/h (1 Bft) NO 50 0 min 0,000 mm 0,0 UV-I 21 W/m 9,7 C 3,2 km/h (1 Bft)
20.09.2016 17:39 10,9 C 10,9 C 92 % 1016,3 hPa 0,0 mm 1,9 km/h (1 Bft) NO 50 0 min 0,000 mm 0,0 UV-I 21 W/m 9,7 C 3,2 km/h (1 Bft)
20.09.2016 17:40 10,9 C 10,9 C 92 % 1016,2 hPa 0,0 mm 2,9 km/h (1 Bft) NO 50 0 min 0,000 mm 0,0 UV-I 21 W/m 9,7 C 4,8 km/h (1 Bft)
20.09.2016 17:41 10,9 C 10,9 C 92 % 1016,2 hPa 0,0 mm 0,8 km/h (0 Bft) NO 50 0 min 0,000 mm 0,0 UV-I 21 W/m 9,7 C 1,6 km/h (1 Bft)
20.09.2016 17:42 10,8 C 10,9 C 91 % 1016,3 hPa 0,0 mm 0,9 km/h (0 Bft) NO 50 0 min 0,000 mm 0,0 UV-I 21 W/m 9,4 C 1,6 km/h (1 Bft)
20.09.2016 17:43 10,9 C 10,9 C 91 % 1016,2 hPa 0,0 mm 1,1 km/h (1 Bft) NO 54 0 min 0,000 mm 0,0 UV-I 21 W/m 9,5 C 3,2 km/h (1 Bft)
20.09.2016 17:44 10,8 C 10,9 C 91 % 1016,2 hPa 0,0 mm 0,8 km/h (0 Bft) NO 54 0 min 0,000 mm 0,0 UV-I 19 W/m 9,4 C 3,2 km/h (1 Bft)
20.09.2016 17:45 10,8 C 10,8 C 92 % 1016,3 hPa 0,0 mm 0,7 km/h (0 Bft) NO 54 0 min 0,000 mm 0,0 UV-I 19 W/m 9,6 C 1,6 km/h (1 Bft)
20.09.2016 17:46 10,8 C 10,8 C 91 % 1016,3 hPa 0,0 mm 0,9 km/h (0 Bft) O 91 0 min 0,000 mm 0,0 UV-I 19 W/m 9,4 C 4,8 km/h (1 Bft)
20.09.2016 17:47 10,8 C 10,8 C 91 % 1016,3 hPa 0,0 mm 1,9 km/h (1 Bft) O 91 0 min 0,000 mm 0,0 UV-I 19 W/m 9,4 C 3,2 km/h (1 Bft)
20.09.2016 17:48 10,8 C 10,8 C 91 % 1016,3 hPa 0,0 mm 0,3 km/h (0 Bft) O 91 0 min 0,000 mm 0,0 UV-I 19 W/m 9,4 C 1,6 km/h (1 Bft)
20.09.2016 17:49 10,8 C 10,8 C 91 % 1016,3 hPa 0,0 mm 0,0 km/h (0 Bft) O 91 0 min 0,000 mm 0,0 UV-I 19 W/m 9,4 C 0,0 km/h (0 Bft)
20.09.2016 17:50 10,8 C 10,8 C 91 % 1016,3 hPa 0,0 mm 0,6 km/h (0 Bft) O 91 0 min 0,000 mm 0,0 UV-I 19 W/m 9,4 C 1,6 km/h (1 Bft)
20.09.2016 17:51 10,8 C 10,8 C 91 % 1016,3 hPa 0,0 mm 1,1 km/h (1 Bft) O 91 0 min 0,000 mm 0,0 UV-I 19 W/m 9,4 C 3,2 km/h (1 Bft)
20.09.2016 17:52 10,8 C 10,8 C 91 % 1016,3 hPa 0,0 mm 3,0 km/h (1 Bft) NO 53 0 min 0,000 mm 0,0 UV-I 19 W/m 9,4 C 4,8 km/h (1 Bft)
20.09.2016 17:53 10,8 C 10,8 C 90 % 1016,3 hPa 0,0 mm 2,7 km/h (1 Bft) NO 52 0 min 0,000 mm 0,0 UV-I 19 W/m 9,2 C 4,8 km/h (1 Bft)
20.09.2016 17:54 10,8 C 10,9 C 90 % 1016,4 hPa 0,0 mm 0,7 km/h (0 Bft) NO 52 0 min 0,000 mm 0,0 UV-I 19 W/m 9,2 C 1,6 km/h (1 Bft)
20.09.2016 17:55 10,8 C 10,8 C 90 % 1016,3 hPa 0,0 mm 0,2 km/h (0 Bft) NO 52 0 min 0,000 mm 0,0 UV-I 19 W/m 9,2 C 1,6 km/h (1 Bft)
20.09.2016 17:56 10,8 C 10,9 C 91 % 1016,4 hPa 0,0 mm 0,7 km/h (0 Bft) NO 52 0 min 0,000 mm 0,0 UV-I 19 W/m 9,4 C 1,6 km/h (1 Bft)
20.09.2016 17:57 10,8 C 10,9 C 91 % 1016,4 hPa 0,0 mm 0,0 km/h (0 Bft) NO 52 0 min 0,000 mm 0,0 UV-I 19 W/m 9,4 C 0,0 km/h (0 Bft)
20.09.2016 17:58 10,9 C 10,9 C 91 % 1016,4 hPa 0,0 mm 0,0 km/h (0 Bft) NO 52 0 min 0,000 mm 0,0 UV-I 19 W/m 9,5 C 0,0 km/h (0 Bft)
20.09.2016 17:59 10,9 C 10,9 C 91 % 1016,3 hPa 0,0 mm 0,9 km/h (0 Bft) NO 52 0 min 0,000 mm 0,0 UV-I 19 W/m 9,5 C 1,6 km/h (1 Bft)
20.09.2016 18:00 10,9 C 10,9 C 92 % 1016,4 hPa 0,0 mm 1,2 km/h (1 Bft) NO 52 0 min 0,000 mm 0,0 UV-I 18 W/m 9,7 C 3,2 km/h (1 Bft)
20.09.2016 18:01 10,8 C 10,9 C 92 % 1016,4 hPa 0,0 mm 0,5 km/h (0 Bft) NO 52 0 min 0,025 mm 0,0 UV-I 18 W/m 9,6 C 1,6 km/h (1 Bft)
20.09.2016 18:02 10,8 C 10,8 C 92 % 1016,3 hPa 0,0 mm 0,0 km/h (0 Bft) NO 52 0 min 0,000 mm 0,0 UV-I 18 W/m 9,6 C 0,0 km/h (0 Bft)
20.09.2016 18:03 10,8 C 10,8 C 92 % 1016,3 hPa 0,0 mm 0,0 km/h (0 Bft) NO 52 0 min 0,000 mm 0,0 UV-I 16 W/m 9,6 C 0,0 km/h (0 Bft)
20.09.2016 18:04 10,8 C 10,8 C 91 % 1016,4 hPa 0,0 mm 0,0 km/h (0 Bft) NO 52 0 min 0,000 mm 0,0 UV-I 16 W/m 9,4 C 0,0 km/h (0 Bft)
20.09.2016 18:05 10,8 C 10,8 C 91 % 1016,3 hPa 0,0 mm 1,0 km/h (0 Bft) NO 52 0 min 0,000 mm 0,0 UV-I 12 W/m 9,4 C 1,6 km/h (1 Bft)
20.09.2016 18:06 10,8 C 10,8 C 91 % 1016,4 hPa 0,0 mm 0,5 km/h (0 Bft) NO 52 0 min 0,000 mm 0,0 UV-I 12 W/m 9,4 C 1,6 km/h (1 Bft)
20.09.2016 18:07 10,7 C 10,8 C 92 % 1016,4 hPa 0,0 mm 0,0 km/h (0 Bft) NO 52 0 min 0,000 mm 0,0 UV-I 12 W/m 9,5 C 0,0 km/h (0 Bft)
20.09.2016 18:08 10,7 C 10,8 C 92 % 1016,3 hPa 0,0 mm 0,1 km/h (0 Bft) NO 52 0 min 0,000 mm 0,0 UV-I 12 W/m 9,5 C 1,6 km/h (1 Bft)
20.09.2016 18:09 10,7 C 10,7 C 92 % 1016,4 hPa 0,0 mm 0,0 km/h (0 Bft) NO 52 0 min 0,000 mm 0,0 UV-I 14 W/m 9,5 C 0,0 km/h (0 Bft)
20.09.2016 18:10 10,7 C 10,7 C 92 % 1016,3 hPa 0,0 mm 0,0 km/h (0 Bft) NO 52 0 min 0,000 mm 0,0 UV-I 14 W/m 9,5 C 0,0 km/h (0 Bft)
20.09.2016 18:11 10,7 C 10,7 C 91 % 1016,4 hPa 0,0 mm 0,0 km/h (0 Bft) NO 52 0 min 0,000 mm 0,0 UV-I 14 W/m 9,3 C 0,0 km/h (0 Bft)
20.09.2016 18:12 10,7 C 10,7 C 92 % 1016,4 hPa 0,0 mm 0,0 km/h (0 Bft) NO 52 0 min 0,000 mm 0,0 UV-I 14 W/m 9,5 C 0,0 km/h (0 Bft)
20.09.2016 18:13 10,7 C 10,7 C 92 % 1016,4 hPa 0,0 mm 0,0 km/h (0 Bft) NO 52 0 min 0,000 mm 0,0 UV-I 14 W/m 9,5 C 0,0 km/h (0 Bft)
20.09.2016 18:14 10,6 C 10,7 C 91 % 1016,4 hPa 0,0 mm 0,0 km/h (0 Bft) NO 52 0 min 0,000 mm 0,0 UV-I 14 W/m 9,2 C 0,0 km/h (0 Bft)
20.09.2016 18:15 10,6 C 10,7 C 91 % 1016,3 hPa 0,0 mm 0,0 km/h (0 Bft) NO 52 0 min 0,000 mm 0,0 UV-I 14 W/m 9,2 C 0,0 km/h (0 Bft)
20.09.2016 18:16 10,6 C 10,7 C 91 % 1016,3 hPa 0,0 mm 0,0 km/h (0 Bft) NO 52 0 min 0,000 mm 0,0 UV-I 12 W/m 9,2 C 0,0 km/h (0 Bft)
20.09.2016 18:17 10,6 C 10,7 C 91 % 1016,3 hPa 0,0 mm 0,0 km/h (0 Bft) NO 52 0 min 0,000 mm 0,0 UV-I 14 W/m 9,2 C 0,0 km/h (0 Bft)
20.09.2016 18:18 10,6 C 10,6 C 92 % 1016,3 hPa 0,0 mm 0,0 km/h (0 Bft) NO 52 0 min 0,000 mm 0,0 UV-I 14 W/m 9,4 C 0,0 km/h (0 Bft)
20.09.2016 18:19 10,6 C 10,6 C 92 % 1016,3 hPa 0,0 mm 0,0 km/h (0 Bft) NO 52 0 min 0,000 mm 0,0 UV-I 16 W/m 9,4 C 0,0 km/h (0 Bft)
20.09.2016 18:20 10,6 C 10,6 C 92 % 1016,3 hPa 0,0 mm 0,0 km/h (0 Bft) NO 52 0 min 0,000 mm 0,0 UV-I 16 W/m 9,4 C 0,0 km/h (0 Bft)
20.09.2016 18:21 10,6 C 10,6 C 92 % 1016,4 hPa 0,0 mm 0,0 km/h (0 Bft) NO 52 0 min 0,000 mm 0,0 UV-I 18 W/m 9,4 C 0,0 km/h (0 Bft)
20.09.2016 18:22 10,6 C 10,6 C 92 % 1016,3 hPa 0,0 mm 0,0 km/h (0 Bft) NO 52 0 min 0,000 mm 0,0 UV-I 19 W/m 9,4 C 0,0 km/h (0 Bft)
20.09.2016 18:23 10,6 C 10,6 C 92 % 1016,3 hPa 0,0 mm 0,0 km/h (0 Bft) NO 52 0 min 0,000 mm 0,0 UV-I 19 W/m 9,4 C 0,0 km/h (0 Bft)
20.09.2016 18:24 10,6 C 10,6 C 92 % 1016,3 hPa 0,0 mm 0,0 km/h (0 Bft) NO 52 0 min 0,000 mm 0,0 UV-I 21 W/m 9,4 C 0,0 km/h (0 Bft)
20.09.2016 18:25 10,6 C 10,6 C 92 % 1016,3 hPa 0,0 mm 0,0 km/h (0 Bft) NO 52 0 min 0,000 mm 0,0 UV-I 21 W/m 9,4 C 0,0 km/h (0 Bft)
20.09.2016 18:26 10,6 C 10,6 C 93 % 1016,3 hPa 0,0 mm 0,0 km/h (0 Bft) NO 52 0 min 0,000 mm 0,0 UV-I 21 W/m 9,5 C 0,0 km/h (0 Bft)
20.09.2016 18:27 10,6 C 10,6 C 92 % 1016,3 hPa 0,0 mm 0,0 km/h (0 Bft) NO 52 0 min 0,000 mm 0,0 UV-I 21 W/m 9,4 C 0,0 km/h (0 Bft)
20.09.2016 18:28 10,6 C 10,6 C 92 % 1016,3 hPa 0,0 mm 0,0 km/h (0 Bft) NO 52 0 min 0,000 mm 0,0 UV-I 19 W/m 9,4 C 0,0 km/h (0 Bft)
20.09.2016 18:29 10,6 C 10,6 C 92 % 1016,3 hPa 0,0 mm 0,0 km/h (0 Bft) NO 52 0 min 0,000 mm 0,0 UV-I 18 W/m 9,4 C 0,0 km/h (0 Bft)
20.09.2016 18:30 10,6 C 10,6 C 92 % 1016,3 hPa 0,0 mm 0,0 km/h (0 Bft) NO 52 0 min 0,000 mm 0,0 UV-I 18 W/m 9,4 C 0,0 km/h (0 Bft)
20.09.2016 18:31 10,6 C 10,6 C 92 % 1016,3 hPa 0,0 mm 0,0 km/h (0 Bft) NO 52 0 min 0,000 mm 0,0 UV-I 16 W/m 9,4 C 0,0 km/h (0 Bft)
20.09.2016 18:32 10,6 C 10,6 C 93 % 1016,3 hPa 0,0 mm 0,0 km/h (0 Bft) NO 52 0 min 0,000 mm 0,0 UV-I 16 W/m 9,5 C 0,0 km/h (0 Bft)
20.09.2016 18:33 10,6 C 10,6 C 93 % 1016,3 hPa 0,0 mm 0,0 km/h (0 Bft) NO 52 0 min 0,000 mm 0,0 UV-I 16 W/m 9,5 C 0,0 km/h (0 Bft)
20.09.2016 18:34 10,6 C 10,6 C 93 % 1016,3 hPa 0,0 mm 0,0 km/h (0 Bft) NO 52 0 min 0,000 mm 0,0 UV-I 14 W/m 9,5 C 0,0 km/h (0 Bft)
20.09.2016 18:35 10,6 C 10,6 C 93 % 1016,3 hPa 0,0 mm 0,0 km/h (0 Bft) NO 52 0 min 0,000 mm 0,0 UV-I 14 W/m 9,5 C 0,0 km/h (0 Bft)
20.09.2016 18:36 10,6 C 10,6 C 93 % 1016,3 hPa 0,0 mm 0,0 km/h (0 Bft) NO 52 0 min 0,000 mm 0,0 UV-I 14 W/m 9,5 C 0,0 km/h (0 Bft)
20.09.2016 18:37 10,6 C 10,6 C 93 % 1016,3 hPa 0,0 mm 0,0 km/h (0 Bft) NO 52 0 min 0,000 mm 0,0 UV-I 14 W/m 9,5 C 0,0 km/h (0 Bft)
20.09.2016 18:38 10,6 C 10,6 C 93 % 1016,3 hPa 0,0 mm 0,0 km/h (0 Bft) NO 52 0 min 0,000 mm 0,0 UV-I 12 W/m 9,5 C 0,0 km/h (0 Bft)
20.09.2016 18:39 10,6 C 10,6 C 93 % 1016,4 hPa 0,0 mm 0,0 km/h (0 Bft) NO 52 0 min 0,000 mm 0,0 UV-I 12 W/m 9,5 C 0,0 km/h (0 Bft)
20.09.2016 18:40 10,6 C 10,6 C 93 % 1016,4 hPa 0,0 mm 0,0 km/h (0 Bft) NO 52 0 min 0,000 mm 0,0 UV-I 12 W/m 9,5 C 0,0 km/h (0 Bft)
20.09.2016 18:41 10,6 C 10,6 C 93 % 1016,3 hPa 0,0 mm 0,0 km/h (0 Bft) NO 52 0 min 0,000 mm 0,0 UV-I 12 W/m 9,5 C 0,0 km/h (0 Bft)
20.09.2016 18:42 10,6 C 10,6 C 93 % 1016,4 hPa 0,0 mm 0,0 km/h (0 Bft) NO 52 0 min 0,000 mm 0,0 UV-I 12 W/m 9,5 C 0,0 km/h (0 Bft)
20.09.2016 18:43 10,6 C 10,6 C 93 % 1016,3 hPa 0,0 mm 0,0 km/h (0 Bft) NO 52 0 min 0,000 mm 0,0 UV-I 12 W/m 9,5 C 0,0 km/h (0 Bft)
20.09.2016 18:44 10,6 C 10,6 C 94 % 1016,3 hPa 0,0 mm 0,0 km/h (0 Bft) NO 52 0 min 0,000 mm 0,0 UV-I 12 W/m 9,7 C 0,0 km/h (0 Bft)
20.09.2016 18:45 10,5 C 10,6 C 93 % 1016,3 hPa 0,0 mm 0,0 km/h (0 Bft) NO 52 0 min 0,000 mm 0,0 UV-I 11 W/m 9,4 C 0,0 km/h (0 Bft)
20.09.2016 18:46 10,4 C 10,6 C 93 % 1016,3 hPa 0,0 mm 0,0 km/h (0 Bft) NO 52 0 min 0,000 mm 0,0 UV-I 11 W/m 9,3 C 0,0 km/h (0 Bft)
20.09.2016 18:47 10,5 C 10,5 C 93 % 1016,3 hPa 0,0 mm 0,0 km/h (0 Bft) NO 52 0 min 0,000 mm 0,0 UV-I 9 W/m 9,4 C 0,0 km/h (0 Bft)
20.09.2016 18:48 10,4 C 10,5 C 93 % 1016,3 hPa 0,0 mm 0,0 km/h (0 Bft) NO 52 0 min 0,000 mm 0,0 UV-I 7 W/m 9,3 C 0,0 km/h (0 Bft)
20.09.2016 18:49 10,4 C 10,4 C 93 % 1016,3 hPa 0,0 mm 0,0 km/h (0 Bft) NO 52 0 min 0,000 mm 0,0 UV-I 7 W/m 9,3 C 0,0 km/h (0 Bft)
20.09.2016 18:50 10,4 C 10,4 C 93 % 1016,3 hPa 0,0 mm 0,0 km/h (0 Bft) NO 52 0 min 0,000 mm 0,0 UV-I 7 W/m 9,3 C 0,0 km/h (0 Bft)
20.09.2016 18:51 10,4 C 10,4 C 93 % 1016,3 hPa 0,0 mm 0,0 km/h (0 Bft) NO 52 0 min 0,000 mm 0,0 UV-I 7 W/m 9,3 C 0,0 km/h (0 Bft)
20.09.2016 18:52 10,4 C 10,4 C 93 % 1016,3 hPa 0,0 mm 0,0 km/h (0 Bft) NO 52 0 min 0,000 mm 0,0 UV-I 5 W/m 9,3 C 0,0 km/h (0 Bft)
20.09.2016 18:53 10,4 C 10,4 C 93 % 1016,3 hPa 0,0 mm 0,0 km/h (0 Bft) NO 52 0 min 0,000 mm 0,0 UV-I 5 W/m 9,3 C 0,0 km/h (0 Bft)
20.09.2016 18:54 10,4 C 10,4 C 93 % 1016,4 hPa 0,0 mm 0,0 km/h (0 Bft) NO 52 0 min 0,000 mm 0,0 UV-I 5 W/m 9,3 C 0,0 km/h (0 Bft)
20.09.2016 18:55 10,4 C 10,4 C 93 % 1016,4 hPa 0,0 mm 0,0 km/h (0 Bft) NO 52 0 min 0,000 mm 0,0 UV-I 5 W/m 9,3 C 0,0 km/h (0 Bft)
20.09.2016 18:56 10,4 C 10,4 C 93 % 1016,4 hPa 0,0 mm 0,0 km/h (0 Bft) NO 52 0 min 0,000 mm 0,0 UV-I 5 W/m 9,3 C 0,0 km/h (0 Bft)
20.09.2016 18:57 10,4 C 10,4 C 93 % 1016,4 hPa 0,0 mm 0,0 km/h (0 Bft) NO 52 0 min 0,000 mm 0,0 UV-I 5 W/m 9,3 C 0,0 km/h (0 Bft)
20.09.2016 18:58 10,4 C 10,4 C 93 % 1016,4 hPa 0,0 mm 0,0 km/h (0 Bft) NO 52 0 min 0,000 mm 0,0 UV-I 0 W/m 9,3 C 0,0 km/h (0 Bft)
20.09.2016 18:59 10,4 C 10,4 C 93 % 1016,4 hPa 0,0 mm 0,0 km/h (0 Bft) NO 52 0 min 0,000 mm 0,0 UV-I 0 W/m 9,3 C 0,0 km/h (0 Bft)
20.09.2016 19:00 10,4 C 10,4 C 93 % 1016,5 hPa 0,0 mm 0,0 km/h (0 Bft) NO 52 0 min 0,000 mm 0,0 UV-I 0 W/m 9,3 C 0,0 km/h (0 Bft)
20.09.2016 19:01 10,4 C 10,4 C 93 % 1016,4 hPa 0,0 mm 0,0 km/h (0 Bft) NO 52 0 min 0,000 mm 0,0 UV-I 0 W/m 9,3 C 0,0 km/h (0 Bft)
20.09.2016 19:02 10,4 C 10,4 C 93 % 1016,5 hPa 0,0 mm 0,0 km/h (0 Bft) NO 52 0 min 0,000 mm 0,0 UV-I 0 W/m 9,3 C 0,0 km/h (0 Bft)
20.09.2016 19:03 10,4 C 10,4 C 93 % 1016,4 hPa 0,0 mm 0,0 km/h (0 Bft) NO 52 0 min 0,000 mm 0,0 UV-I 0 W/m 9,3 C 0,0 km/h (0 Bft)
20.09.2016 19:04 10,4 C 10,4 C 93 % 1016,4 hPa 0,0 mm 0,0 km/h (0 Bft) NO 52 0 min 0,000 mm 0,0 UV-I 0 W/m 9,3 C 0,0 km/h (0 Bft)
20.09.2016 19:05 10,4 C 10,4 C 93 % 1016,5 hPa 0,0 mm 0,0 km/h (0 Bft) NO 52 0 min 0,000 mm 0,0 UV-I 0 W/m 9,3 C 0,0 km/h (0 Bft)
20.09.2016 19:06 10,4 C 10,4 C 93 % 1016,5 hPa 0,0 mm 0,0 km/h (0 Bft) NO 52 0 min 0,000 mm 0,0 UV-I 0 W/m 9,3 C 0,0 km/h (0 Bft)
20.09.2016 19:07 10,4 C 10,4 C 93 % 1016,4 hPa 0,0 mm 0,0 km/h (0 Bft) NO 52 0 min 0,000 mm 0,0 UV-I 0 W/m 9,3 C 0,0 km/h (0 Bft)
20.09.2016 19:08 10,4 C 10,4 C 93 % 1016,5 hPa 0,0 mm 0,0 km/h (0 Bft) NO 52 0 min 0,000 mm 0,0 UV-I 0 W/m 9,3 C 0,0 km/h (0 Bft)
20.09.2016 19:09 10,4 C 10,4 C 93 % 1016,5 hPa 0,0 mm 0,0 km/h (0 Bft) NO 52 0 min 0,000 mm 0,0 UV-I 0 W/m 9,3 C 0,0 km/h (0 Bft)
20.09.2016 19:10 10,3 C 10,4 C 93 % 1016,5 hPa 0,0 mm 0,0 km/h (0 Bft) NO 52 0 min 0,000 mm 0,0 UV-I 0 W/m 9,2 C 0,0 km/h (0 Bft)
20.09.2016 19:11 10,4 C 10,4 C 93 % 1016,5 hPa 0,0 mm 0,0 km/h (0 Bft) NO 52 0 min 0,000 mm 0,0 UV-I 0 W/m 9,3 C 0,0 km/h (0 Bft)
20.09.2016 19:12 10,4 C 10,4 C 93 % 1016,5 hPa 0,0 mm 0,0 km/h (0 Bft) NO 52 0 min 0,000 mm 0,0 UV-I 0 W/m 9,3 C 0,0 km/h (0 Bft)
20.09.2016 19:13 10,4 C 10,4 C 93 % 1016,6 hPa 0,0 mm 0,0 km/h (0 Bft) NO 52 0 min 0,000 mm 0,0 UV-I 0 W/m 9,3 C 0,0 km/h (0 Bft)
20.09.2016 19:14 10,3 C 10,4 C 93 % 1016,5 hPa 0,0 mm 0,0 km/h (0 Bft) NO 52 0 min 0,000 mm 0,0 UV-I 0 W/m 9,2 C 0,0 km/h (0 Bft)
20.09.2016 19:15 10,4 C 10,4 C 93 % 1016,5 hPa 0,0 mm 0,0 km/h (0 Bft) NO 52 0 min 0,000 mm 0,0 UV-I 0 W/m 9,3 C 0,0 km/h (0 Bft)
20.09.2016 19:16 10,4 C 10,4 C 93 % 1016,5 hPa 0,0 mm 0,0 km/h (0 Bft) NO 52 0 min 0,000 mm 0,0 UV-I 0 W/m 9,3 C 0,0 km/h (0 Bft)
20.09.2016 19:17 10,4 C 10,4 C 93 % 1016,6 hPa 0,0 mm 0,0 km/h (0 Bft) NO 52 0 min 0,000 mm 0,0 UV-I 0 W/m 9,3 C 0,0 km/h (0 Bft)
20.09.2016 19:18 10,4 C 10,4 C 93 % 1016,5 hPa 0,0 mm 0,0 km/h (0 Bft) NO 52 0 min 0,000 mm 0,0 UV-I 0 W/m 9,3 C 0,0 km/h (0 Bft)
20.09.2016 19:19 10,4 C 10,4 C 93 % 1016,5 hPa 0,0 mm 0,0 km/h (0 Bft) NO 52 0 min 0,000 mm 0,0 UV-I 0 W/m 9,3 C 0,0 km/h (0 Bft)
20.09.2016 19:20 10,4 C 10,4 C 93 % 1016,6 hPa 0,0 mm 0,0 km/h (0 Bft) NO 52 0 min 0,000 mm 0,0 UV-I 0 W/m 9,3 C 0,0 km/h (0 Bft)
20.09.2016 19:21 10,4 C 10,4 C 93 % 1016,6 hPa 0,0 mm 0,0 km/h (0 Bft) NO 52 0 min 0,000 mm 0,0 UV-I 0 W/m 9,3 C 0,0 km/h (0 Bft)
20.09.2016 19:22 10,4 C 10,4 C 93 % 1016,6 hPa 0,0 mm 0,0 km/h (0 Bft) NO 52 0 min 0,000 mm 0,0 UV-I 0 W/m 9,3 C 0,0 km/h (0 Bft)
20.09.2016 19:23 10,4 C 10,4 C 93 % 1016,6 hPa 0,0 mm 0,0 km/h (0 Bft) NO 52 0 min 0,000 mm 0,0 UV-I 0 W/m 9,3 C 0,0 km/h (0 Bft)
20.09.2016 19:24 10,4 C 10,4 C 93 % 1016,6 hPa 0,0 mm 0,0 km/h (0 Bft) NO 52 0 min 0,000 mm 0,0 UV-I 0 W/m 9,3 C 0,0 km/h (0 Bft)
20.09.2016 19:25 10,4 C 10,4 C 93 % 1016,6 hPa 0,0 mm 0,0 km/h (0 Bft) NO 52 0 min 0,000 mm 0,0 UV-I 0 W/m 9,3 C 0,0 km/h (0 Bft)
20.09.2016 19:26 10,4 C 10,4 C 93 % 1016,6 hPa 0,0 mm 0,0 km/h (0 Bft) NO 52 0 min 0,000 mm 0,0 UV-I 0 W/m 9,3 C 0,0 km/h (0 Bft)
20.09.2016 19:27 10,4 C 10,4 C 93 % 1016,6 hPa 0,0 mm 0,0 km/h (0 Bft) NO 52 0 min 0,000 mm 0,0 UV-I 0 W/m 9,3 C 0,0 km/h (0 Bft)
20.09.2016 19:28 10,4 C 10,4 C 93 % 1016,6 hPa 0,0 mm 0,0 km/h (0 Bft) NO 52 0 min 0,000 mm 0,0 UV-I 0 W/m 9,3 C 0,0 km/h (0 Bft)
20.09.2016 19:29 10,4 C 10,4 C 93 % 1016,7 hPa 0,0 mm 0,0 km/h (0 Bft) NO 52 0 min 0,000 mm 0,0 UV-I 0 W/m 9,3 C 0,0 km/h (0 Bft)
20.09.2016 19:30 10,4 C 10,4 C 93 % 1016,7 hPa 0,0 mm 0,0 km/h (0 Bft) NO 52 0 min 0,000 mm 0,0 UV-I 0 W/m 9,3 C 0,0 km/h (0 Bft)
20.09.2016 19:31 10,4 C 10,4 C 93 % 1016,6 hPa 0,0 mm 0,0 km/h (0 Bft) NO 52 0 min 0,000 mm 0,0 UV-I 0 W/m 9,3 C 0,0 km/h (0 Bft)
20.09.2016 19:32 10,3 C 10,4 C 93 % 1016,6 hPa 0,0 mm 0,0 km/h (0 Bft) NO 52 0 min 0,000 mm 0,0 UV-I 0 W/m 9,2 C 0,0 km/h (0 Bft)
20.09.2016 19:33 10,3 C 10,3 C 93 % 1016,7 hPa 0,0 mm 0,0 km/h (0 Bft) NO 52 0 min 0,000 mm 0,0 UV-I 0 W/m 9,2 C 0,0 km/h (0 Bft)
20.09.2016 19:34 10,3 C 10,3 C 93 % 1016,7 hPa 0,0 mm 0,0 km/h (0 Bft) NO 52 0 min 0,000 mm 0,0 UV-I 0 W/m 9,2 C 0,0 km/h (0 Bft)
20.09.2016 19:35 10,3 C 10,3 C 93 % 1016,6 hPa 0,0 mm 0,0 km/h (0 Bft) NO 52 0 min 0,000 mm 0,0 UV-I 0 W/m 9,2 C 0,0 km/h (0 Bft)
20.09.2016 19:36 10,3 C 10,3 C 94 % 1016,6 hPa 0,0 mm 0,0 km/h (0 Bft) NO 52 0 min 0,000 mm 0,0 UV-I 0 W/m 9,4 C 0,0 km/h (0 Bft)
20.09.2016 19:37 10,3 C 10,3 C 94 % 1016,7 hPa 0,0 mm 0,0 km/h (0 Bft) NO 52 0 min 0,000 mm 0,0 UV-I 0 W/m 9,4 C 0,0 km/h (0 Bft)
20.09.2016 19:38 10,3 C 10,3 C 94 % 1016,7 hPa 0,0 mm 0,0 km/h (0 Bft) NO 52 0 min 0,000 mm 0,0 UV-I 0 W/m 9,4 C 0,0 km/h (0 Bft)
20.09.2016 19:39 10,3 C 10,3 C 94 % 1016,7 hPa 0,0 mm 0,0 km/h (0 Bft) NO 52 0 min 0,000 mm 0,0 UV-I 0 W/m 9,4 C 0,0 km/h (0 Bft)
20.09.2016 19:40 10,3 C 10,3 C 94 % 1016,7 hPa 0,0 mm 0,0 km/h (0 Bft) NO 52 0 min 0,000 mm 0,0 UV-I 0 W/m 9,4 C 0,0 km/h (0 Bft)
20.09.2016 19:41 10,3 C 10,3 C 94 % 1016,7 hPa 0,0 mm 0,0 km/h (0 Bft) NO 52 0 min 0,000 mm 0,0 UV-I 0 W/m 9,4 C 0,0 km/h (0 Bft)
20.09.2016 19:42 10,3 C 10,3 C 94 % 1016,7 hPa 0,0 mm 0,0 km/h (0 Bft) NO 52 0 min 0,000 mm 0,0 UV-I 0 W/m 9,4 C 0,0 km/h (0 Bft)
20.09.2016 19:43 10,3 C 10,3 C 94 % 1016,7 hPa 0,0 mm 0,0 km/h (0 Bft) NO 52 0 min 0,000 mm 0,0 UV-I 0 W/m 9,4 C 0,0 km/h (0 Bft)
20.09.2016 19:44 10,3 C 10,3 C 94 % 1016,7 hPa 0,0 mm 0,0 km/h (0 Bft) NO 52 0 min 0,000 mm 0,0 UV-I 0 W/m 9,4 C 0,0 km/h (0 Bft)
20.09.2016 19:45 10,3 C 10,3 C 94 % 1016,7 hPa 0,0 mm 0,0 km/h (0 Bft) NO 52 0 min 0,000 mm 0,0 UV-I 0 W/m 9,4 C 0,0 km/h (0 Bft)
20.09.2016 19:46 10,3 C 10,3 C 94 % 1016,7 hPa 0,0 mm 0,0 km/h (0 Bft) NO 52 0 min 0,000 mm 0,0 UV-I 0 W/m 9,4 C 0,0 km/h (0 Bft)
20.09.2016 19:47 10,3 C 10,3 C 94 % 1016,7 hPa 0,0 mm 0,0 km/h (0 Bft) NO 52 0 min 0,000 mm 0,0 UV-I 0 W/m 9,4 C 0,0 km/h (0 Bft)
20.09.2016 19:48 10,3 C 10,3 C 94 % 1016,7 hPa 0,0 mm 0,0 km/h (0 Bft) NO 52 0 min 0,000 mm 0,0 UV-I 0 W/m 9,4 C 0,0 km/h (0 Bft)
20.09.2016 19:49 10,3 C 10,3 C 94 % 1016,7 hPa 0,0 mm 0,0 km/h (0 Bft) NO 52 0 min 0,000 mm 0,0 UV-I 0 W/m 9,4 C 0,0 km/h (0 Bft)
20.09.2016 19:50 10,3 C 10,3 C 94 % 1016,7 hPa 0,0 mm 0,0 km/h (0 Bft) NO 52 0 min 0,000 mm 0,0 UV-I 0 W/m 9,4 C 0,0 km/h (0 Bft)
20.09.2016 19:51 10,2 C 10,3 C 94 % 1016,8 hPa 0,0 mm 0,0 km/h (0 Bft) NO 52 0 min 0,000 mm 0,0 UV-I 0 W/m 9,3 C 0,0 km/h (0 Bft)
20.09.2016 19:52 10,2 C 10,2 C 94 % 1016,7 hPa 0,0 mm 0,0 km/h (0 Bft) NO 52 0 min 0,000 mm 0,0 UV-I 0 W/m 9,3 C 0,0 km/h (0 Bft)
20.09.2016 19:53 10,2 C 10,2 C 94 % 1016,8 hPa 0,0 mm 0,0 km/h (0 Bft) NO 52 0 min 0,000 mm 0,0 UV-I 0 W/m 9,3 C 0,0 km/h (0 Bft)
20.09.2016 19:54 10,2 C 10,2 C 94 % 1016,8 hPa 0,0 mm 0,0 km/h (0 Bft) NO 52 0 min 0,000 mm 0,0 UV-I 0 W/m 9,3 C 0,0 km/h (0 Bft)
20.09.2016 19:55 10,2 C 10,2 C 94 % 1016,8 hPa 0,0 mm 0,0 km/h (0 Bft) NO 52 0 min 0,000 mm 0,0 UV-I 0 W/m 9,3 C 0,0 km/h (0 Bft)
20.09.2016 19:56 10,2 C 10,2 C 94 % 1016,8 hPa 0,0 mm 0,0 km/h (0 Bft) NO 52 0 min 0,000 mm 0,0 UV-I 0 W/m 9,3 C 0,0 km/h (0 Bft)
20.09.2016 19:57 10,1 C 10,2 C 94 % 1016,9 hPa 0,0 mm 0,0 km/h (0 Bft) NO 52 0 min 0,000 mm 0,0 UV-I 0 W/m 9,2 C 0,0 km/h (0 Bft)
20.09.2016 19:58 10,1 C 10,2 C 94 % 1016,8 hPa 0,0 mm 0,0 km/h (0 Bft) NO 52 0 min 0,000 mm 0,0 UV-I 0 W/m 9,2 C 0,0 km/h (0 Bft)
20.09.2016 19:59 10,2 C 10,2 C 94 % 1016,9 hPa 0,0 mm 0,0 km/h (0 Bft) NO 52 0 min 0,000 mm 0,0 UV-I 0 W/m 9,3 C 0,0 km/h (0 Bft)
20.09.2016 20:00 10,2 C 10,2 C 94 % 1016,9 hPa 0,0 mm 0,0 km/h (0 Bft) NO 52 0 min 0,000 mm 0,0 UV-I 0 W/m 9,3 C 0,0 km/h (0 Bft)
20.09.2016 20:01 10,1 C 10,2 C 94 % 1016,9 hPa 0,0 mm 0,0 km/h (0 Bft) NO 52 0 min 0,000 mm 0,0 UV-I 0 W/m 9,2 C 0,0 km/h (0 Bft)
20.09.2016 20:02 10,1 C 10,1 C 94 % 1016,9 hPa 0,0 mm 0,0 km/h (0 Bft) NO 52 0 min 0,000 mm 0,0 UV-I 0 W/m 9,2 C 0,0 km/h (0 Bft)
20.09.2016 20:03 10,1 C 10,1 C 94 % 1016,9 hPa 0,0 mm 0,0 km/h (0 Bft) NO 52 0 min 0,000 mm 0,0 UV-I 0 W/m 9,2 C 0,0 km/h (0 Bft)
20.09.2016 20:04 10,1 C 10,1 C 94 % 1016,9 hPa 0,0 mm 0,0 km/h (0 Bft) NO 52 0 min 0,000 mm 0,0 UV-I 0 W/m 9,2 C 0,0 km/h (0 Bft)
20.09.2016 20:05 10,1 C 10,1 C 94 % 1016,9 hPa 0,0 mm 0,0 km/h (0 Bft) NO 52 0 min 0,000 mm 0,0 UV-I 0 W/m 9,2 C 0,0 km/h (0 Bft)
20.09.2016 20:06 10,1 C 10,1 C 94 % 1017,0 hPa 0,0 mm 0,0 km/h (0 Bft) NO 52 0 min 0,000 mm 0,0 UV-I 0 W/m 9,2 C 0,0 km/h (0 Bft)
20.09.2016 20:07 10,1 C 10,1 C 94 % 1016,9 hPa 0,0 mm 0,0 km/h (0 Bft) NO 52 0 min 0,000 mm 0,0 UV-I 0 W/m 9,2 C 0,0 km/h (0 Bft)
20.09.2016 20:08 10,1 C 10,1 C 94 % 1017,0 hPa 0,0 mm 0,0 km/h (0 Bft) NO 52 0 min 0,000 mm 0,0 UV-I 0 W/m 9,2 C 0,0 km/h (0 Bft)
20.09.2016 20:09 10,1 C 10,1 C 94 % 1016,9 hPa 0,0 mm 0,0 km/h (0 Bft) NO 52 0 min 0,000 mm 0,0 UV-I 0 W/m 9,2 C 0,0 km/h (0 Bft)
20.09.2016 20:10 10,1 C 10,1 C 94 % 1017,0 hPa 0,0 mm 0,0 km/h (0 Bft) NO 52 0 min 0,000 mm 0,0 UV-I 0 W/m 9,2 C 0,0 km/h (0 Bft)
20.09.2016 20:11 10,0 C 10,1 C 94 % 1017,0 hPa 0,0 mm 0,0 km/h (0 Bft) NO 52 0 min 0,000 mm 0,0 UV-I 0 W/m 9,1 C 0,0 km/h (0 Bft)
20.09.2016 20:12 10,1 C 10,1 C 94 % 1017,0 hPa 0,0 mm 0,0 km/h (0 Bft) NO 52 0 min 0,000 mm 0,0 UV-I 0 W/m 9,2 C 0,0 km/h (0 Bft)
20.09.2016 20:13 10,1 C 10,1 C 94 % 1017,0 hPa 0,0 mm 0,0 km/h (0 Bft) NO 52 0 min 0,000 mm 0,0 UV-I 0 W/m 9,2 C 0,0 km/h (0 Bft)
20.09.2016 20:14 10,0 C 10,1 C 94 % 1016,9 hPa 0,0 mm 0,0 km/h (0 Bft) NO 52 0 min 0,000 mm 0,0 UV-I 0 W/m 9,1 C 0,0 km/h (0 Bft)
20.09.2016 20:15 10,0 C 10,0 C 95 % 1016,9 hPa 0,0 mm 0,0 km/h (0 Bft) NO 52 0 min 0,000 mm 0,0 UV-I 0 W/m 9,2 C 0,0 km/h (0 Bft)
20.09.2016 20:16 10,0 C 10,0 C 95 % 1016,9 hPa 0,0 mm 0,0 km/h (0 Bft) NO 52 0 min 0,000 mm 0,0 UV-I 0 W/m 9,2 C 0,0 km/h (0 Bft)
20.09.2016 20:17 10,0 C 10,0 C 94 % 1016,9 hPa 0,0 mm 0,0 km/h (0 Bft) NO 52 0 min 0,000 mm 0,0 UV-I 0 W/m 9,1 C 0,0 km/h (0 Bft)
20.09.2016 20:18 10,0 C 10,0 C 95 % 1016,9 hPa 0,0 mm 0,0 km/h (0 Bft) NO 52 0 min 0,000 mm 0,0 UV-I 0 W/m 9,2 C 0,0 km/h (0 Bft)
20.09.2016 20:19 10,0 C 10,0 C 95 % 1016,9 hPa 0,0 mm 0,0 km/h (0 Bft) NO 52 0 min 0,000 mm 0,0 UV-I 0 W/m 9,2 C 0,0 km/h (0 Bft)
20.09.2016 20:20 10,0 C 10,0 C 94 % 1016,9 hPa 0,0 mm 0,0 km/h (0 Bft) NO 52 0 min 0,000 mm 0,0 UV-I 0 W/m 9,1 C 0,0 km/h (0 Bft)
20.09.2016 20:21 9,9 C 10,0 C 94 % 1017,0 hPa 0,0 mm 0,0 km/h (0 Bft) NO 52 0 min 0,000 mm 0,0 UV-I 0 W/m 9,0 C 0,0 km/h (0 Bft)
20.09.2016 20:22 9,9 C 10,0 C 94 % 1016,9 hPa 0,0 mm 0,0 km/h (0 Bft) NO 52 0 min 0,000 mm 0,0 UV-I 0 W/m 9,0 C 0,0 km/h (0 Bft)
20.09.2016 20:23 9,9 C 10,0 C 94 % 1017,0 hPa 0,0 mm 0,0 km/h (0 Bft) NO 52 0 min 0,000 mm 0,0 UV-I 0 W/m 9,0 C 0,0 km/h (0 Bft)
20.09.2016 20:24 9,9 C 10,0 C 94 % 1017,0 hPa 0,0 mm 0,0 km/h (0 Bft) NO 52 0 min 0,000 mm 0,0 UV-I 0 W/m 9,0 C 0,0 km/h (0 Bft)
20.09.2016 20:25 9,9 C 9,9 C 94 % 1017,0 hPa 0,0 mm 0,0 km/h (0 Bft) NO 52 0 min 0,000 mm 0,0 UV-I 0 W/m 9,0 C 0,0 km/h (0 Bft)
20.09.2016 20:26 9,9 C 9,9 C 94 % 1017,0 hPa 0,0 mm 0,0 km/h (0 Bft) NO 52 0 min 0,000 mm 0,0 UV-I 0 W/m 9,0 C 0,0 km/h (0 Bft)
20.09.2016 20:27 9,9 C 9,9 C 94 % 1017,1 hPa 0,0 mm 0,0 km/h (0 Bft) NO 52 0 min 0,000 mm 0,0 UV-I 0 W/m 9,0 C 0,0 km/h (0 Bft)
20.09.2016 20:28 9,9 C 9,9 C 94 % 1017,0 hPa 0,0 mm 0,0 km/h (0 Bft) NO 52 0 min 0,000 mm 0,0 UV-I 0 W/m 9,0 C 0,0 km/h (0 Bft)
20.09.2016 20:29 9,9 C 9,9 C 94 % 1017,0 hPa 0,0 mm 0,0 km/h (0 Bft) NO 52 0 min 0,000 mm 0,0 UV-I 0 W/m 9,0 C 0,0 km/h (0 Bft)
20.09.2016 20:30 9,9 C 9,9 C 94 % 1017,0 hPa 0,0 mm 0,0 km/h (0 Bft) NO 52 0 min 0,000 mm 0,0 UV-I 0 W/m 9,0 C 0,0 km/h (0 Bft)
20.09.2016 20:31 9,8 C 9,9 C 94 % 1017,0 hPa 0,0 mm 0,0 km/h (0 Bft) NO 52 0 min 0,000 mm 0,0 UV-I 0 W/m 8,9 C 0,0 km/h (0 Bft)
20.09.2016 20:32 9,8 C 9,9 C 94 % 1017,0 hPa 0,0 mm 0,0 km/h (0 Bft) NO 52 0 min 0,000 mm 0,0 UV-I 0 W/m 8,9 C 0,0 km/h (0 Bft)
20.09.2016 20:33 9,8 C 9,8 C 94 % 1017,0 hPa 0,0 mm 0,0 km/h (0 Bft) NO 52 0 min 0,000 mm 0,0 UV-I 0 W/m 8,9 C 0,0 km/h (0 Bft)
20.09.2016 20:34 9,8 C 9,8 C 94 % 1017,0 hPa 0,0 mm 0,0 km/h (0 Bft) NO 52 0 min 0,000 mm 0,0 UV-I 0 W/m 8,9 C 0,0 km/h (0 Bft)
20.09.2016 20:35 9,8 C 9,8 C 94 % 1017,0 hPa 0,0 mm 0,0 km/h (0 Bft) NO 52 0 min 0,000 mm 0,0 UV-I 0 W/m 8,9 C 0,0 km/h (0 Bft)
20.09.2016 20:36 9,8 C 9,8 C 94 % 1017,0 hPa 0,0 mm 0,0 km/h (0 Bft) NO 52 0 min 0,000 mm 0,0 UV-I 0 W/m 8,9 C 0,0 km/h (0 Bft)
20.09.2016 20:37 9,8 C 9,8 C 94 % 1017,0 hPa 0,0 mm 0,0 km/h (0 Bft) NO 52 0 min 0,000 mm 0,0 UV-I 0 W/m 8,9 C 0,0 km/h (0 Bft)
20.09.2016 20:38 9,8 C 9,8 C 94 % 1017,1 hPa 0,0 mm 2,5 km/h (1 Bft) NO 53 0 min 0,000 mm 0,0 UV-I 0 W/m 8,9 C 3,2 km/h (1 Bft)
20.09.2016 20:39 9,7 C 9,8 C 94 % 1017,1 hPa 0,0 mm 1,9 km/h (1 Bft) NO 53 0 min 0,000 mm 0,0 UV-I 0 W/m 8,8 C 3,2 km/h (1 Bft)
20.09.2016 20:40 9,7 C 9,7 C 94 % 1017,1 hPa 0,0 mm 1,3 km/h (1 Bft) NO 53 0 min 0,000 mm 0,0 UV-I 0 W/m 8,8 C 1,6 km/h (1 Bft)
20.09.2016 20:41 9,7 C 9,7 C 94 % 1017,1 hPa 0,0 mm 1,2 km/h (1 Bft) NO 53 0 min 0,000 mm 0,0 UV-I 0 W/m 8,8 C 1,6 km/h (1 Bft)
20.09.2016 20:42 9,7 C 9,7 C 94 % 1017,1 hPa 0,0 mm 1,0 km/h (0 Bft) NO 53 0 min 0,000 mm 0,0 UV-I 0 W/m 8,8 C 1,6 km/h (1 Bft)
20.09.2016 20:43 9,7 C 9,7 C 94 % 1017,1 hPa 0,0 mm 0,5 km/h (0 Bft) NO 53 0 min 0,000 mm 0,0 UV-I 0 W/m 8,8 C 1,6 km/h (1 Bft)
20.09.2016 20:44 9,7 C 9,7 C 95 % 1017,1 hPa 0,0 mm 0,3 km/h (0 Bft) NO 53 0 min 0,000 mm 0,0 UV-I 0 W/m 8,9 C 1,6 km/h (1 Bft)
20.09.2016 20:45 9,7 C 9,7 C 95 % 1017,1 hPa 0,0 mm 0,9 km/h (0 Bft) NO 53 0 min 0,000 mm 0,0 UV-I 0 W/m 8,9 C 1,6 km/h (1 Bft)
20.09.2016 20:46 9,7 C 9,7 C 95 % 1017,1 hPa 0,0 mm 1,9 km/h (1 Bft) NO 53 0 min 0,000 mm 0,0 UV-I 0 W/m 8,9 C 3,2 km/h (1 Bft)
20.09.2016 20:47 9,7 C 9,7 C 95 % 1017,1 hPa 0,0 mm 0,3 km/h (0 Bft) NO 53 0 min 0,000 mm 0,0 UV-I 0 W/m 8,9 C 1,6 km/h (1 Bft)
20.09.2016 20:48 9,7 C 9,7 C 95 % 1017,1 hPa 0,0 mm 0,6 km/h (0 Bft) NO 53 0 min 0,000 mm 0,0 UV-I 0 W/m 8,9 C 1,6 km/h (1 Bft)
20.09.2016 20:49 9,7 C 9,7 C 95 % 1017,1 hPa 0,0 mm 0,8 km/h (0 Bft) NO 53 0 min 0,000 mm 0,0 UV-I 0 W/m 8,9 C 1,6 km/h (1 Bft)
20.09.2016 20:50 9,7 C 9,7 C 95 % 1017,1 hPa 0,0 mm 0,9 km/h (0 Bft) NO 53 0 min 0,000 mm 0,0 UV-I 0 W/m 8,9 C 3,2 km/h (1 Bft)
20.09.2016 20:51 9,7 C 9,7 C 95 % 1017,1 hPa 0,0 mm 0,4 km/h (0 Bft) NO 53 0 min 0,000 mm 0,0 UV-I 0 W/m 8,9 C 1,6 km/h (1 Bft)
20.09.2016 20:52 9,8 C 9,8 C 94 % 1017,1 hPa 0,0 mm 0,9 km/h (0 Bft) NO 53 0 min 0,000 mm 0,0 UV-I 0 W/m 8,9 C 1,6 km/h (1 Bft)
20.09.2016 20:53 9,8 C 9,8 C 94 % 1017,1 hPa 0,0 mm 1,0 km/h (0 Bft) NO 53 0 min 0,000 mm 0,0 UV-I 0 W/m 8,9 C 1,6 km/h (1 Bft)
20.09.2016 20:54 9,8 C 9,8 C 94 % 1017,2 hPa 0,0 mm 0,9 km/h (0 Bft) NO 53 0 min 0,000 mm 0,0 UV-I 0 W/m 8,9 C 3,2 km/h (1 Bft)
20.09.2016 20:55 9,9 C 9,9 C 94 % 1017,1 hPa 0,0 mm 0,7 km/h (0 Bft) NO 53 0 min 0,000 mm 0,0 UV-I 0 W/m 9,0 C 1,6 km/h (1 Bft)
20.09.2016 20:56 9,9 C 9,9 C 94 % 1017,1 hPa 0,0 mm 2,9 km/h (1 Bft) NO 53 0 min 0,000 mm 0,0 UV-I 0 W/m 9,0 C 4,8 km/h (1 Bft)
20.09.2016 20:57 9,9 C 9,9 C 94 % 1017,1 hPa 0,0 mm 0,8 km/h (0 Bft) NO 53 0 min 0,000 mm 0,0 UV-I 0 W/m 9,0 C 3,2 km/h (1 Bft)
20.09.2016 20:58 9,9 C 9,9 C 94 % 1017,1 hPa 0,0 mm 0,0 km/h (0 Bft) NO 53 0 min 0,000 mm 0,0 UV-I 0 W/m 9,0 C 0,0 km/h (0 Bft)
20.09.2016 20:59 9,9 C 9,9 C 94 % 1017,2 hPa 0,0 mm 0,8 km/h (0 Bft) NO 53 0 min 0,000 mm 0,0 UV-I 0 W/m 9,0 C 1,6 km/h (1 Bft)
20.09.2016 21:00 10,0 C 10,0 C 94 % 1017,1 hPa 0,0 mm 1,3 km/h (1 Bft) NO 53 0 min 0,000 mm 0,0 UV-I 0 W/m 9,1 C 3,2 km/h (1 Bft)
20.09.2016 21:01 10,0 C 10,0 C 94 % 1017,2 hPa 0,0 mm 0,5 km/h (0 Bft) NO 53 0 min 0,000 mm 0,0 UV-I 0 W/m 9,1 C 1,6 km/h (1 Bft)
20.09.2016 21:02 10,0 C 10,0 C 94 % 1017,2 hPa 0,0 mm 0,2 km/h (0 Bft) NO 53 0 min 0,000 mm 0,0 UV-I 0 W/m 9,1 C 1,6 km/h (1 Bft)
20.09.2016 21:03 10,0 C 10,1 C 94 % 1017,2 hPa 0,0 mm 0,7 km/h (0 Bft) NO 53 0 min 0,000 mm 0,0 UV-I 0 W/m 9,1 C 1,6 km/h (1 Bft)
20.09.2016 21:04 10,1 C 10,1 C 94 % 1017,1 hPa 0,0 mm 1,1 km/h (1 Bft) NO 53 0 min 0,000 mm 0,0 UV-I 0 W/m 9,2 C 3,2 km/h (1 Bft)
20.09.2016 21:05 10,1 C 10,1 C 94 % 1017,2 hPa 0,0 mm 1,4 km/h (1 Bft) NO 53 0 min 0,000 mm 0,0 UV-I 0 W/m 9,2 C 3,2 km/h (1 Bft)
20.09.2016 21:06 10,1 C 10,1 C 94 % 1017,1 hPa 0,0 mm 0,6 km/h (0 Bft) NO 53 0 min 0,000 mm 0,0 UV-I 0 W/m 9,2 C 1,6 km/h (1 Bft)
20.09.2016 21:07 10,1 C 10,1 C 94 % 1017,2 hPa 0,0 mm 1,0 km/h (0 Bft) NO 53 0 min 0,000 mm 0,0 UV-I 0 W/m 9,2 C 3,2 km/h (1 Bft)
20.09.2016 21:08 10,1 C 10,1 C 95 % 1017,1 hPa 0,0 mm 0,8 km/h (0 Bft) NO 53 0 min 0,000 mm 0,0 UV-I 0 W/m 9,3 C 1,6 km/h (1 Bft)
20.09.2016 21:09 10,1 C 10,1 C 95 % 1017,1 hPa 0,0 mm 1,5 km/h (1 Bft) NO 53 0 min 0,000 mm 0,0 UV-I 0 W/m 9,3 C 3,2 km/h (1 Bft)
20.09.2016 21:10 10,1 C 10,1 C 95 % 1017,1 hPa 0,0 mm 3,4 km/h (1 Bft) O-NO 59 0 min 0,000 mm 0,0 UV-I 0 W/m 9,3 C 6,4 km/h (2 Bft)
20.09.2016 21:11 10,1 C 10,1 C 95 % 1017,1 hPa 0,0 mm 4,4 km/h (1 Bft) N-NO 32 0 min 0,000 mm 0,0 UV-I 0 W/m 9,3 C 6,4 km/h (2 Bft)
20.09.2016 21:12 10,1 C 10,1 C 95 % 1017,1 hPa 0,0 mm 2,0 km/h (1 Bft) N-NO 32 0 min 0,000 mm 0,0 UV-I 0 W/m 9,3 C 4,8 km/h (1 Bft)
20.09.2016 21:13 10,1 C 10,1 C 95 % 1017,1 hPa 0,0 mm 3,3 km/h (1 Bft) O-NO 63 0 min 0,000 mm 0,0 UV-I 0 W/m 9,3 C 4,8 km/h (1 Bft)
20.09.2016 21:14 10,1 C 10,1 C 95 % 1017,1 hPa 0,0 mm 3,5 km/h (1 Bft) O-NO 63 0 min 0,000 mm 0,0 UV-I 0 W/m 9,3 C 4,8 km/h (1 Bft)
20.09.2016 21:15 10,1 C 10,1 C 95 % 1017,1 hPa 0,0 mm 2,5 km/h (1 Bft) NO 45 0 min 0,000 mm 0,0 UV-I 0 W/m 9,3 C 4,8 km/h (1 Bft)
20.09.2016 21:16 10,1 C 10,1 C 95 % 1017,1 hPa 0,0 mm 2,2 km/h (1 Bft) NO 46 0 min 0,000 mm 0,0 UV-I 0 W/m 9,3 C 4,8 km/h (1 Bft)
20.09.2016 21:17 10,1 C 10,1 C 95 % 1017,1 hPa 0,0 mm 1,1 km/h (1 Bft) NO 46 0 min 0,000 mm 0,0 UV-I 0 W/m 9,3 C 3,2 km/h (1 Bft)
20.09.2016 21:18 10,1 C 10,1 C 95 % 1017,2 hPa 0,0 mm 0,1 km/h (0 Bft) NO 46 0 min 0,000 mm 0,0 UV-I 0 W/m 9,3 C 1,6 km/h (1 Bft)
20.09.2016 21:19 10,1 C 10,1 C 95 % 1017,1 hPa 0,0 mm 0,1 km/h (0 Bft) NO 46 0 min 0,000 mm 0,0 UV-I 0 W/m 9,3 C 1,6 km/h (1 Bft)
20.09.2016 21:20 10,1 C 10,1 C 95 % 1017,2 hPa 0,0 mm 0,8 km/h (0 Bft) NO 46 0 min 0,000 mm 0,0 UV-I 0 W/m 9,3 C 1,6 km/h (1 Bft)
20.09.2016 21:21 10,1 C 10,1 C 95 % 1017,2 hPa 0,0 mm 1,1 km/h (1 Bft) O 89 0 min 0,000 mm 0,0 UV-I 0 W/m 9,3 C 3,2 km/h (1 Bft)
20.09.2016 21:22 10,1 C 10,1 C 95 % 1017,2 hPa 0,0 mm 1,9 km/h (1 Bft) O-NO 69 0 min 0,000 mm 0,0 UV-I 0 W/m 9,3 C 3,2 km/h (1 Bft)
20.09.2016 21:23 10,1 C 10,1 C 95 % 1017,2 hPa 0,0 mm 1,5 km/h (1 Bft) O-NO 69 0 min 0,000 mm 0,0 UV-I 0 W/m 9,3 C 3,2 km/h (1 Bft)
20.09.2016 21:24 10,1 C 10,1 C 95 % 1017,2 hPa 0,0 mm 2,2 km/h (1 Bft) O-NO 58 0 min 0,000 mm 0,0 UV-I 0 W/m 9,3 C 4,8 km/h (1 Bft)
20.09.2016 21:25 10,1 C 10,1 C 95 % 1017,2 hPa 0,0 mm 2,1 km/h (1 Bft) O-NO 57 0 min 0,000 mm 0,0 UV-I 0 W/m 9,3 C 4,8 km/h (1 Bft)
20.09.2016 21:26 10,1 C 10,1 C 95 % 1017,3 hPa 0,0 mm 0,6 km/h (0 Bft) O-NO 57 0 min 0,000 mm 0,0 UV-I 0 W/m 9,3 C 1,6 km/h (1 Bft)
20.09.2016 21:27 10,1 C 10,1 C 95 % 1017,2 hPa 0,0 mm 0,1 km/h (0 Bft) O-NO 57 0 min 0,000 mm 0,0 UV-I 0 W/m 9,3 C 1,6 km/h (1 Bft)
20.09.2016 21:28 10,1 C 10,1 C 95 % 1017,3 hPa 0,0 mm 0,3 km/h (0 Bft) O-NO 57 0 min 0,000 mm 0,0 UV-I 0 W/m 9,3 C 1,6 km/h (1 Bft)
20.09.2016 21:29 10,1 C 10,1 C 94 % 1017,2 hPa 0,0 mm 0,8 km/h (0 Bft) O-NO 57 0 min 0,000 mm 0,0 UV-I 0 W/m 9,2 C 1,6 km/h (1 Bft)
20.09.2016 21:30 10,1 C 10,1 C 94 % 1017,2 hPa 0,0 mm 1,4 km/h (1 Bft) O-NO 57 0 min 0,000 mm 0,0 UV-I 0 W/m 9,2 C 3,2 km/h (1 Bft)
20.09.2016 21:31 10,1 C 10,1 C 94 % 1017,2 hPa 0,0 mm 0,1 km/h (0 Bft) O-NO 57 0 min 0,000 mm 0,0 UV-I 0 W/m 9,2 C 1,6 km/h (1 Bft)
20.09.2016 21:32 10,1 C 10,1 C 94 % 1017,2 hPa 0,0 mm 0,1 km/h (0 Bft) O-NO 57 0 min 0,000 mm 0,0 UV-I 0 W/m 9,2 C 1,6 km/h (1 Bft)
20.09.2016 21:33 10,1 C 10,1 C 94 % 1017,2 hPa 0,0 mm 1,5 km/h (1 Bft) O-NO 58 0 min 0,000 mm 0,0 UV-I 0 W/m 9,2 C 3,2 km/h (1 Bft)
20.09.2016 21:34 10,1 C 10,1 C 94 % 1017,2 hPa 0,0 mm 1,2 km/h (1 Bft) O-NO 58 0 min 0,000 mm 0,0 UV-I 0 W/m 9,2 C 1,6 km/h (1 Bft)
20.09.2016 21:35 10,1 C 10,1 C 94 % 1017,2 hPa 0,0 mm 1,5 km/h (1 Bft) O-NO 58 0 min 0,000 mm 0,0 UV-I 0 W/m 9,2 C 1,6 km/h (1 Bft)
20.09.2016 21:36 10,1 C 10,1 C 94 % 1017,2 hPa 0,0 mm 0,9 km/h (0 Bft) O-NO 58 0 min 0,000 mm 0,0 UV-I 0 W/m 9,2 C 1,6 km/h (1 Bft)
20.09.2016 21:37 10,1 C 10,1 C 94 % 1017,2 hPa 0,0 mm 0,9 km/h (0 Bft) O-NO 58 0 min 0,000 mm 0,0 UV-I 0 W/m 9,2 C 3,2 km/h (1 Bft)
20.09.2016 21:38 10,1 C 10,1 C 94 % 1017,2 hPa 0,0 mm 0,1 km/h (0 Bft) O-NO 58 0 min 0,000 mm 0,0 UV-I 0 W/m 9,2 C 1,6 km/h (1 Bft)
20.09.2016 21:39 10,1 C 10,1 C 94 % 1017,2 hPa 0,0 mm 0,1 km/h (0 Bft) O-NO 58 0 min 0,000 mm 0,0 UV-I 0 W/m 9,2 C 1,6 km/h (1 Bft)
20.09.2016 21:40 10,1 C 10,1 C 94 % 1017,2 hPa 0,0 mm 2,1 km/h (1 Bft) O 80 0 min 0,000 mm 0,0 UV-I 0 W/m 9,2 C 4,8 km/h (1 Bft)
20.09.2016 21:41 10,1 C 10,1 C 94 % 1017,2 hPa 0,0 mm 1,5 km/h (1 Bft) NO 35 0 min 0,000 mm 0,0 UV-I 0 W/m 9,2 C 3,2 km/h (1 Bft)
20.09.2016 21:42 10,1 C 10,1 C 94 % 1017,2 hPa 0,0 mm 1,9 km/h (1 Bft) NO 36 0 min 0,000 mm 0,0 UV-I 0 W/m 9,2 C 3,2 km/h (1 Bft)
20.09.2016 21:43 10,1 C 10,1 C 94 % 1017,2 hPa 0,0 mm 2,5 km/h (1 Bft) NO 42 0 min 0,000 mm 0,0 UV-I 0 W/m 9,2 C 4,8 km/h (1 Bft)
20.09.2016 21:44 10,1 C 10,1 C 94 % 1017,2 hPa 0,0 mm 2,0 km/h (1 Bft) NO 44 0 min 0,000 mm 0,0 UV-I 0 W/m 9,2 C 3,2 km/h (1 Bft)
20.09.2016 21:45 10,1 C 10,1 C 94 % 1017,2 hPa 0,0 mm 1,6 km/h (1 Bft) NO 44 0 min 0,000 mm 0,0 UV-I 0 W/m 9,2 C 3,2 km/h (1 Bft)
20.09.2016 21:46 10,1 C 10,1 C 94 % 1017,3 hPa 0,0 mm 2,7 km/h (1 Bft) NO 49 0 min 0,000 mm 0,0 UV-I 0 W/m 9,2 C 4,8 km/h (1 Bft)
20.09.2016 21:47 10,1 C 10,1 C 94 % 1017,2 hPa 0,0 mm 0,9 km/h (0 Bft) NO 46 0 min 0,000 mm 0,0 UV-I 0 W/m 9,2 C 3,2 km/h (1 Bft)
20.09.2016 21:48 10,1 C 10,1 C 94 % 1017,3 hPa 0,0 mm 3,3 km/h (1 Bft) NO 46 0 min 0,000 mm 0,0 UV-I 0 W/m 9,2 C 4,8 km/h (1 Bft)
20.09.2016 21:49 10,1 C 10,1 C 94 % 1017,2 hPa 0,0 mm 1,6 km/h (1 Bft) NO 46 0 min 0,000 mm 0,0 UV-I 0 W/m 9,2 C 3,2 km/h (1 Bft)
20.09.2016 21:50 10,1 C 10,1 C 94 % 1017,3 hPa 0,0 mm 0,3 km/h (0 Bft) NO 46 0 min 0,000 mm 0,0 UV-I 0 W/m 9,2 C 1,6 km/h (1 Bft)
20.09.2016 21:51 10,1 C 10,1 C 94 % 1017,2 hPa 0,0 mm 0,5 km/h (0 Bft) NO 46 0 min 0,000 mm 0,0 UV-I 0 W/m 9,2 C 3,2 km/h (1 Bft)
20.09.2016 21:52 10,1 C 10,1 C 94 % 1017,2 hPa 0,0 mm 1,7 km/h (1 Bft) NO 46 0 min 0,000 mm 0,0 UV-I 0 W/m 9,2 C 3,2 km/h (1 Bft)
20.09.2016 21:53 10,1 C 10,1 C 94 % 1017,2 hPa 0,0 mm 1,4 km/h (1 Bft) NO 46 0 min 0,000 mm 0,0 UV-I 0 W/m 9,2 C 3,2 km/h (1 Bft)
20.09.2016 21:54 10,1 C 10,1 C 94 % 1017,2 hPa 0,0 mm 0,6 km/h (0 Bft) NO 46 0 min 0,000 mm 0,0 UV-I 0 W/m 9,2 C 1,6 km/h (1 Bft)
20.09.2016 21:55 10,0 C 10,1 C 94 % 1017,2 hPa 0,0 mm 0,7 km/h (0 Bft) NO 46 0 min 0,000 mm 0,0 UV-I 0 W/m 9,1 C 1,6 km/h (1 Bft)
20.09.2016 21:56 10,1 C 10,1 C 94 % 1017,2 hPa 0,0 mm 0,0 km/h (0 Bft) NO 46 0 min 0,000 mm 0,0 UV-I 0 W/m 9,2 C 0,0 km/h (0 Bft)
20.09.2016 21:57 10,1 C 10,1 C 94 % 1017,3 hPa 0,0 mm 0,0 km/h (0 Bft) NO 46 0 min 0,000 mm 0,0 UV-I 0 W/m 9,2 C 0,0 km/h (0 Bft)
20.09.2016 21:58 10,0 C 10,1 C 94 % 1017,2 hPa 0,0 mm 1,1 km/h (1 Bft) NO 46 0 min 0,000 mm 0,0 UV-I 0 W/m 9,1 C 3,2 km/h (1 Bft)
20.09.2016 21:59 10,0 C 10,1 C 94 % 1017,2 hPa 0,0 mm 1,9 km/h (1 Bft) NO 46 0 min 0,000 mm 0,0 UV-I 0 W/m 9,1 C 3,2 km/h (1 Bft)
20.09.2016 22:00 10,0 C 10,1 C 94 % 1017,2 hPa 0,0 mm 2,4 km/h (1 Bft) NO 46 0 min 0,000 mm 0,0 UV-I 0 W/m 9,1 C 3,2 km/h (1 Bft)
20.09.2016 22:01 10,0 C 10,0 C 94 % 1017,2 hPa 0,0 mm 1,7 km/h (1 Bft) NO 46 0 min 0,000 mm 0,0 UV-I 0 W/m 9,1 C 3,2 km/h (1 Bft)
20.09.2016 22:02 10,0 C 10,0 C 94 % 1017,2 hPa 0,0 mm 0,9 km/h (0 Bft) NO 46 0 min 0,000 mm 0,0 UV-I 0 W/m 9,1 C 1,6 km/h (1 Bft)
20.09.2016 22:03 10,0 C 10,0 C 94 % 1017,2 hPa 0,0 mm 0,9 km/h (0 Bft) NO 46 0 min 0,000 mm 0,0 UV-I 0 W/m 9,1 C 1,6 km/h (1 Bft)
20.09.2016 22:04 9,9 C 10,0 C 94 % 1017,2 hPa 0,0 mm 0,6 km/h (0 Bft) NO 46 0 min 0,000 mm 0,0 UV-I 0 W/m 9,0 C 1,6 km/h (1 Bft)
20.09.2016 22:05 9,9 C 9,9 C 94 % 1017,2 hPa 0,0 mm 1,3 km/h (1 Bft) NO 46 0 min 0,000 mm 0,0 UV-I 0 W/m 9,0 C 1,6 km/h (1 Bft)
20.09.2016 22:06 9,9 C 10,0 C 94 % 1017,2 hPa 0,0 mm 1,6 km/h (1 Bft) NO 46 0 min 0,000 mm 0,0 UV-I 0 W/m 9,0 C 3,2 km/h (1 Bft)
20.09.2016 22:07 9,9 C 9,9 C 94 % 1017,2 hPa 0,0 mm 1,1 km/h (1 Bft) NO 46 0 min 0,000 mm 0,0 UV-I 0 W/m 9,0 C 3,2 km/h (1 Bft)
20.09.2016 22:08 9,9 C 9,9 C 95 % 1017,2 hPa 0,0 mm 2,0 km/h (1 Bft) NO 46 0 min 0,000 mm 0,0 UV-I 0 W/m 9,1 C 3,2 km/h (1 Bft)
20.09.2016 22:09 9,9 C 9,9 C 95 % 1017,2 hPa 0,0 mm 0,0 km/h (0 Bft) NO 46 0 min 0,000 mm 0,0 UV-I 0 W/m 9,1 C 0,0 km/h (0 Bft)
20.09.2016 22:10 9,9 C 9,9 C 95 % 1017,2 hPa 0,0 mm 0,5 km/h (0 Bft) NO 46 0 min 0,000 mm 0,0 UV-I 0 W/m 9,1 C 1,6 km/h (1 Bft)
20.09.2016 22:11 9,9 C 9,9 C 95 % 1017,2 hPa 0,0 mm 1,9 km/h (1 Bft) NO 46 0 min 0,000 mm 0,0 UV-I 0 W/m 9,1 C 3,2 km/h (1 Bft)
20.09.2016 22:12 9,9 C 10,0 C 94 % 1017,2 hPa 0,0 mm 0,7 km/h (0 Bft) NO 46 0 min 0,000 mm 0,0 UV-I 0 W/m 9,0 C 1,6 km/h (1 Bft)
20.09.2016 22:13 9,9 C 9,9 C 94 % 1017,2 hPa 0,0 mm 0,2 km/h (0 Bft) NO 46 0 min 0,000 mm 0,0 UV-I 0 W/m 9,0 C 1,6 km/h (1 Bft)
20.09.2016 22:14 9,9 C 9,9 C 94 % 1017,2 hPa 0,0 mm 0,5 km/h (0 Bft) NO 46 0 min 0,000 mm 0,0 UV-I 0 W/m 9,0 C 1,6 km/h (1 Bft)
20.09.2016 22:15 9,9 C 9,9 C 94 % 1017,2 hPa 0,0 mm 0,9 km/h (0 Bft) NO 46 0 min 0,000 mm 0,0 UV-I 0 W/m 9,0 C 1,6 km/h (1 Bft)
20.09.2016 22:16 9,9 C 9,9 C 95 % 1017,2 hPa 0,0 mm 0,0 km/h (0 Bft) NO 46 0 min 0,000 mm 0,0 UV-I 0 W/m 9,1 C 0,0 km/h (0 Bft)
20.09.2016 22:17 9,9 C 9,9 C 95 % 1017,2 hPa 0,0 mm 0,3 km/h (0 Bft) NO 46 0 min 0,000 mm 0,0 UV-I 0 W/m 9,1 C 3,2 km/h (1 Bft)
20.09.2016 22:18 9,9 C 9,9 C 95 % 1017,2 hPa 0,0 mm 1,0 km/h (0 Bft) NO 46 0 min 0,000 mm 0,0 UV-I 0 W/m 9,1 C 3,2 km/h (1 Bft)
20.09.2016 22:19 9,9 C 9,9 C 95 % 1017,2 hPa 0,0 mm 0,1 km/h (0 Bft) NO 46 0 min 0,000 mm 0,0 UV-I 0 W/m 9,1 C 1,6 km/h (1 Bft)
20.09.2016 22:20 9,9 C 9,9 C 94 % 1017,2 hPa 0,0 mm 0,0 km/h (0 Bft) NO 46 0 min 0,000 mm 0,0 UV-I 0 W/m 9,0 C 0,0 km/h (0 Bft)
20.09.2016 22:21 9,9 C 9,9 C 94 % 1017,2 hPa 0,0 mm 0,7 km/h (0 Bft) NO 46 0 min 0,000 mm 0,0 UV-I 0 W/m 9,0 C 1,6 km/h (1 Bft)
20.09.2016 22:22 9,9 C 9,9 C 94 % 1017,2 hPa 0,0 mm 0,7 km/h (0 Bft) NO 46 0 min 0,000 mm 0,0 UV-I 0 W/m 9,0 C 1,6 km/h (1 Bft)
20.09.2016 22:23 9,9 C 9,9 C 94 % 1017,3 hPa 0,0 mm 0,3 km/h (0 Bft) NO 46 0 min 0,000 mm 0,0 UV-I 0 W/m 9,0 C 1,6 km/h (1 Bft)
20.09.2016 22:24 9,9 C 9,9 C 94 % 1017,3 hPa 0,0 mm 0,9 km/h (0 Bft) NO 46 0 min 0,000 mm 0,0 UV-I 0 W/m 9,0 C 3,2 km/h (1 Bft)
20.09.2016 22:25 9,9 C 9,9 C 94 % 1017,3 hPa 0,0 mm 1,7 km/h (1 Bft) NO 46 0 min 0,000 mm 0,0 UV-I 0 W/m 9,0 C 3,2 km/h (1 Bft)
20.09.2016 22:26 9,9 C 9,9 C 94 % 1017,3 hPa 0,0 mm 3,4 km/h (1 Bft) NO 50 0 min 0,000 mm 0,0 UV-I 0 W/m 9,0 C 4,8 km/h (1 Bft)
20.09.2016 22:27 9,9 C 10,0 C 94 % 1017,3 hPa 0,0 mm 2,0 km/h (1 Bft) NO 50 0 min 0,000 mm 0,0 UV-I 0 W/m 9,0 C 3,2 km/h (1 Bft)
20.09.2016 22:28 9,9 C 10,0 C 94 % 1017,2 hPa 0,0 mm 3,1 km/h (1 Bft) O-NO 61 0 min 0,000 mm 0,0 UV-I 0 W/m 9,0 C 4,8 km/h (1 Bft)
20.09.2016 22:29 9,9 C 9,9 C 94 % 1017,3 hPa 0,0 mm 2,4 km/h (1 Bft) O-NO 61 0 min 0,000 mm 0,0 UV-I 0 W/m 9,0 C 4,8 km/h (1 Bft)
20.09.2016 22:30 9,9 C 9,9 C 94 % 1017,3 hPa 0,0 mm 0,9 km/h (0 Bft) O-NO 61 0 min 0,000 mm 0,0 UV-I 0 W/m 9,0 C 1,6 km/h (1 Bft)
20.09.2016 22:31 9,9 C 9,9 C 94 % 1017,3 hPa 0,0 mm 1,3 km/h (1 Bft) O-NO 61 0 min 0,000 mm 0,0 UV-I 0 W/m 9,0 C 1,6 km/h (1 Bft)
20.09.2016 22:32 9,9 C 9,9 C 94 % 1017,3 hPa 0,0 mm 0,9 km/h (0 Bft) O-NO 61 0 min 0,000 mm 0,0 UV-I 0 W/m 9,0 C 1,6 km/h (1 Bft)
20.09.2016 22:33 9,9 C 9,9 C 94 % 1017,3 hPa 0,0 mm 0,0 km/h (0 Bft) O-NO 61 0 min 0,000 mm 0,0 UV-I 0 W/m 9,0 C 0,0 km/h (0 Bft)
20.09.2016 22:34 9,9 C 9,9 C 94 % 1017,2 hPa 0,0 mm 0,0 km/h (0 Bft) O-NO 61 0 min 0,000 mm 0,0 UV-I 0 W/m 9,0 C 0,0 km/h (0 Bft)
20.09.2016 22:35 9,9 C 9,9 C 94 % 1017,3 hPa 0,0 mm 0,0 km/h (0 Bft) O-NO 61 0 min 0,000 mm 0,0 UV-I 0 W/m 9,0 C 0,0 km/h (0 Bft)
20.09.2016 22:36 9,9 C 9,9 C 94 % 1017,2 hPa 0,0 mm 0,0 km/h (0 Bft) O-NO 61 0 min 0,000 mm 0,0 UV-I 0 W/m 9,0 C 0,0 km/h (0 Bft)
20.09.2016 22:37 9,9 C 9,9 C 94 % 1017,2 hPa 0,0 mm 0,0 km/h (0 Bft) O-NO 61 0 min 0,000 mm 0,0 UV-I 0 W/m 9,0 C 0,0 km/h (0 Bft)
20.09.2016 22:38 9,9 C 9,9 C 94 % 1017,3 hPa 0,0 mm 0,0 km/h (0 Bft) O-NO 61 0 min 0,000 mm 0,0 UV-I 0 W/m 9,0 C 0,0 km/h (0 Bft)
20.09.2016 22:39 9,9 C 9,9 C 94 % 1017,2 hPa 0,0 mm 0,0 km/h (0 Bft) O-NO 61 0 min 0,000 mm 0,0 UV-I 0 W/m 9,0 C 0,0 km/h (0 Bft)
20.09.2016 22:40 9,9 C 9,9 C 94 % 1017,3 hPa 0,0 mm 0,0 km/h (0 Bft) O-NO 61 0 min 0,000 mm 0,0 UV-I 0 W/m 9,0 C 0,0 km/h (0 Bft)
20.09.2016 22:41 9,9 C 9,9 C 94 % 1017,3 hPa 0,0 mm 0,0 km/h (0 Bft) O-NO 61 0 min 0,000 mm 0,0 UV-I 0 W/m 9,0 C 0,0 km/h (0 Bft)
20.09.2016 22:42 9,9 C 9,9 C 94 % 1017,2 hPa 0,0 mm 0,0 km/h (0 Bft) O-NO 61 0 min 0,000 mm 0,0 UV-I 0 W/m 9,0 C 0,0 km/h (0 Bft)
20.09.2016 22:43 9,9 C 9,9 C 94 % 1017,3 hPa 0,0 mm 0,0 km/h (0 Bft) O-NO 61 0 min 0,000 mm 0,0 UV-I 0 W/m 9,0 C 0,0 km/h (0 Bft)
20.09.2016 22:44 9,9 C 9,9 C 94 % 1017,3 hPa 0,0 mm 0,0 km/h (0 Bft) O-NO 61 0 min 0,000 mm 0,0 UV-I 0 W/m 9,0 C 0,0 km/h (0 Bft)
20.09.2016 22:45 9,8 C 9,9 C 94 % 1017,3 hPa 0,0 mm 0,0 km/h (0 Bft) O-NO 61 0 min 0,000 mm 0,0 UV-I 0 W/m 8,9 C 0,0 km/h (0 Bft)
20.09.2016 22:46 9,9 C 9,9 C 94 % 1017,2 hPa 0,0 mm 0,0 km/h (0 Bft) O-NO 61 0 min 0,000 mm 0,0 UV-I 0 W/m 9,0 C 0,0 km/h (0 Bft)
20.09.2016 22:47 9,8 C 9,9 C 94 % 1017,2 hPa 0,0 mm 0,0 km/h (0 Bft) O-NO 61 0 min 0,000 mm 0,0 UV-I 0 W/m 8,9 C 0,0 km/h (0 Bft)
20.09.2016 22:48 9,8 C 9,9 C 94 % 1017,3 hPa 0,0 mm 0,0 km/h (0 Bft) O-NO 61 0 min 0,000 mm 0,0 UV-I 0 W/m 8,9 C 0,0 km/h (0 Bft)
20.09.2016 22:49 9,8 C 9,9 C 94 % 1017,3 hPa 0,0 mm 0,0 km/h (0 Bft) O-NO 61 0 min 0,000 mm 0,0 UV-I 0 W/m 8,9 C 0,0 km/h (0 Bft)
20.09.2016 22:50 9,8 C 9,9 C 94 % 1017,3 hPa 0,0 mm 0,0 km/h (0 Bft) O-NO 61 0 min 0,000 mm 0,0 UV-I 0 W/m 8,9 C 0,0 km/h (0 Bft)
20.09.2016 22:51 9,9 C 9,9 C 94 % 1017,3 hPa 0,0 mm 0,0 km/h (0 Bft) O-NO 61 0 min 0,000 mm 0,0 UV-I 0 W/m 9,0 C 0,0 km/h (0 Bft)
20.09.2016 22:52 9,9 C 9,9 C 94 % 1017,3 hPa 0,0 mm 0,0 km/h (0 Bft) O-NO 61 0 min 0,000 mm 0,0 UV-I 0 W/m 9,0 C 0,0 km/h (0 Bft)
20.09.2016 22:53 9,8 C 9,9 C 94 % 1017,3 hPa 0,0 mm 0,0 km/h (0 Bft) O-NO 61 0 min 0,000 mm 0,0 UV-I 0 W/m 8,9 C 0,0 km/h (0 Bft)
20.09.2016 22:54 9,8 C 9,9 C 94 % 1017,3 hPa 0,0 mm 0,0 km/h (0 Bft) O-NO 61 0 min 0,000 mm 0,0 UV-I 0 W/m 8,9 C 0,0 km/h (0 Bft)
20.09.2016 22:55 9,8 C 9,8 C 94 % 1017,3 hPa 0,0 mm 0,0 km/h (0 Bft) O-NO 61 0 min 0,000 mm 0,0 UV-I 0 W/m 8,9 C 0,0 km/h (0 Bft)
20.09.2016 22:56 9,8 C 9,8 C 94 % 1017,3 hPa 0,0 mm 0,0 km/h (0 Bft) O-NO 61 0 min 0,000 mm 0,0 UV-I 0 W/m 8,9 C 0,0 km/h (0 Bft)
20.09.2016 22:57 9,8 C 9,8 C 94 % 1017,3 hPa 0,0 mm 0,0 km/h (0 Bft) O-NO 61 0 min 0,000 mm 0,0 UV-I 0 W/m 8,9 C 0,0 km/h (0 Bft)
20.09.2016 22:58 9,8 C 9,8 C 94 % 1017,3 hPa 0,0 mm 0,0 km/h (0 Bft) O-NO 61 0 min 0,000 mm 0,0 UV-I 0 W/m 8,9 C 0,0 km/h (0 Bft)
20.09.2016 22:59 9,8 C 9,8 C 94 % 1017,3 hPa 0,0 mm 0,0 km/h (0 Bft) O-NO 61 0 min 0,000 mm 0,0 UV-I 0 W/m 8,9 C 0,0 km/h (0 Bft)
20.09.2016 23:00 9,8 C 9,8 C 94 % 1017,3 hPa 0,0 mm 0,0 km/h (0 Bft) O-NO 61 0 min 0,000 mm 0,0 UV-I 0 W/m 8,9 C 0,0 km/h (0 Bft)
20.09.2016 23:01 9,8 C 9,8 C 94 % 1017,3 hPa 0,0 mm 0,0 km/h (0 Bft) O-NO 61 0 min 0,000 mm 0,0 UV-I 0 W/m 8,9 C 0,0 km/h (0 Bft)
20.09.2016 23:02 9,8 C 9,8 C 95 % 1017,3 hPa 0,0 mm 0,0 km/h (0 Bft) O-NO 61 0 min 0,000 mm 0,0 UV-I 0 W/m 9,0 C 0,0 km/h (0 Bft)
20.09.2016 23:03 9,8 C 9,8 C 95 % 1017,3 hPa 0,0 mm 0,0 km/h (0 Bft) O-NO 61 0 min 0,000 mm 0,0 UV-I 0 W/m 9,0 C 0,0 km/h (0 Bft)
20.09.2016 23:04 9,7 C 9,8 C 95 % 1017,3 hPa 0,0 mm 0,0 km/h (0 Bft) O-NO 61 0 min 0,000 mm 0,0 UV-I 0 W/m 8,9 C 0,0 km/h (0 Bft)
20.09.2016 23:05 9,8 C 9,8 C 95 % 1017,3 hPa 0,0 mm 0,0 km/h (0 Bft) O-NO 61 0 min 0,000 mm 0,0 UV-I 0 W/m 9,0 C 0,0 km/h (0 Bft)
20.09.2016 23:06 9,8 C 9,8 C 95 % 1017,3 hPa 0,0 mm 0,0 km/h (0 Bft) O-NO 61 0 min 0,000 mm 0,0 UV-I 0 W/m 9,0 C 0,0 km/h (0 Bft)
20.09.2016 23:07 9,8 C 9,8 C 95 % 1017,3 hPa 0,0 mm 0,0 km/h (0 Bft) O-NO 61 0 min 0,000 mm 0,0 UV-I 0 W/m 9,0 C 0,0 km/h (0 Bft)
20.09.2016 23:08 9,7 C 9,8 C 95 % 1017,3 hPa 0,0 mm 0,0 km/h (0 Bft) O-NO 61 0 min 0,000 mm 0,0 UV-I 0 W/m 8,9 C 0,0 km/h (0 Bft)
20.09.2016 23:09 9,7 C 9,8 C 95 % 1017,2 hPa 0,0 mm 0,0 km/h (0 Bft) O-NO 61 0 min 0,000 mm 0,0 UV-I 0 W/m 8,9 C 0,0 km/h (0 Bft)
20.09.2016 23:10 9,7 C 9,8 C 95 % 1017,3 hPa 0,0 mm 0,0 km/h (0 Bft) O-NO 61 0 min 0,000 mm 0,0 UV-I 0 W/m 8,9 C 0,0 km/h (0 Bft)
20.09.2016 23:11 9,7 C 9,8 C 95 % 1017,2 hPa 0,0 mm 0,0 km/h (0 Bft) O-NO 61 0 min 0,000 mm 0,0 UV-I 0 W/m 8,9 C 0,0 km/h (0 Bft)
20.09.2016 23:12 9,7 C 9,8 C 95 % 1017,3 hPa 0,0 mm 0,0 km/h (0 Bft) O-NO 61 0 min 0,000 mm 0,0 UV-I 0 W/m 8,9 C 0,0 km/h (0 Bft)
20.09.2016 23:13 9,7 C 9,7 C 95 % 1017,2 hPa 0,0 mm 0,0 km/h (0 Bft) O-NO 61 0 min 0,000 mm 0,0 UV-I 0 W/m 8,9 C 0,0 km/h (0 Bft)
20.09.2016 23:14 9,7 C 9,7 C 95 % 1017,2 hPa 0,0 mm 0,0 km/h (0 Bft) O-NO 61 0 min 0,000 mm 0,0 UV-I 0 W/m 8,9 C 0,0 km/h (0 Bft)
20.09.2016 23:15 9,7 C 9,7 C 95 % 1017,2 hPa 0,0 mm 0,0 km/h (0 Bft) O-NO 61 0 min 0,000 mm 0,0 UV-I 0 W/m 8,9 C 0,0 km/h (0 Bft)
20.09.2016 23:16 9,7 C 9,7 C 95 % 1017,2 hPa 0,0 mm 0,0 km/h (0 Bft) O-NO 61 0 min 0,000 mm 0,0 UV-I 0 W/m 8,9 C 0,0 km/h (0 Bft)
20.09.2016 23:17 9,7 C 9,7 C 95 % 1017,2 hPa 0,0 mm 0,0 km/h (0 Bft) O-NO 61 0 min 0,000 mm 0,0 UV-I 0 W/m 8,9 C 0,0 km/h (0 Bft)
20.09.2016 23:18 9,7 C 9,7 C 95 % 1017,2 hPa 0,0 mm 0,0 km/h (0 Bft) O-NO 61 0 min 0,000 mm 0,0 UV-I 0 W/m 8,9 C 0,0 km/h (0 Bft)
20.09.2016 23:19 9,7 C 9,7 C 95 % 1017,2 hPa 0,0 mm 0,0 km/h (0 Bft) O-NO 61 0 min 0,000 mm 0,0 UV-I 0 W/m 8,9 C 0,0 km/h (0 Bft)
20.09.2016 23:20 9,7 C 9,7 C 95 % 1017,1 hPa 0,0 mm 0,0 km/h (0 Bft) O-NO 61 0 min 0,000 mm 0,0 UV-I 0 W/m 8,9 C 0,0 km/h (0 Bft)
20.09.2016 23:21 9,7 C 9,7 C 95 % 1017,2 hPa 0,0 mm 0,0 km/h (0 Bft) O-NO 61 0 min 0,000 mm 0,0 UV-I 0 W/m 8,9 C 0,0 km/h (0 Bft)
20.09.2016 23:22 9,7 C 9,7 C 95 % 1017,2 hPa 0,0 mm 0,0 km/h (0 Bft) O-NO 61 0 min 0,000 mm 0,0 UV-I 0 W/m 8,9 C 0,0 km/h (0 Bft)
20.09.2016 23:23 9,7 C 9,7 C 95 % 1017,1 hPa 0,0 mm 0,0 km/h (0 Bft) O-NO 61 0 min 0,000 mm 0,0 UV-I 0 W/m 8,9 C 0,0 km/h (0 Bft)
20.09.2016 23:24 9,7 C 9,7 C 95 % 1017,2 hPa 0,0 mm 0,0 km/h (0 Bft) O-NO 61 0 min 0,000 mm 0,0 UV-I 0 W/m 8,9 C 0,0 km/h (0 Bft)
20.09.2016 23:25 9,7 C 9,7 C 95 % 1017,1 hPa 0,0 mm 0,0 km/h (0 Bft) O-NO 61 0 min 0,000 mm 0,0 UV-I 0 W/m 8,9 C 0,0 km/h (0 Bft)
20.09.2016 23:26 9,7 C 9,7 C 95 % 1017,2 hPa 0,0 mm 0,0 km/h (0 Bft) O-NO 61 0 min 0,000 mm 0,0 UV-I 0 W/m 8,9 C 0,0 km/h (0 Bft)
20.09.2016 23:27 9,7 C 9,7 C 95 % 1017,2 hPa 0,0 mm 0,0 km/h (0 Bft) O-NO 61 0 min 0,000 mm 0,0 UV-I 0 W/m 8,9 C 0,0 km/h (0 Bft)
20.09.2016 23:28 9,7 C 9,7 C 95 % 1017,2 hPa 0,0 mm 0,0 km/h (0 Bft) O-NO 61 0 min 0,000 mm 0,0 UV-I 0 W/m 8,9 C 0,0 km/h (0 Bft)
20.09.2016 23:29 9,7 C 9,7 C 95 % 1017,2 hPa 0,0 mm 0,0 km/h (0 Bft) O-NO 61 0 min 0,000 mm 0,0 UV-I 0 W/m 8,9 C 0,0 km/h (0 Bft)
20.09.2016 23:30 9,7 C 9,7 C 95 % 1017,2 hPa 0,0 mm 0,0 km/h (0 Bft) O-NO 61 0 min 0,000 mm 0,0 UV-I 0 W/m 8,9 C 0,0 km/h (0 Bft)
20.09.2016 23:31 9,7 C 9,7 C 95 % 1017,2 hPa 0,0 mm 0,0 km/h (0 Bft) O-NO 61 0 min 0,000 mm 0,0 UV-I 0 W/m 8,9 C 0,0 km/h (0 Bft)
20.09.2016 23:32 9,7 C 9,7 C 95 % 1017,2 hPa 0,0 mm 0,0 km/h (0 Bft) O-NO 61 0 min 0,000 mm 0,0 UV-I 0 W/m 8,9 C 0,0 km/h (0 Bft)
20.09.2016 23:33 9,7 C 9,7 C 95 % 1017,2 hPa 0,0 mm 0,0 km/h (0 Bft) O-NO 61 0 min 0,000 mm 0,0 UV-I 0 W/m 8,9 C 0,0 km/h (0 Bft)
20.09.2016 23:34 9,7 C 9,7 C 95 % 1017,2 hPa 0,0 mm 1,6 km/h (1 Bft) O-NO 61 0 min 0,000 mm 0,0 UV-I 0 W/m 8,9 C 3,2 km/h (1 Bft)
20.09.2016 23:35 9,7 C 9,7 C 95 % 1017,1 hPa 0,0 mm 3,6 km/h (1 Bft) O-NO 61 0 min 0,000 mm 0,0 UV-I 0 W/m 8,9 C 4,8 km/h (1 Bft)
20.09.2016 23:36 9,7 C 9,7 C 95 % 1017,2 hPa 0,0 mm 2,6 km/h (1 Bft) O-NO 60 0 min 0,000 mm 0,0 UV-I 0 W/m 8,9 C 3,2 km/h (1 Bft)
20.09.2016 23:37 9,7 C 9,7 C 95 % 1017,2 hPa 0,0 mm 2,7 km/h (1 Bft) O-NO 60 0 min 0,000 mm 0,0 UV-I 0 W/m 8,9 C 4,8 km/h (1 Bft)
20.09.2016 23:38 9,7 C 9,7 C 95 % 1017,2 hPa 0,0 mm 2,5 km/h (1 Bft) O-NO 60 0 min 0,000 mm 0,0 UV-I 0 W/m 8,9 C 3,2 km/h (1 Bft)
20.09.2016 23:39 9,7 C 9,7 C 95 % 1017,2 hPa 0,0 mm 3,4 km/h (1 Bft) O-NO 62 0 min 0,000 mm 0,0 UV-I 0 W/m 8,9 C 4,8 km/h (1 Bft)
20.09.2016 23:40 9,7 C 9,7 C 95 % 1017,2 hPa 0,0 mm 3,2 km/h (1 Bft) O-NO 59 0 min 0,000 mm 0,0 UV-I 0 W/m 8,9 C 4,8 km/h (1 Bft)
20.09.2016 23:41 9,7 C 9,7 C 95 % 1017,2 hPa 0,0 mm 4,0 km/h (1 Bft) O-NO 58 0 min 0,000 mm 0,0 UV-I 0 W/m 8,9 C 4,8 km/h (1 Bft)
20.09.2016 23:42 9,7 C 9,7 C 95 % 1017,2 hPa 0,0 mm 2,4 km/h (1 Bft) O-NO 58 0 min 0,000 mm 0,0 UV-I 0 W/m 8,9 C 4,8 km/h (1 Bft)
20.09.2016 23:43 9,7 C 9,7 C 95 % 1017,2 hPa 0,0 mm 3,3 km/h (1 Bft) O-NO 58 0 min 0,000 mm 0,0 UV-I 0 W/m 8,9 C 4,8 km/h (1 Bft)
20.09.2016 23:44 9,7 C 9,7 C 95 % 1017,2 hPa 0,0 mm 3,4 km/h (1 Bft) O-NO 58 0 min 0,000 mm 0,0 UV-I 0 W/m 8,9 C 4,8 km/h (1 Bft)
20.09.2016 23:45 9,7 C 9,7 C 95 % 1017,2 hPa 0,0 mm 2,3 km/h (1 Bft) O-NO 58 0 min 0,000 mm 0,0 UV-I 0 W/m 8,9 C 3,2 km/h (1 Bft)
20.09.2016 23:46 9,7 C 9,7 C 95 % 1017,2 hPa 0,0 mm 1,1 km/h (1 Bft) O-NO 58 0 min 0,000 mm 0,0 UV-I 0 W/m 8,9 C 3,2 km/h (1 Bft)
20.09.2016 23:47 9,7 C 9,7 C 95 % 1017,2 hPa 0,0 mm 2,9 km/h (1 Bft) O-NO 58 0 min 0,000 mm 0,0 UV-I 0 W/m 8,9 C 4,8 km/h (1 Bft)
20.09.2016 23:48 9,7 C 9,7 C 95 % 1017,2 hPa 0,0 mm 2,6 km/h (1 Bft) O-NO 58 0 min 0,000 mm 0,0 UV-I 0 W/m 8,9 C 3,2 km/h (1 Bft)
20.09.2016 23:49 9,7 C 9,7 C 95 % 1017,2 hPa 0,0 mm 2,1 km/h (1 Bft) O-NO 58 0 min 0,000 mm 0,0 UV-I 0 W/m 8,9 C 3,2 km/h (1 Bft)
20.09.2016 23:50 9,7 C 9,7 C 95 % 1017,2 hPa 0,0 mm 2,7 km/h (1 Bft) O-NO 58 0 min 0,000 mm 0,0 UV-I 0 W/m 8,9 C 4,8 km/h (1 Bft)
20.09.2016 23:51 9,7 C 9,7 C 95 % 1017,2 hPa 0,0 mm 3,6 km/h (1 Bft) O-NO 58 0 min 0,000 mm 0,0 UV-I 0 W/m 8,9 C 4,8 km/h (1 Bft)
20.09.2016 23:52 9,7 C 9,7 C 95 % 1017,2 hPa 0,0 mm 3,4 km/h (1 Bft) O 85 0 min 0,000 mm 0,0 UV-I 0 W/m 8,9 C 6,4 km/h (2 Bft)
20.09.2016 23:53 9,6 C 9,7 C 95 % 1017,2 hPa 0,0 mm 1,9 km/h (1 Bft) O 85 0 min 0,000 mm 0,0 UV-I 0 W/m 8,8 C 3,2 km/h (1 Bft)
20.09.2016 23:54 9,6 C 9,6 C 95 % 1017,2 hPa 0,0 mm 1,0 km/h (0 Bft) O 85 0 min 0,000 mm 0,0 UV-I 0 W/m 8,8 C 1,6 km/h (1 Bft)
20.09.2016 23:55 9,6 C 9,6 C 95 % 1017,2 hPa 0,0 mm 1,9 km/h (1 Bft) O 85 0 min 0,000 mm 0,0 UV-I 0 W/m 8,8 C 3,2 km/h (1 Bft)
20.09.2016 23:56 9,6 C 9,6 C 95 % 1017,2 hPa 0,0 mm 2,6 km/h (1 Bft) O 90 0 min 0,000 mm 0,0 UV-I 0 W/m 8,8 C 4,8 km/h (1 Bft)
20.09.2016 23:57 9,5 C 9,6 C 95 % 1017,2 hPa 0,0 mm 2,0 km/h (1 Bft) O 90 0 min 0,000 mm 0,0 UV-I 0 W/m 8,7 C 3,2 km/h (1 Bft)
20.09.2016 23:58 9,6 C 9,6 C 95 % 1017,2 hPa 0,0 mm 1,5 km/h (1 Bft) O 90 0 min 0,000 mm 0,0 UV-I 0 W/m 8,8 C 3,2 km/h (1 Bft)
20.09.2016 23:59 9,5 C 9,6 C 95 % 1017,2 hPa 0,0 mm 0,3 km/h (0 Bft) O 90 0 min 0,000 mm 0,0 UV-I 0 W/m 8,7 C 1,6 km/h (1 Bft)
_ Min-Zeit 06:10 04:25 15:39 17:16 - 23:33 - - - - - - 03:55 23:33
Minimum _ 8,9 C 8,9 C 84 % 1016,0 hPa - 0,0 km/h (0 Bft) - - - - - - 8,1 C 0,0 km/h (0 Bft)
_ Max-Zeit 16:08 16:09 08:07 00:29 00:20 12:41 - - 23:59 13:01 11:50 12:16 10:36 13:41
Maximum _ 11,9 C 11,9 C 96 % 1017,5 hPa 0,2 mm 8,2 km/h
NO (2 Bft)
- - 0 min 0,102 mm 2,4 UV-I 292 W/m 10,0 C 12,9 km/h
O-SO (3 Bft)
Durchschnitt _ 10,1 C 10,1 C 93 % 1016,7 hPa #0,2 mm 1,8 km/h (1 Bft) NO - #0 min. #0,635 mm 1,2 UV-I 51 W/m 9,0 C 3,1 km/h (1 Bft)